[[{"header":{"parameterUnit":"m.s-1","parameterCategory":1,"la1":31.0,"la2":29.5877,"lo1":-88.7671,"lo2":-86.6584,"dx":0.0162,"dy":0.0185,"nx":115,"ny":88,"refTime":"2022-12-20T06:00:00:Z","depth":0,"parameterNumber":2,"parameterNumberName":"U-component_of_WINDS"},"data":[0.0,0.0,0.0,0.0,0.0,0.0,0.0,0.0,0.0,0.0,0.0,0.0,0.0,0.0,0.0,0.0,0.0,0.0,0.0,0.0,0.0,0.0,0.0,0.0,0.0,0.0,0.0,0.0,0.0,0.0,0.0,0.0,0.0,0.0,0.0,0.0,0.0,0.0,0.0,0.0,0.0,0.0,0.0,0.0,0.0,0.0,0.0,0.0,0.0,0.0,0.0,0.0,0.0,0.0,0.0,0.0,0.0,0.0,0.0,0.0,0.0,0.0,0.0,0.0,0.0,0.0,0.0,0.0,0.0,0.0,0.0,0.0,0.0,0.0,0.0,0.0,0.0,0.0,0.0,0.0,0.0,0.0,0.0,0.0,0.0,0.0,0.0,0.0,0.0,0.0,0.0,0.0,0.0,0.0,0.0,0.0,0.0,0.0,0.0,0.0,0.0,0.0,0.0,0.0,0.0,0.0,0.0,0.0,0.0,0.0,0.0,0.0,0.0,0.0,0.0,0.0,0.0,0.0,0.0,0.0,0.0,0.0,0.0,0.0,0.0,0.0,0.0,0.0,0.0,0.0,0.0,0.0,0.0,0.0,0.0,0.0,0.0,0.0,0.0,0.0,0.0,0.0,0.0,0.0,0.0,0.0,0.0,0.0,0.0,0.0,0.0,0.0,0.0,0.0,0.0,0.0,0.0,0.0,0.0,0.0,0.0,0.0,0.0,0.0,0.0,0.0,0.0,0.0,0.0,0.0,0.0,0.0,0.0,0.0,0.0,0.0,0.0,0.0,0.0,0.0,0.0,0.0,0.0,0.0,0.0,0.0,0.0,0.0,0.0,0.0,0.0,0.0,0.0,0.0,0.0,0.0,0.0,0.0,0.0,0.0,0.0,0.0,0.0,0.0,0.0,0.0,0.0,0.0,0.0,0.0,0.0,0.0,0.0,0.0,0.0,0.0,0.0,0.0,0.0,0.0,0.0,0.0,0.0,0.0,0.0,0.0,0.0,0.0,0.0,0.0,0.0,0.0,0.0,0.0,0.0,0.0,0.0,0.0,0.0,0.0,0.0,0.0,0.0,0.0,0.0,0.0,0.0,0.0,0.0,0.0,0.0,0.0,0.0,0.0,0.0,0.0,0.0,0.0,0.0,0.0,0.0,0.0,0.0,0.0,0.0,0.0,0.0,0.0,0.0,0.0,0.0,0.0,0.0,0.0,0.0,0.0,0.0,0.0,0.0,0.0,0.0,0.0,0.0,0.0,0.0,0.0,0.0,0.0,0.0,0.0,0.0,0.0,0.0,0.0,0.0,0.0,0.0,0.0,0.0,0.0,0.0,0.0,0.0,0.0,0.0,0.0,0.0,0.0,0.0,0.0,0.0,0.0,0.0,0.0,0.0,0.0,0.0,0.0,0.0,0.0,0.0,0.0,0.0,0.0,0.0,0.0,0.0,0.0,0.0,0.0,0.0,0.0,0.0,0.0,0.0,0.0,0.0,0.0,0.0,0.0,0.0,0.0,0.0,0.0,0.0,0.0,0.0,0.0,0.0,0.0,0.0,0.0,0.0,0.0,0.0,0.0,0.0,0.0,0.0,0.0,0.0,0.0,0.0,0.0,0.0,0.0,0.0,0.0,0.0,0.0,0.0,0.0,0.0,0.0,0.0,0.0,0.0,0.0,0.0,0.0,0.0,0.0,0.0,0.0,0.0,0.0,0.0,0.0,0.0,0.0,0.0,0.0,0.0,0.0,0.0,0.0,0.0,0.0,0.0,0.0,0.0,0.0,0.0,0.0,0.0,0.0,0.0,0.0,0.0,0.0,0.0,0.0,0.0,0.0,0.0,0.0,0.0,0.0,0.0,0.0,0.0,0.0,0.0,0.0,0.0,0.0,0.0,0.0,0.0,0.0,0.0,0.0,0.0,0.0,0.0,0.0,0.0,0.0,0.0,0.0,0.0,0.0,0.0,0.0,0.0,0.0,0.0,0.0,0.0,0.0,0.0,0.0,0.0,0.0,0.0,0.0,0.0,0.0,0.0,0.0,0.0,0.0,0.0,0.0,0.0,0.0,0.0,0.0,0.0,0.0,0.0,0.0,0.0,0.0,0.0,0.0,0.0,0.0,0.0,0.0,0.0,0.0,0.0,0.0,0.0,0.0,0.0,0.0,0.0,0.0,0.0,0.0,0.0,0.0,0.0,0.0,0.0,0.0,0.0,0.0,0.0,0.0,0.0,0.0,0.0,0.0,0.0,0.0,0.0,0.0,0.0,0.0,0.0,0.0,0.0,0.0,0.0,0.0,0.0,0.0,0.0,0.0,0.0,0.0,0.0,0.0,0.0,0.0,0.0,0.0,0.0,0.0,0.0,0.0,0.0,0.0,0.0,0.0,0.0,0.0,0.0,0.0,0.0,0.0,0.0,0.0,0.0,0.0,0.0,0.0,0.0,0.0,0.0,0.0,0.0,0.0,0.0,0.0,0.0,0.0,0.0,0.0,0.0,0.0,0.0,0.0,0.0,0.0,0.0,0.0,0.0,0.0,0.0,0.0,0.0,0.0,0.0,0.0,0.0,0.0,0.0,0.0,0.0,0.0,0.0,0.0,0.0,0.0,0.0,0.0,0.0,0.0,0.0,0.0,0.0,0.0,0.0,0.0,0.0,0.0,0.0,0.0,0.0,0.0,0.0,0.0,0.0,0.0,0.0,0.0,0.0,0.0,0.0,0.0,0.0,0.0,0.0,0.0,0.0,0.0,0.0,0.0,0.0,0.0,0.0,0.0,0.0,0.0,0.0,0.0,0.0,0.0,0.0,0.0,0.0,0.0,0.0,0.0,0.0,0.0,0.0,0.0,0.0,0.0,0.0,0.0,0.0,0.0,0.0,0.0,0.0,0.0,0.0,0.0,0.0,0.0,0.0,0.0,0.0,0.0,0.0,0.0,0.0,0.0,0.0,0.0,0.0,0.0,0.0,0.0,0.0,0.0,0.0,0.0,0.0,0.0,0.0,0.0,0.0,0.0,0.0,0.0,0.0,0.0,0.0,0.0,0.0,0.0,0.0,0.0,0.0,0.0,0.0,0.0,0.0,0.0,0.0,0.0,0.0,0.0,0.0,0.0,0.0,0.0,0.0,0.0,0.0,0.0,0.0,0.0,0.0,0.0,0.0,0.0,0.0,0.0,0.0,0.0,0.0,0.0,0.0,0.0,0.0,0.0,0.0,0.0,0.0,0.0,0.0,0.0,0.0,0.0,0.0,0.0,0.0,0.0,0.0,0.0,0.0,0.0,0.0,0.0,0.0,0.0,0.0,0.0,0.0,0.0,0.0,0.0,0.0,0.0,0.0,0.0,0.0,0.0,0.0,0.0,0.0,0.0,0.0,0.0,0.0,0.0,0.0,0.0,0.0,0.0,0.0,0.0,0.0,0.0,0.0,0.0,0.0,0.0,0.0,0.0,0.0,0.0,0.0,0.0,0.0,0.0,0.0,0.0,0.0,0.0,0.0,0.0,0.0,0.0,0.0,0.0,0.0,0.0,0.0,0.0,0.0,0.0,0.0,0.0,0.0,0.0,0.0,0.0,0.0,0.0,0.0,0.0,0.0,0.0,0.0,0.0,0.0,0.0,0.0,0.0,0.0,0.0,0.0,0.0,0.0,0.0,0.0,0.0,0.0,0.0,0.0,0.0,0.0,0.0,0.0,0.0,0.0,0.0,0.0,0.0,0.0,0.0,0.0,0.0,0.0,0.0,0.0,0.0,0.0,0.0,0.0,0.0,0.0,0.0,0.0,0.0,0.0,0.0,0.0,0.0,0.0,0.0,0.0,0.0,0.0,0.0,0.0,0.0,0.0,0.0,0.0,0.0,0.0,0.0,0.0,0.0,0.0,0.0,0.0,0.0,0.0,0.0,0.0,0.0,0.0,0.0,0.0,0.0,0.0,0.0,0.0,0.0,0.0,0.0,0.0,0.0,0.0,0.0,0.0,0.0,0.0,0.0,0.0,0.0,0.0,0.0,0.0,0.0,0.0,0.0,0.0,0.0,0.0,0.0,0.0,0.0,0.0,0.0,0.0,0.0,0.0,0.0,0.0,0.0,0.0,0.0,0.0,0.0,0.0,0.0,0.0,0.0,0.0,0.0,0.0,0.0,0.0,0.0,0.0,0.0,0.0,0.0,0.0,0.0,0.0,0.0,0.0,0.0,0.0,0.0,0.0,0.0,0.0,0.0,0.0,0.0,0.0,0.0,0.0,0.0,0.0,0.0,0.0,0.0,4.9729,0.0,0.0,0.0,4.9052,0.0,0.0,0.0,0.0,0.0,0.0,0.0,0.0,0.0,0.0,0.0,0.0,0.0,0.0,0.0,0.0,0.0,0.0,0.0,0.0,0.0,0.0,0.0,0.0,0.0,0.0,0.0,0.0,0.0,0.0,0.0,0.0,0.0,0.0,0.0,0.0,0.0,0.0,0.0,0.0,0.0,0.0,0.0,0.0,0.0,0.0,0.0,0.0,0.0,0.0,0.0,0.0,0.0,0.0,0.0,0.0,0.0,0.0,0.0,0.0,0.0,0.0,0.0,0.0,0.0,0.0,0.0,0.0,0.0,0.0,0.0,0.0,0.0,0.0,0.0,0.0,0.0,0.0,0.0,0.0,0.0,0.0,0.0,0.0,0.0,0.0,0.0,0.0,0.0,0.0,0.0,0.0,0.0,0.0,0.0,0.0,0.0,0.0,0.0,0.0,0.0,0.0,0.0,0.0,0.0,0.0,0.0,0.0,0.0,0.0,4.9729,4.9052,5.0101,5.0168,4.9086,0.0,0.0,0.0,0.0,0.0,0.0,0.0,0.0,0.0,0.0,0.0,0.0,0.0,0.0,0.0,0.0,0.0,0.0,0.0,0.0,0.0,0.0,0.0,0.0,0.0,0.0,0.0,0.0,0.0,0.0,0.0,0.0,0.0,0.0,0.0,0.0,0.0,0.0,0.0,0.0,0.0,0.0,0.0,0.0,0.0,0.0,0.0,0.0,0.0,0.0,0.0,0.0,0.0,0.0,0.0,0.0,0.0,0.0,0.0,0.0,0.0,0.0,0.0,0.0,0.0,0.0,0.0,0.0,0.0,0.0,0.0,0.0,0.0,0.0,0.0,0.0,0.0,0.0,0.0,0.0,0.0,0.0,0.0,0.0,0.0,0.0,0.0,0.0,0.0,0.0,0.0,0.0,0.0,0.0,0.0,0.0,0.0,0.0,0.0,0.0,0.0,0.0,0.0,0.0,0.0,0.0,0.0,0.0,0.0,0.0,0.0,0.0,5.0371,5.0439,4.9323,0.0,0.0,0.0,0.0,0.0,0.0,0.0,0.0,0.0,0.0,0.0,0.0,0.0,0.0,0.0,0.0,0.0,0.0,0.0,0.0,0.0,0.0,0.0,0.0,0.0,0.0,0.0,0.0,0.0,0.0,0.0,0.0,0.0,0.0,0.0,0.0,0.0,0.0,0.0,0.0,0.0,0.0,0.0,0.0,0.0,0.0,0.0,0.0,0.0,0.0,0.0,0.0,0.0,0.0,0.0,0.0,0.0,0.0,0.0,0.0,0.0,0.0,0.0,0.0,0.0,0.0,0.0,0.0,0.0,0.0,0.0,0.0,0.0,0.0,0.0,0.0,0.0,0.0,0.0,0.0,0.0,0.0,0.0,0.0,0.0,0.0,0.0,0.0,0.0,0.0,0.0,0.0,0.0,0.0,0.0,0.0,0.0,0.0,0.0,0.0,0.0,0.0,0.0,0.0,0.0,0.0,0.0,0.0,0.0,0.0,4.939,4.9965,5.0135,0.0,4.9965,0.0,0.0,0.0,0.0,0.0,0.0,0.0,0.0,0.0,0.0,0.0,0.0,0.0,0.0,0.0,0.0,0.0,0.0,0.0,0.0,0.0,0.0,0.0,0.0,0.0,0.0,0.0,0.0,0.0,0.0,0.0,0.0,0.0,0.0,0.0,0.0,0.0,0.0,0.0,0.0,0.0,0.0,0.0,0.0,0.0,0.0,0.0,0.0,0.0,0.0,0.0,0.0,0.0,0.0,0.0,0.0,0.0,0.0,0.0,0.0,0.0,0.0,0.0,0.0,0.0,0.0,0.0,0.0,0.0,0.0,0.0,0.0,0.0,0.0,0.0,0.0,0.0,0.0,0.0,0.0,0.0,0.0,0.0,0.0,0.0,0.0,0.0,0.0,0.0,0.0,0.0,0.0,0.0,0.0,0.0,0.0,0.0,0.0,0.0,0.0,0.0,0.0,0.0,0.0,0.0,0.0,0.0,0.0,0.0,0.0,4.9999,5.0744,5.0338,4.9898,0.0,0.0,0.0,0.0,0.0,0.0,0.0,0.0,0.0,0.0,0.0,0.0,0.0,0.0,0.0,0.0,0.0,0.0,0.0,0.0,0.0,0.0,0.0,0.0,0.0,0.0,0.0,0.0,0.0,0.0,0.0,0.0,0.0,0.0,0.0,0.0,0.0,0.0,0.0,0.0,0.0,0.0,0.0,0.0,0.0,0.0,0.0,0.0,0.0,0.0,0.0,0.0,0.0,0.0,0.0,0.0,0.0,0.0,0.0,0.0,0.0,0.0,0.0,0.0,0.0,0.0,0.0,0.0,0.0,0.0,0.0,0.0,0.0,0.0,0.0,0.0,0.0,0.0,0.0,0.0,0.0,0.0,0.0,0.0,0.0,0.0,0.0,0.0,0.0,0.0,0.0,0.0,0.0,0.0,0.0,0.0,0.0,0.0,0.0,0.0,0.0,0.0,0.0,0.0,0.0,0.0,0.0,0.0,0.0,0.0,5.0507,5.0744,5.142,5.0574,4.983,4.9323,0.0,0.0,0.0,0.0,0.0,0.0,0.0,0.0,0.0,0.0,0.0,0.0,0.0,0.0,0.0,0.0,0.0,0.0,0.0,0.0,0.0,0.0,0.0,0.0,0.0,0.0,0.0,0.0,0.0,0.0,0.0,0.0,0.0,0.0,0.0,0.0,0.0,0.0,0.0,0.0,0.0,0.0,0.0,0.0,0.0,0.0,0.0,0.0,0.0,0.0,0.0,0.0,0.0,0.0,0.0,0.0,0.0,0.0,0.0,0.0,0.0,0.0,0.0,0.0,0.0,0.0,0.0,0.0,0.0,0.0,0.0,0.0,0.0,0.0,0.0,0.0,0.0,0.0,0.0,0.0,0.0,0.0,0.0,0.0,0.0,0.0,0.0,0.0,0.0,0.0,0.0,0.0,0.0,0.0,0.0,0.0,0.0,0.0,0.0,0.0,0.0,0.0,0.0,0.0,0.0,0.0,0.0,0.0,5.2063,5.1522,5.1522,5.2198,5.0879,5.0067,0.0,0.0,0.0,0.0,0.0,0.0,0.0,0.0,0.0,0.0,0.0,0.0,0.0,0.0,0.0,0.0,0.0,0.0,0.0,0.0,0.0,0.0,0.0,0.0,0.0,0.0,0.0,0.0,0.0,0.0,0.0,0.0,0.0,0.0,0.0,0.0,0.0,0.0,0.0,0.0,0.0,0.0,0.0,0.0,0.0,0.0,0.0,0.0,0.0,0.0,0.0,0.0,0.0,0.0,0.0,0.0,0.0,0.0,0.0,0.0,0.0,0.0,0.0,0.0,0.0,0.0,0.0,0.0,0.0,0.0,0.0,0.0,0.0,0.0,0.0,0.0,0.0,0.0,0.0,0.0,0.0,0.0,0.0,0.0,0.0,0.0,0.0,0.0,0.0,0.0,0.0,0.0,0.0,0.0,0.0,0.0,0.0,0.0,0.0,0.0,0.0,0.0,0.0,0.0,0.0,0.0,0.0,0.0,0.0,5.1589,5.23,5.2807,5.301,5.1589,5.1014,0.0,0.0,0.0,0.0,0.0,0.0,0.0,0.0,0.0,0.0,0.0,0.0,0.0,0.0,0.0,0.0,0.0,0.0,0.0,0.0,0.0,0.0,0.0,0.0,0.0,0.0,0.0,0.0,0.0,0.0,0.0,0.0,0.0,0.0,0.0,0.0,0.0,0.0,0.0,0.0,0.0,0.0,0.0,0.0,0.0,0.0,0.0,0.0,0.0,0.0,0.0,0.0,0.0,0.0,0.0,0.0,0.0,0.0,0.0,0.0,0.0,0.0,0.0,0.0,0.0,0.0,0.0,0.0,0.0,0.0,0.0,0.0,0.0,0.0,0.0,0.0,0.0,0.0,0.0,0.0,0.0,0.0,0.0,0.0,0.0,0.0,0.0,0.0,0.0,0.0,0.0,0.0,0.0,0.0,0.0,0.0,0.0,0.0,0.0,0.0,0.0,0.0,0.0,0.0,0.0,0.0,0.0,0.0,0.0,5.1928,5.3213,5.3754,5.3484,5.2266,5.1589,0.0,0.0,0.0,0.0,0.0,0.0,0.0,0.0,0.0,0.0,0.0,0.0,0.0,0.0,0.0,0.0,0.0,0.0,0.0,0.0,0.0,0.0,0.0,0.0,0.0,0.0,0.0,0.0,0.0,0.0,0.0,0.0,0.0,0.0,0.0,0.0,0.0,0.0,0.0,0.0,0.0,0.0,0.0,0.0,0.0,0.0,0.0,0.0,0.0,0.0,0.0,0.0,0.0,0.0,0.0,0.0,0.0,0.0,0.0,0.0,0.0,0.0,0.0,0.0,0.0,0.0,0.0,0.0,0.0,0.0,0.0,0.0,0.0,0.0,0.0,0.0,0.0,0.0,0.0,0.0,0.0,0.0,0.0,0.0,0.0,0.0,0.0,0.0,0.0,0.0,0.0,0.0,0.0,0.0,0.0,0.0,0.0,0.0,0.0,0.0,0.0,0.0,0.0,0.0,0.0,0.0,0.0,0.0,5.1282,5.3382,5.416,5.4194,5.3518,5.2706,5.1623,0.0,0.0,0.0,0.0,0.0,0.0,0.0,0.0,0.0,0.0,0.0,0.0,0.0,0.0,0.0,0.0,0.0,0.0,0.0,0.0,0.0,0.0,0.0,0.0,0.0,0.0,0.0,0.0,0.0,0.0,0.0,0.0,0.0,0.0,0.0,0.0,0.0,0.0,0.0,0.0,0.0,0.0,0.0,0.0,0.0,0.0,0.0,0.0,0.0,0.0,0.0,0.0,0.0,0.0,0.0,0.0,0.0,0.0,0.0,0.0,0.0,0.0,0.0,0.0,0.0,0.0,0.0,0.0,0.0,0.0,0.0,0.0,0.0,0.0,0.0,0.0,0.0,0.0,0.0,0.0,0.0,0.0,0.0,0.0,0.0,0.0,0.0,0.0,0.0,0.0,0.0,0.0,0.0,0.0,0.0,0.0,0.0,0.0,0.0,0.0,0.0,0.0,0.0,0.0,0.0,0.0,0.0,0.0,0.0,5.423,5.3988,5.4193,5.4957,5.3273,5.257,0.0,0.0,0.0,0.0,0.0,0.0,0.0,0.0,0.0,0.0,0.0,0.0,0.0,0.0,0.0,0.0,0.0,0.0,0.0,0.0,0.0,0.0,0.0,0.0,0.0,0.0,0.0,0.0,0.0,0.0,0.0,0.0,0.0,0.0,0.0,0.0,0.0,0.0,0.0,0.0,0.0,0.0,0.0,0.0,0.0,0.0,0.0,0.0,0.0,0.0,0.0,0.0,0.0,0.0,0.0,0.0,0.0,0.0,0.0,0.0,0.0,0.0,0.0,0.0,0.0,0.0,0.0,0.0,0.0,0.0,0.0,0.0,0.0,0.0,0.0,0.0,0.0,0.0,0.0,0.0,0.0,0.0,0.0,0.0,0.0,0.0,0.0,0.0,0.0,0.0,0.0,0.0,0.0,0.0,0.0,0.0,0.0,0.0,0.0,0.0,0.0,0.0,0.0,0.0,0.0,0.0,0.0,0.0,0.0,5.5414,5.473,5.4787,5.5698,5.4023,5.3437,5.4086,0.0,0.0,0.0,0.0,0.0,0.0,0.0,0.0,0.0,0.0,0.0,0.0,0.0,0.0,0.0,0.0,0.0,0.0,0.0,0.0,0.0,0.0,0.0,0.0,0.0,0.0,0.0,0.0,0.0,0.0,0.0,0.0,0.0,0.0,0.0,0.0,0.0,0.0,0.0,0.0,0.0,0.0,0.0,0.0,0.0,0.0,0.0,0.0,0.0,0.0,0.0,0.0,0.0,0.0,0.0,0.0,0.0,0.0,0.0,0.0,0.0,0.0,0.0,0.0,0.0,0.0,0.0,0.0,0.0,0.0,0.0,0.0,0.0,0.0,0.0,0.0,0.0,0.0,0.0,0.0,0.0,0.0,0.0,0.0,0.0,0.0,0.0,0.0,0.0,0.0,0.0,0.0,0.0,0.0,0.0,0.0,0.0,0.0,0.0,0.0,0.0,0.0,0.0,0.0,0.0,0.0,0.0,0.0,5.6897,5.615,5.5688,5.578,5.4999,5.426,0.0,0.0,0.0,0.0,0.0,0.0,0.0,0.0,0.0,0.0,0.0,0.0,0.0,0.0,0.0,0.0,0.0,0.0,0.0,0.0,0.0,0.0,0.0,0.0,0.0,0.0,0.0,0.0,0.0,0.0,0.0,0.0,0.0,0.0,0.0,0.0,0.0,0.0,0.0,0.0,0.0,0.0,0.0,0.0,0.0,0.0,0.0,0.0,0.0,0.0,0.0,0.0,0.0,0.0,0.0,0.0,0.0,0.0,0.0,0.0,0.0,0.0,0.0,0.0,0.0,0.0,0.0,0.0,0.0,0.0,0.0,0.0,0.0,0.0,0.0,0.0,0.0,0.0,0.0,0.0,0.0,0.0,0.0,0.0,0.0,0.0,0.0,0.0,0.0,0.0,0.0,0.0,0.0,0.0,0.0,0.0,0.0,0.0,0.0,0.0,0.0,0.0,0.0,0.0,0.0,0.0,0.0,0.0,0.0,5.7601,5.6399,5.6004,5.6563,5.5297,5.4503,0.0,0.0,0.0,0.0,0.0,0.0,0.0,0.0,0.0,0.0,0.0,0.0,0.0,0.0,0.0,0.0,0.0,0.0,0.0,0.0,0.0,0.0,0.0,0.0,0.0,0.0,0.0,0.0,0.0,0.0,0.0,0.0,0.0,0.0,0.0,0.0,0.0,0.0,0.0,0.0,0.0,0.0,0.0,0.0,0.0,0.0,0.0,0.0,0.0,0.0,0.0,0.0,0.0,0.0,0.0,0.0,0.0,0.0,0.0,0.0,0.0,0.0,0.0,0.0,0.0,0.0,0.0,0.0,0.0,0.0,0.0,0.0,0.0,0.0,0.0,0.0,0.0,0.0,0.0,0.0,0.0,0.0,0.0,0.0,0.0,0.0,0.0,0.0,0.0,0.0,0.0,0.0,0.0,0.0,0.0,0.0,0.0,0.0,0.0,0.0,0.0,0.0,0.0,0.0,0.0,0.0,0.0,0.0,5.6546,5.8514,5.7711,5.7586,5.8333,5.5905,5.4606,0.0,0.0,0.0,0.0,0.0,0.0,0.0,0.0,0.0,0.0,0.0,0.0,0.0,0.0,0.0,0.0,0.0,0.0,0.0,0.0,0.0,0.0,0.0,0.0,0.0,0.0,0.0,0.0,0.0,0.0,0.0,0.0,0.0,0.0,0.0,0.0,0.0,0.0,0.0,0.0,0.0,0.0,0.0,0.0,0.0,0.0,0.0,0.0,0.0,0.0,0.0,0.0,0.0,0.0,0.0,0.0,0.0,0.0,0.0,0.0,0.0,0.0,0.0,0.0,0.0,0.0,0.0,0.0,0.0,0.0,0.0,0.0,0.0,0.0,0.0,0.0,0.0,0.0,0.0,0.0,0.0,0.0,0.0,0.0,0.0,0.0,0.0,0.0,0.0,0.0,0.0,0.0,0.0,0.0,0.0,0.0,0.0,0.0,0.0,0.0,0.0,0.0,0.0,0.0,0.0,0.0,0.0,0.0,5.7747,5.9417,5.9248,5.9595,6.0262,5.6759,5.4834,0.0,0.0,0.0,0.0,0.0,0.0,0.0,0.0,0.0,0.0,0.0,0.0,0.0,0.0,0.0,0.0,0.0,0.0,0.0,0.0,0.0,0.0,0.0,0.0,0.0,0.0,0.0,0.0,0.0,0.0,0.0,0.0,0.0,0.0,0.0,0.0,0.0,0.0,0.0,0.0,0.0,0.0,0.0,0.0,0.0,0.0,0.0,0.0,0.0,0.0,0.0,0.0,0.0,0.0,0.0,0.0,0.0,0.0,0.0,0.0,0.0,0.0,0.0,0.0,0.0,0.0,0.0,0.0,0.0,0.0,0.0,0.0,0.0,0.0,0.0,0.0,0.0,0.0,0.0,0.0,0.0,0.0,0.0,0.0,0.0,0.0,0.0,0.0,0.0,0.0,0.0,0.0,0.0,0.0,0.0,0.0,0.0,0.0,0.0,0.0,0.0,0.0,0.0,0.0,0.0,0.0,0.0,0.0,5.825,6.0995,5.9367,5.9071,6.0429,5.7861,5.6376,0.0,0.0,0.0,0.0,0.0,0.0,0.0,0.0,0.0,0.0,0.0,0.0,0.0,0.0,0.0,0.0,0.0,0.0,0.0,0.0,0.0,0.0,0.0,0.0,0.0,0.0,0.0,0.0,0.0,0.0,0.0,0.0,0.0,0.0,0.0,0.0,0.0,0.0,0.0,0.0,0.0,0.0,0.0,0.0,0.0,0.0,0.0,0.0,5.3518,0.0,0.0,0.0,0.0,0.0,0.0,0.0,0.0,0.0,0.0,0.0,0.0,0.0,0.0,0.0,0.0,0.0,0.0,0.0,0.0,0.0,0.0,0.0,0.0,0.0,0.0,0.0,0.0,0.0,0.0,0.0,0.0,0.0,0.0,0.0,0.0,0.0,0.0,0.0,0.0,0.0,0.0,0.0,0.0,0.0,0.0,0.0,0.0,0.0,0.0,0.0,0.0,0.0,0.0,0.0,0.0,0.0,0.0,0.0,5.9719,6.2022,6.097,6.0937,6.202,5.9871,5.7925,0.0,0.0,0.0,0.0,0.0,0.0,0.0,0.0,0.0,0.0,0.0,0.0,0.0,0.0,0.0,0.0,0.0,0.0,0.0,0.0,0.0,0.0,0.0,0.0,0.0,0.0,0.0,0.0,0.0,0.0,0.0,0.0,0.0,0.0,0.0,0.0,0.0,0.0,0.0,0.0,0.0,0.0,0.0,0.0,0.0,0.0,0.0,0.0,0.0,0.0,0.0,0.0,0.0,0.0,0.0,0.0,0.0,0.0,0.0,0.0,0.0,0.0,0.0,0.0,0.0,0.0,0.0,0.0,0.0,0.0,0.0,0.0,0.0,0.0,0.0,0.0,0.0,0.0,0.0,0.0,0.0,0.0,0.0,0.0,0.0,0.0,0.0,0.0,0.0,0.0,0.0,0.0,0.0,0.0,0.0,0.0,0.0,0.0,0.0,0.0,0.0,0.0,0.0,0.0,0.0,0.0,0.0,6.0236,6.1374,6.2915,6.3025,6.3356,6.4053,6.2,5.945,0.0,0.0,0.0,0.0,0.0,0.0,0.0,0.0,0.0,0.0,0.0,0.0,0.0,0.0,0.0,0.0,0.0,0.0,0.0,0.0,0.0,0.0,0.0,0.0,0.0,0.0,0.0,0.0,0.0,0.0,0.0,0.0,0.0,0.0,0.0,0.0,0.0,0.0,0.0,5.3518,5.3518,0.0,0.0,0.0,0.0,0.0,0.0,0.0,0.0,5.3585,0.0,0.0,0.0,0.0,0.0,0.0,0.0,0.0,0.0,0.0,0.0,0.0,0.0,0.0,0.0,0.0,0.0,0.0,0.0,0.0,0.0,0.0,0.0,0.0,0.0,0.0,0.0,0.0,0.0,0.0,0.0,0.0,0.0,0.0,0.0,0.0,0.0,0.0,0.0,0.0,0.0,0.0,0.0,0.0,0.0,0.0,0.0,0.0,0.0,0.0,0.0,0.0,0.0,0.0,0.0,0.0,6.119,6.1337,6.2218,6.3833,6.387,6.3943,6.4053,6.3035,6.1272,5.8807,0.0,0.0,0.0,0.0,0.0,0.0,0.0,0.0,0.0,0.0,0.0,0.0,0.0,0.0,0.0,0.0,0.0,0.0,0.0,0.0,0.0,0.0,0.0,0.0,0.0,0.0,0.0,0.0,0.0,0.0,0.0,0.0,0.0,0.0,0.0,0.0,0.0,0.0,0.0,5.3518,5.3518,0.0,0.0,0.0,0.0,0.0,0.0,0.0,0.0,5.3518,0.0,0.0,0.0,0.0,0.0,0.0,0.0,0.0,0.0,0.0,0.0,0.0,0.0,0.0,0.0,0.0,0.0,0.0,0.0,0.0,0.0,0.0,0.0,0.0,0.0,0.0,0.0,0.0,0.0,0.0,0.0,0.0,0.0,0.0,0.0,0.0,0.0,0.0,0.0,0.0,0.0,0.0,0.0,0.0,0.0,0.0,0.0,0.0,0.0,0.0,0.0,0.0,0.0,0.0,0.0,6.097,6.1814,6.3025,6.464,6.4714,6.4714,6.4714,6.3906,6.2172,0.0,0.0,0.0,0.0,0.0,0.0,0.0,0.0,0.0,0.0,0.0,0.0,0.0,0.0,0.0,0.0,0.0,0.0,0.0,0.0,0.0,0.0,0.0,0.0,0.0,0.0,0.0,0.0,0.0,0.0,0.0,0.0,0.0,0.0,0.0,0.0,0.0,0.0,0.0,0.0,5.3518,5.3653,5.4025,0.0,0.0,0.0,0.0,0.0,0.0,5.4871,5.4668,0.0,0.0,0.0,0.0,0.0,0.0,0.0,0.0,0.0,0.0,0.0,0.0,0.0,0.0,0.0,0.0,0.0,0.0,0.0,0.0,0.0,0.0,0.0,0.0,0.0,0.0,0.0,0.0,0.0,0.0,0.0,0.0,0.0,0.0,0.0,0.0,0.0,0.0,0.0,0.0,0.0,0.0,0.0,0.0,0.0,0.0,0.0,0.0,0.0,0.0,0.0,0.0,0.0,0.0,0.0,6.0713,6.2254,6.3796,6.5228,6.5485,6.5558,6.5521,6.4751,6.2954,0.0,0.0,0.0,0.0,0.0,0.0,0.0,0.0,0.0,0.0,0.0,0.0,0.0,0.0,0.0,0.0,0.0,0.0,0.0,0.0,0.0,0.0,0.0,0.0,0.0,0.0,0.0,0.0,0.0,0.0,0.0,0.0,0.0,0.0,0.0,0.0,0.0,0.0,0.0,0.0,0.0,5.3923,5.4499,5.4837,0.0,0.0,0.0,0.0,5.5953,5.5818,0.0,0.0,0.0,0.0,0.0,0.0,0.0,0.0,0.0,0.0,0.0,0.0,0.0,0.0,0.0,0.0,0.0,0.0,0.0,0.0,0.0,0.0,0.0,0.0,0.0,0.0,0.0,0.0,0.0,0.0,0.0,0.0,0.0,0.0,0.0,0.0,0.0,0.0,0.0,0.0,0.0,0.0,0.0,0.0,0.0,0.0,0.0,0.0,0.0,0.0,0.0,0.0,0.0,0.0,0.0,0.0,6.152,6.3099,6.4383,6.5264,6.5999,6.6366,6.6366,6.5595,6.4296,0.0,0.0,0.0,0.0,0.0,0.0,0.0,0.0,0.0,0.0,0.0,0.0,0.0,0.0,0.0,0.0,0.0,0.0,0.0,0.0,0.0,0.0,0.0,0.0,0.0,0.0,0.0,0.0,0.0,0.0,0.0,0.0,0.0,0.0,0.0,0.0,0.0,0.0,0.0,0.0,0.0,5.4499,5.46,5.5716,5.6562,0.0,0.0,0.0,5.6697,5.6122,0.0,0.0,0.0,0.0,0.0,0.0,0.0,0.0,0.0,0.0,0.0,0.0,0.0,0.0,0.0,0.0,0.0,0.0,0.0,0.0,0.0,0.0,0.0,0.0,0.0,0.0,0.0,0.0,0.0,0.0,0.0,0.0,0.0,0.0,0.0,0.0,0.0,0.0,0.0,0.0,0.0,0.0,0.0,0.0,0.0,0.0,0.0,0.0,0.0,0.0,0.0,0.0,0.0,0.0,0.0,6.2768,6.2401,6.4383,6.5852,6.6623,6.699,6.7173,6.7173,6.5962,6.4751,0.0,0.0,0.0,0.0,0.0,0.0,0.0,0.0,0.0,0.0,0.0,0.0,0.0,0.0,0.0,0.0,0.0,0.0,0.0,0.0,0.0,0.0,0.0,0.0,0.0,0.0,0.0,0.0,0.0,0.0,0.0,0.0,0.0,0.0,0.0,0.0,0.0,0.0,0.0,0.0,0.0,0.0,5.575,5.6765,0.0,0.0,0.0,5.8524,5.8118,0.0,0.0,0.0,0.0,0.0,0.0,0.0,0.0,0.0,0.0,0.0,0.0,0.0,0.0,0.0,0.0,0.0,0.0,0.0,0.0,0.0,0.0,0.0,0.0,0.0,0.0,0.0,0.0,0.0,0.0,0.0,0.0,0.0,0.0,0.0,0.0,0.0,0.0,0.0,0.0,0.0,0.0,0.0,0.0,0.0,0.0,0.0,0.0,0.0,0.0,0.0,0.0,0.0,0.0,0.0,0.0,0.0,6.3466,6.5448,6.688,6.7687,6.8091,6.8201,6.7981,6.6623,0.0,0.0,0.0,0.0,0.0,0.0,0.0,0.0,0.0,0.0,0.0,0.0,0.0,0.0,0.0,0.0,0.0,0.0,0.0,0.0,0.0,0.0,0.0,0.0,0.0,0.0,0.0,0.0,0.0,0.0,0.0,0.0,0.0,0.0,0.0,0.0,0.0,0.0,0.0,0.0,0.0,0.0,5.6055,5.6968,5.7848,5.8626,0.0,0.0,5.9911,5.937,5.9302,5.9235,0.0,0.0,0.0,0.0,0.0,0.0,0.0,0.0,0.0,0.0,0.0,0.0,0.0,0.0,0.0,0.0,0.0,0.0,0.0,0.0,0.0,0.0,0.0,0.0,0.0,0.0,0.0,0.0,0.0,0.0,0.0,0.0,0.0,0.0,0.0,0.0,0.0,0.0,0.0,0.0,0.0,0.0,0.0,0.0,0.0,0.0,0.0,0.0,0.0,0.0,0.0,0.0,0.0,0.0,0.0,6.5118,6.6035,6.6916,6.7687,6.9155,6.9559,6.8825,6.7981,6.7136,0.0,0.0,0.0,0.0,0.0,0.0,0.0,0.0,0.0,0.0,0.0,0.0,0.0,0.0,0.0,0.0,0.0,0.0,0.0,0.0,0.0,0.0,0.0,0.0,0.0,0.0,0.0,0.0,0.0,0.0,0.0,0.0,0.0,0.0,0.0,0.0,0.0,0.0,0.0,0.0,0.0,5.849,5.7915,5.9032,5.9979,0.0,0.0,6.008,6.0047,6.0013,6.0486,6.1873,0.0,0.0,0.0,0.0,0.0,0.0,0.0,0.0,0.0,0.0,0.0,0.0,0.0,0.0,0.0,0.0,0.0,0.0,0.0,0.0,0.0,0.0,0.0,0.0,0.0,0.0,0.0,0.0,0.0,0.0,0.0,0.0,0.0,0.0,0.0,0.0,0.0,0.0,0.0,0.0,0.0,0.0,0.0,0.0,0.0,0.0,0.0,0.0,0.0,0.0,0.0,0.0,0.0,6.5888,6.6072,6.7797,6.8862,6.9155,6.9779,7.0183,7.0403,6.8641,6.776,0.0,0.0,0.0,0.0,0.0,0.0,0.0,0.0,0.0,0.0,0.0,0.0,0.0,0.0,0.0,0.0,0.0,0.0,0.0,0.0,0.0,0.0,0.0,0.0,0.0,0.0,0.0,0.0,5.8831,5.8872,5.8048,0.0,0.0,0.0,0.0,0.0,0.0,0.0,0.0,0.0,0.0,5.8558,5.9167,6.0182,0.0,0.0,6.1501,6.1501,6.1535,6.1501,6.1569,6.1704,6.1603,0.0,0.0,0.0,0.0,0.0,0.0,0.0,0.0,0.0,0.0,0.0,0.0,0.0,0.0,0.0,0.0,0.0,0.0,0.0,0.0,0.0,0.0,0.0,0.0,0.0,0.0,0.0,0.0,0.0,0.0,0.0,0.0,0.0,0.0,0.0,0.0,0.0,0.0,0.0,0.0,0.0,0.0,0.0,0.0,0.0,0.0,0.0,0.0,0.0,0.0,0.0,0.0,6.7173,6.7577,6.9009,7.0,7.044,7.0697,7.0991,7.1248,6.9669,6.8825,0.0,0.0,0.0,0.0,0.0,0.0,0.0,0.0,0.0,0.0,0.0,0.0,0.0,0.0,0.0,0.0,0.0,0.0,0.0,0.0,0.0,0.0,0.0,0.0,0.0,0.0,0.0,0.0,5.9178,5.9046,5.8695,0.0,0.0,0.0,0.0,0.0,0.0,0.0,0.0,0.0,0.0,5.9756,6.104,6.1834,6.2605,6.3358,6.343,6.3396,6.3362,6.3475,6.3349,6.3035,0.0,0.0,0.0,0.0,0.0,0.0,0.0,0.0,0.0,0.0,0.0,0.0,0.0,0.0,0.0,0.0,0.0,0.0,0.0,0.0,0.0,0.0,0.0,0.0,0.0,0.0,0.0,0.0,0.0,0.0,0.0,0.0,0.0,0.0,0.0,0.0,0.0,0.0,0.0,0.0,0.0,0.0,0.0,0.0,0.0,0.0,0.0,0.0,0.0,0.0,0.0,0.0,0.0,0.0,6.9926,6.9376,6.9743,7.1211,7.2055,7.2055,7.1358,7.1248,7.0513,6.8972,0.0,0.0,0.0,0.0,0.0,0.0,0.0,0.0,0.0,0.0,0.0,0.0,0.0,0.0,0.0,0.0,0.0,0.0,0.0,0.0,0.0,0.0,0.0,0.0,0.0,0.0,5.9009,5.9111,5.9423,0.0,0.0,0.0,0.0,0.0,0.0,0.0,0.0,0.0,0.0,6.0926,6.2634,6.3612,6.4205,6.4812,6.5752,6.571,6.5561,6.5527,6.5764,6.6075,0.0,0.0,0.0,0.0,0.0,0.0,0.0,0.0,0.0,0.0,0.0,0.0,0.0,0.0,0.0,0.0,0.0,0.0,0.0,0.0,0.0,0.0,0.0,0.0,0.0,0.0,0.0,0.0,6.442,0.0,0.0,0.0,0.0,0.0,0.0,0.0,0.0,0.0,0.0,0.0,6.6109,6.6659,0.0,0.0,0.0,0.0,0.0,0.0,0.0,0.0,0.0,0.0,0.0,0.0,6.9559,7.011,7.0881,7.1321,7.1321,7.2092,7.2386,7.2092,7.1578,7.0807,6.9743,0.0,0.0,0.0,0.0,0.0,0.0,0.0,0.0,0.0,0.0,0.0,0.0,0.0,0.0,0.0,0.0,0.0,0.0,0.0,0.0,0.0,0.0,0.0,0.0,0.0,6.1438,0.0,0.0,0.0,0.0,0.0,0.0,0.0,0.0,0.0,0.0,0.0,6.132,6.3485,6.3028,6.3076,6.4996,6.5434,6.5568,0.0,0.0,0.0,0.0,0.0,0.0,0.0,0.0,0.0,0.0,0.0,0.0,0.0,0.0,6.4208,6.299,6.2584,6.2415,6.2415,0.0,0.0,0.0,0.0,0.0,0.0,0.0,0.0,0.0,0.0,0.0,0.0,0.0,0.0,0.0,0.0,6.4751,0.0,0.0,0.0,0.0,0.0,0.0,0.0,0.0,6.71,6.7614,6.8164,6.8715,6.9082,0.0,6.9339,6.8825,0.0,0.0,0.0,0.0,0.0,0.0,0.0,0.0,7.0881,7.0954,7.1688,7.1982,7.1762,7.2239,7.2532,7.2496,7.1725,7.1174,7.0954,7.0403,7.022,0.0,0.0,0.0,0.0,0.0,0.0,0.0,0.0,0.0,0.0,0.0,0.0,0.0,0.0,0.0,0.0,0.0,0.0,0.0,0.0,0.0,0.0,0.0,6.3336,0.0,0.0,0.0,0.0,0.0,0.0,0.0,0.0,0.0,6.23,6.2223,6.3098,6.5534,6.488,6.4932,6.7094,0.0,0.0,0.0,0.0,0.0,0.0,0.0,6.7593,6.71,6.7856,6.8245,6.7441,6.6181,6.5561,6.6305,0.0,0.0,6.4072,6.3937,6.3937,6.3937,6.3565,6.3362,6.3835,6.3734,6.3666,0.0,0.0,0.0,0.0,0.0,0.0,0.0,0.0,6.5521,6.5558,0.0,6.5521,0.0,0.0,0.0,0.0,0.0,0.0,0.0,0.0,6.9045,6.9889,7.1321,7.1394,7.1835,7.2532,7.2532,7.2496,7.2312,6.9376,0.0,0.0,0.0,0.0,0.0,0.0,7.0991,7.2386,7.1762,7.1725,7.2459,7.2496,7.2532,7.2496,7.1762,7.1725,7.2386,7.1027,7.055,7.1321,6.9889,0.0,0.0,0.0,0.0,0.0,0.0,0.0,0.0,0.0,0.0,0.0,0.0,0.0,0.0,0.0,0.0,0.0,0.0,0.0,0.0,6.2372,0.0,0.0,0.0,0.0,0.0,0.0,0.0,0.0,0.0,0.0,6.23,6.4353,6.5986,6.5415,0.0,0.0,0.0,0.0,6.8912,7.0632,7.0093,6.9687,7.0479,7.0024,6.9558,6.9385,0.0,0.0,6.8343,6.6257,6.4952,6.5595,6.5256,6.5121,6.6474,6.6542,6.6542,6.6542,6.6406,6.6677,6.6643,6.5831,6.5527,7.1358,0.0,0.0,0.0,0.0,6.8715,6.8715,6.8715,6.8715,6.8715,6.8678,6.8128,0.0,0.0,0.0,0.0,0.0,0.0,7.0183,7.0697,7.1798,7.2569,7.3046,7.3597,7.4001,7.4221,7.4221,7.3927,7.334,7.2422,7.1798,7.1505,0.0,0.0,0.0,0.0,7.2606,7.2496,7.2275,7.2275,7.2496,7.2532,7.2532,7.2496,7.2275,7.2275,7.2496,7.2055,7.2165,7.2936,7.1468,0.0,0.0,0.0,0.0,0.0,0.0,0.0,0.0,0.0,0.0,0.0,0.0,0.0,0.0,0.0,0.0,0.0,0.0,0.0,6.422,6.3776,6.3823,0.0,0.0,0.0,0.0,0.0,0.0,0.0,0.0,0.0,6.7604,6.6718,6.7003,0.0,0.0,6.8785,7.0343,7.0374,7.0022,6.9133,0.0,0.0,0.0,6.9199,6.9491,6.959,6.9122,6.8496,6.8266,6.7078,6.6237,6.6474,6.6305,6.6339,6.6609,6.5933,6.5324,6.5222,6.5222,6.5222,6.5222,6.5425,6.5696,7.378,7.1982,7.1651,7.1358,7.1064,7.1064,7.1064,7.1027,7.1064,7.1027,7.1027,7.055,7.033,7.0293,6.9816,0.0,0.0,0.0,7.2422,7.2753,7.3744,7.4331,7.4661,7.5139,7.5542,7.5873,7.5873,7.5616,7.5139,7.4808,7.4404,7.3927,0.0,0.0,7.2973,7.3156,7.2973,7.2532,7.2532,7.2532,7.2532,7.2826,7.2973,7.2973,7.2973,7.2973,7.2973,7.2679,7.2863,7.3634,7.2789,7.2129,0.0,0.0,0.0,0.0,0.0,0.0,0.0,0.0,0.0,0.0,0.0,6.4574,0.0,0.0,0.0,0.0,6.6026,6.7283,6.6769,6.6427,0.0,0.0,0.0,0.0,0.0,0.0,0.0,6.8818,6.9993,7.0749,7.0834,6.9597,6.93,7.0894,7.0545,7.044,7.1375,0.0,7.08,6.9987,7.0341,7.0624,7.038,7.077,7.1087,7.1194,7.0376,6.9898,7.0194,6.9478,6.8922,6.8842,6.8956,6.8922,6.8877,6.8162,6.6975,6.5725,6.5493,6.5459,6.5493,6.5831,6.6136,7.5102,7.5028,7.4294,7.3487,7.2716,7.2679,7.2716,7.2679,7.2679,7.2679,7.2679,7.2679,7.2716,7.2679,7.2716,0.0,0.0,7.3854,7.4294,7.4992,7.5065,7.5506,7.6166,7.6203,7.657,7.7304,7.7341,7.7304,7.7157,7.6423,7.613,7.613,7.3927,7.3083,7.3634,7.2973,7.2606,7.2606,7.2606,7.2642,7.2716,7.3413,7.378,7.378,7.378,7.378,7.378,7.301,7.301,7.3817,7.3744,7.3413,7.2826,0.0,0.0,0.0,0.0,0.0,0.0,0.0,0.0,0.0,0.0,0.0,0.0,0.0,0.0,0.0,6.7741,0.0,6.9192,6.9907,0.0,0.0,0.0,6.9823,7.1323,7.1504,7.1434,7.1444,0.0,0.0,0.0,0.0,7.2459,7.1798,7.2165,7.2532,7.2526,7.1914,7.162,7.2327,7.2408,7.2717,7.3166,7.3297,7.32,7.3029,7.2584,7.2048,7.2686,7.2228,7.1826,7.1493,7.1752,7.1678,7.1788,7.1458,7.0909,6.7622,6.71,6.715,6.7335,6.7167,6.7117,7.6754,7.6717,7.6533,7.5652,7.4368,7.4331,7.4331,7.4331,7.4331,7.4331,7.4331,7.4331,7.4331,7.4331,7.4331,7.4441,7.4625,7.5249,7.5616,7.5836,7.646,7.6864,7.7011,7.7047,7.7121,7.7304,7.7341,7.7011,7.6387,7.6203,7.6423,7.6937,7.5836,7.4735,7.3744,7.3487,7.3413,7.3413,7.3413,7.3707,7.4331,7.4515,7.4625,7.4625,7.4625,7.4625,7.4588,7.3854,7.4074,7.5395,7.4368,7.4147,7.5175,7.5249,0.0,0.0,0.0,0.0,0.0,0.0,0.0,0.0,0.0,6.8844,6.7799,0.0,7.0689,0.0,7.0547,7.1651,7.1651,7.2194,0.0,0.0,7.3198,7.345,7.3934,7.4055,7.4226,7.4832,7.4714,7.4785,7.5153,7.4689,7.4515,7.4845,7.3523,7.2665,7.3107,7.313,7.3106,7.3243,7.3241,7.332,7.3587,7.3494,7.3276,7.2407,7.1598,7.0985,7.1217,7.0465,6.983,6.983,6.983,6.983,7.0065,7.0275,7.0464,6.9557,6.9525,6.9877,7.0347,6.9475,6.8707,7.7341,7.7341,7.7341,7.679,7.5983,7.5983,7.5983,7.5983,7.5983,7.5983,7.5983,7.5983,7.5983,7.5983,7.5983,7.5983,7.6019,7.6423,7.6644,7.668,7.7121,7.7524,7.7892,7.7892,7.8075,7.8405,7.8405,7.8185,7.7745,7.7378,7.7451,7.7855,7.7047,7.6203,7.5322,7.4955,7.4771,7.4771,7.4404,7.4441,7.4918,7.5249,7.5799,7.6497,7.5836,7.5799,7.6497,7.5065,7.5139,7.7047,7.5983,7.5873,7.7121,7.6827,7.646,0.0,0.0,0.0,0.0,0.0,0.0,0.0,0.0,0.0,0.0,0.0,7.3744,0.0,0.0,0.0,7.356,7.3873,7.4139,7.4235,7.453,7.4879,7.5372,7.5432,7.5763,7.6533,7.624,7.613,7.657,7.6276,7.613,7.657,7.5506,7.4628,7.4587,7.4714,7.4592,7.4223,7.4388,7.4934,7.5653,7.5734,7.5611,7.543,7.4977,7.4543,7.4022,7.3911,7.3716,7.3282,7.3518,7.387,7.387,7.4187,7.4505,7.4435,7.4229,7.3413,7.1863,7.0735,7.0229,7.7378,7.7488,7.7488,7.7561,7.7635,7.7635,7.7524,7.7341,7.7341,7.7341,7.7341,7.7341,7.7341,7.7341,7.7451,7.7488,7.7488,7.7598,7.7635,7.7635,7.7635,7.8038,7.8736,7.8736,7.9103,7.9764,7.98,7.98,7.9764,7.9066,7.8809,7.8883,7.8148,7.7855,7.7892,7.7157,7.6644,7.6423,7.5836,7.5579,7.5689,7.6276,7.7304,7.8736,7.7414,7.7268,7.8626,7.657,7.6423,7.8552,7.7965,7.7855,7.8662,7.8038,7.7341,0.0,7.5836,0.0,0.0,0.0,0.0,0.0,0.0,0.0,0.0,7.4515,7.6166,7.624,7.5616,7.5212,7.5212,7.5212,7.5212,7.5212,7.5212,7.5506,7.6166,7.635,7.668,7.7414,7.7561,7.7635,7.7671,7.7635,7.7635,7.7855,7.7818,7.7499,7.69,7.6607,7.624,7.5579,7.6203,7.7364,7.841,7.8739,7.8894,7.9479,7.9251,7.936,7.8207,7.8774,7.9257,7.8493,7.8562,7.9288,7.9698,7.9566,7.9676,7.9371,7.8639,7.6914,7.3718,7.2467,7.1995,7.7745,7.8332,7.8332,7.8736,7.9323,7.9323,7.8552,7.7341,7.7341,7.7341,7.7341,7.7341,7.7341,7.7378,7.8038,7.8369,7.8405,7.9029,7.9323,7.9323,7.9323,7.9396,7.9543,7.958,7.9653,7.9764,7.98,7.98,7.98,7.9617,7.991,8.0534,8.0388,8.0645,0.0,0.0,0.0,0.0,7.8589,7.9176,7.98,7.936,7.9543,8.0498,7.9617,0.0,7.9507,7.8479,7.8405,7.9433,7.8809,0.0,0.0,0.0,0.0,0.0,0.0,0.0,0.0,0.0,0.0,0.0,7.624,7.6203,7.5322,7.5763,7.6387,7.7011,7.6974,7.6864,7.6864,7.6864,7.6864,7.6864,7.6864,7.6937,7.7084,7.7708,7.8222,7.8332,7.8919,7.9286,7.9286,7.9323,7.958,8.0094,8.0314,8.0241,8.0057,7.8919,7.8332,7.8772,7.9396,8.0019,8.0291,8.0364,8.0151,7.953,7.9191,7.9227,7.9114,7.9191,7.9267,7.9073,7.915,7.9379,7.9379,7.9762,8.035,8.0227,7.9776,7.9136,7.8028,7.6724,7.5811,7.8772,0.0,7.9176,7.9396,0.0,7.98,7.9323,7.8552,7.8552,7.8552,7.8552,7.8552,7.8516,7.8552,7.8993,7.9213,7.9213,7.9617,7.98,7.98,7.98,8.0021,8.0388,8.0388,8.0608,8.0975,8.0975,8.0975,8.0975,8.0975,8.1195,8.1599,8.2003,8.2406,8.2774,8.281,8.1599,7.9213,7.958,8.0167,8.0938,8.0608,8.1158,8.2663,0.0,0.0,0.0,0.0,0.0,0.0,0.0,0.0,0.0,0.0,0.0,7.98,7.9396,7.9176,7.9176,7.8772,7.8369,7.7965,7.8295,7.8002,7.679,7.7084,7.7488,7.7928,7.8295,7.8552,7.8552,7.8516,7.8552,7.8552,7.8552,7.8552,7.8589,7.8919,7.9176,7.9213,7.9543,7.9947,8.0351,8.0388,8.0718,8.1489,8.1966,8.2186,8.2113,8.1158,8.0571,8.0901,8.1269,8.1688,8.198,8.1987,8.21,8.1817,8.1815,8.1557,8.1143,8.1482,8.1631,8.122,8.1482,8.1815,8.1815,8.2176,8.2465,8.2391,8.2265,8.2075,8.1851,7.9515,7.7405,7.9874,7.9984,8.0021,8.0094,8.0204,8.0204,8.0204,8.0204,0.0,0.0,0.0,7.98,7.98,7.98,7.991,7.9984,8.0021,8.0167,8.0204,8.0204,8.0204,8.0571,8.1195,8.1232,8.1636,8.2406,8.2406,8.248,8.2627,8.2627,8.2627,8.2663,8.3287,8.3618,8.3654,8.4278,8.3287,8.0791,8.0645,8.1048,8.1819,8.1709,8.2663,8.4756,8.3398,8.3251,8.4499,8.3324,8.292,8.3581,8.2957,8.2627,8.259,8.1856,8.1158,8.0498,8.0314,8.0204,8.0204,8.0204,8.0167,8.0021,7.9984,7.936,7.7855,7.8405,7.8809,7.8809,7.9396,7.9764,7.98,7.9764,7.98,7.98,7.98,7.9764,7.9764,7.9947,7.9984,8.0021,8.0167,8.0461,8.1122,8.1379,8.1636,8.2333,8.3067,8.3728,8.3728,8.3104,8.2627,8.2847,8.303,8.3177,8.3838,8.4065,8.4315,8.4767,8.4945,8.4703,8.41,8.4457,8.4633,8.3847,8.4457,8.484,8.4945,8.4913,8.5013,8.5013,8.484,8.4703,8.4421,8.1709,7.929,8.0204,8.0828,8.0828,8.1232,8.1856,8.1856,8.1856,8.1746,8.0388,7.98,7.98,7.98,7.98,7.9837,8.0498,8.0828,8.0865,8.1562,8.1856,0.0,8.1856,8.1929,8.2003,8.2039,8.2443,8.3214,8.3251,8.3581,8.4205,8.4242,8.4278,8.4242,8.4389,8.4425,8.4462,8.4535,8.4389,8.3948,8.3911,8.4315,8.5086,8.4462,8.4572,8.549,8.4756,8.4352,8.4572,8.4389,8.4315,8.4425,8.4315,8.4278,8.4242,8.3508,8.303,8.2884,8.226,8.1856,8.1856,8.1856,8.1562,8.0901,8.0828,8.0424,7.9543,7.9543,7.9617,7.9617,7.9764,7.98,7.98,7.9837,7.9874,7.9837,7.9837,7.98,7.9947,8.0534,8.0938,8.0975,8.1452,8.1856,8.2113,8.2627,8.303,8.3324,8.3948,8.4646,8.5123,8.4792,8.4609,8.5123,8.5306,8.5637,8.604,8.6481,8.6444,8.6628,8.6664,8.6595,8.6349,8.6489,8.6595,8.6419,8.6489,8.6664,8.6664,8.6664,8.6701,8.6595,8.6063,8.5479,8.5479,8.3967,8.2962,8.1305,8.1636,8.1636,8.1856,8.2186,8.2186,8.2443,8.2774,8.2076,8.1489,8.1085,8.1085,8.1085,8.1122,8.1489,8.1636,8.1672,8.248,8.2884,8.2884,8.3287,8.3508,8.3508,8.3508,8.3691,8.4058,8.4058,8.4242,8.4572,8.4609,8.4609,8.4646,8.5013,8.5453,8.5894,8.5894,8.593,8.5894,8.5049,8.4976,8.5747,8.5416,8.5637,8.6444,8.6077,8.593,8.5894,8.5894,8.571,8.527,8.5233,8.5049,8.4609,8.4242,8.4058,8.4058,8.3691,8.3508,8.3508,8.3508,8.3324,8.2994,8.2957,8.281,8.2443,8.1195,8.0461,8.0461,8.0828,8.1085,8.1085,8.1085,8.1085,8.1085,8.1489,8.1746,8.1819,8.248,8.2957,8.2994,8.3251,8.3508,8.3508,8.3838,8.4058,8.4132,8.4756,8.5527,8.6334,8.6151,8.6004,8.6371,8.6444,8.6591,8.6958,8.7399,8.7619,8.7655,8.8059,8.828,8.8316,8.8316,8.828,8.8316,8.8316,8.8316,8.828,8.8316,8.8316,8.8246,8.7959,8.7522,8.7448,8.7112,8.6191,8.259,8.2737,8.2737,8.2737,8.2737,8.2737,8.3104,8.3654,8.3654,8.3324,8.2774,8.2737,8.2737,8.2737,8.2737,8.2737,8.281,8.3398,8.3691,8.3765,8.4315,8.4609,8.4609,8.4609,8.4682,8.4866,8.4866,8.4939,8.5123,8.5159,8.5159,8.5196,8.5783,8.6371,8.6995,8.7031,8.7031,8.6958,8.5783,8.5453,8.604,8.6077,8.6371,8.6958,8.7178,8.7288,8.7288,8.7472,8.7252,8.6628,8.6444,8.604,8.5453,8.5233,8.5123,8.5123,8.5159,8.5159,8.5159,8.5159,8.5086,8.4903,8.4866,8.4792,8.4462,8.292,8.1819,8.1893,8.2406,8.2737,8.2737,8.2737,8.2737,8.2774,8.3287,8.3581,8.3728,8.4242,8.4609,8.4609,8.4609,8.4572,8.4609,8.4756,8.4939,8.5233,8.5673,8.6371,8.7068,8.7288,8.7325,8.7472,8.7435,8.7288,8.7325,8.7949,8.8426,8.8463,8.894,8.9197,8.9271,8.9344,8.9381,8.9271,8.9344,8.9271,8.9344,8.9344,8.9307,8.9234,8.9126,8.9236,8.9091,8.9091,8.8509,8.3691,8.4315,8.4315,8.4389,8.4315,8.4315,8.4389,8.4462,8.4499,8.4462,8.4389,8.4389,8.4352,8.4389,8.4315,8.4278,8.4315,8.4462,8.4499,8.4499,8.4572,8.4609,8.4682,8.4646,8.5013,8.56,8.5673,8.604,8.6628,8.6701,8.6738,8.6775,8.6848,8.6921,8.7031,8.7031,8.7031,8.7031,8.6885,8.6848,8.6885,8.6921,8.6921,8.7031,8.7729,8.8096,8.8096,8.883,8.916,8.9014,8.8316,8.7912,8.7766,8.7178,8.6775,8.6811,8.6775,8.6811,8.6775,8.6775,8.6444,8.5783,8.5673,8.5416,8.4756,8.4425,8.4278,8.4242,8.4315,8.4242,8.4352,8.4315,8.4205,8.4168,8.4389,8.4499,8.4535,8.4535,8.4609,8.4609,8.4792,8.4609,8.4829,8.5306,8.5967,8.6591,8.6775,8.7178,8.7912,8.8096,8.8316,8.8757,8.861,8.8169,8.8206,8.8757,8.9234,8.9307,8.9381,8.9601,8.9674,8.9638,8.9454,8.9858,8.9601,8.9674,8.9601,8.9417,8.9528,8.9748,8.9711,8.9528,8.9454,8.9564,8.9166,8.4315,8.4609,8.4609,8.4609,8.4609,8.4609,8.4866,8.5306,8.5306,8.5563,8.6004,8.6004,8.549,8.4609,8.4609,8.4609,8.4646,8.5086,8.5306,8.5343,8.5783,8.6004,8.604,8.604,8.6224,8.6481,8.6518,8.6701,8.6958,8.7031,8.7031,8.7031,8.7031,8.7252,8.7692,8.7692,8.7949,8.8426,8.8426,8.8426,8.839,8.7949,8.7949,8.8426,8.8757,8.894,8.894,8.9271,8.9417,8.9417,8.9087,8.8904,8.894,8.861,8.8426,8.8426,8.8426,8.8206,8.7729,8.7692,8.7362,8.6591,8.6518,8.6371,8.6077,8.604,8.6004,8.593,8.5196,8.4609,8.4646,8.4609,8.4609,8.4646,8.5013,8.5306,8.5306,8.5747,8.6004,8.604,8.6004,8.6004,8.6077,8.6297,8.6848,8.7509,8.7729,8.8023,8.8757,8.8904,8.905,8.9344,8.9491,8.9417,8.9124,8.9601,9.0041,9.0188,9.0519,9.0812,9.0739,9.0812,9.0849,9.0776,9.0702,9.0702,9.0922,9.0812,9.0812,9.0739,9.0812,9.0812,9.0812,9.0812,9.0812,8.5086,8.527,8.527,8.527,8.527,8.527,8.56,8.6077,8.6114,8.6444,8.6995,8.7031,8.6371,8.538,8.527,8.527,8.5343,8.5857,8.6114,8.6187,8.6738,8.7031,8.7031,8.7031,8.7031,8.7031,8.6995,8.7105,8.7288,8.7325,8.7435,8.7619,8.7692,8.7949,8.8463,8.8536,8.883,8.9344,8.9417,8.9528,8.9638,8.916,8.905,8.9417,8.9638,8.9748,8.9748,8.9931,9.0078,9.0078,8.9858,8.9748,8.9748,8.9564,8.9417,8.9417,8.9417,8.916,8.8573,8.8536,8.828,8.7766,8.7692,8.7692,8.7655,8.7692,8.7692,8.7619,8.6591,8.5894,8.5306,8.527,8.527,8.5306,8.582,8.6114,8.6187,8.6701,8.6958,8.7031,8.6848,8.7105,8.7325,8.7545,8.7949,8.8426,8.8536,8.883,8.9528,8.9748,8.9821,9.0041,9.0592,9.0519,8.9968,9.0408,9.0849,9.1033,9.14,9.162,9.1803,9.1767,9.1767,9.1326,9.1657,9.173,9.1473,9.162,9.184,9.1803,9.1803,9.1803,9.1583,9.1767,9.1767,8.6187,8.6848,8.6885,8.6811,8.6885,8.6811,8.6885,8.6885,8.6921,8.6958,8.6995,8.7031,8.6958,8.6811,8.6811,8.6885,8.6848,8.6848,8.6885,8.6885,8.6995,8.7031,8.7031,8.7031,8.7068,8.7215,8.7252,8.7509,8.8133,8.8169,8.8536,8.9234,8.916,8.9271,8.9381,8.9381,8.9381,8.9564,8.9601,8.9821,9.0445,9.0482,9.0115,8.9674,9.0152,9.0555,9.0629,9.1289,9.1657,9.1657,9.0922,9.0555,9.0519,8.9895,8.9528,8.9491,8.9491,8.9454,8.9381,8.9381,8.9307,8.9234,8.9124,8.9234,8.905,8.9087,8.905,8.9234,8.894,8.8316,8.7142,8.6921,8.6921,8.6921,8.6958,8.7031,8.7031,8.7252,8.7068,8.7178,8.7362,8.7619,8.8133,8.883,8.9124,8.9307,8.9381,8.9674,9.0335,9.0555,9.0812,9.1289,9.1546,9.1473,9.0812,9.1033,9.1546,9.162,9.1583,9.1877,9.1803,9.1803,9.184,9.1913,9.2134,9.2134,9.1913,9.1877,9.2024,9.2097,9.217,9.217,9.2427,9.1987,9.206,8.6738,8.7031,8.7031,8.7031,8.7031,8.7031,8.7031,8.7031,8.7031,8.7031,8.7031,8.7031,8.7031,8.7031,8.7545,8.7509,8.7068,8.7031,8.7031,8.7031,8.7031,8.7288,8.7766,8.7766,8.8059,8.85,8.8536,8.8683,8.894,8.8977,8.9124,8.9344,8.9417,8.9674,9.0078,9.0188,9.0408,9.0886,9.0959,9.1069,9.1289,9.1363,9.1216,9.0996,9.1216,9.1363,9.1363,9.1657,9.1803,9.1803,9.151,9.1363,9.1326,9.1106,9.0959,9.0922,9.0959,9.0702,9.0262,9.0188,8.9931,8.9491,8.9417,8.9454,8.9417,8.9417,8.9417,8.9417,8.9417,8.905,8.8793,8.8573,8.8536,8.8536,8.8536,8.85,8.8647,8.8977,8.9307,8.9307,8.9307,8.9271,8.905,8.9271,8.9601,9.0078,9.0188,9.0519,9.1143,9.1363,9.1473,9.1693,9.1767,9.1693,9.1473,9.1546,9.1767,9.1767,9.184,9.2244,9.2354,9.2574,9.2684,9.3088,9.3125,9.3088,9.3051,9.3088,9.3088,9.3125,9.3161,9.3198,9.3418,9.3161,9.3235,8.7031,8.7031,8.7031,8.7031,8.7031,8.7031,8.7178,8.7362,8.7399,8.7545,8.7729,8.7802,8.7802,8.7876,8.8353,8.8316,8.7839,8.7802,8.7766,8.7802,8.7766,8.8059,8.8536,8.8573,8.8867,8.9344,8.9417,8.9528,8.9784,8.9784,8.9931,9.0188,9.0188,9.0445,9.0922,9.0996,9.1289,9.173,9.1803,9.1767,9.1803,9.1803,9.1803,9.1803,9.1803,9.1803,9.1803,9.1803,9.1803,9.1803,9.1803,9.1803,9.1803,9.1803,9.1803,9.1803,9.1767,9.1583,9.1106,9.0996,9.0776,9.0262,9.0188,9.0188,9.0188,9.0188,9.0188,9.0188,9.0188,9.0188,9.0188,9.0188,8.9968,8.9564,8.9417,8.9417,8.9417,8.9858,9.0078,9.0152,9.0592,9.0629,9.0372,9.0482,9.0886,9.1363,9.1216,9.1289,9.1657,9.1803,9.1803,9.1803,9.1803,9.1987,9.2097,9.2317,9.2427,9.2391,9.2391,9.2721,9.3272,9.3455,9.3786,9.4189,9.4336,9.4336,9.4299,9.4336,9.4336,9.4373,9.4373,9.4336,9.4446,9.4446,9.4556,8.7068,8.7105,8.7068,8.7215,8.7252,8.7252,8.7545,8.8133,8.8206,8.8573,8.905,8.9271,8.9124,8.9307,8.9344,8.9381,8.9344,8.9381,8.9307,8.9197,8.9197,8.9271,8.9417,8.9417,8.9528,8.9674,8.9528,8.9895,9.0592,9.0629,9.0959,9.1583,9.1583,9.1546,9.1767,9.1693,9.173,9.1803,9.1803,9.1803,9.1803,9.1803,9.1803,9.1803,9.1803,9.184,9.184,9.184,9.1803,9.1803,9.1803,9.1803,9.1803,9.1803,9.1803,9.1803,9.1803,9.1803,9.1767,9.173,9.1657,9.151,9.1657,9.1546,9.1473,9.1546,9.1546,9.151,9.1546,9.1657,9.1583,9.1583,9.1069,8.9784,8.9711,8.9711,8.9638,8.9528,8.9528,8.9968,9.1033,9.1803,9.195,9.206,9.2427,9.2391,9.217,9.1767,9.184,9.1913,9.1877,9.1877,9.206,9.2354,9.2721,9.3088,9.3161,9.3161,9.3161,9.3382,9.4226,9.4666,9.507,9.5474,9.5474,9.5437,9.507,9.507,9.4923,9.496,9.5144,9.5474,9.5584,9.5658,9.5804,8.7839,8.7912,8.8426,8.8683,8.8647,8.8683,8.883,8.9014,8.905,8.9197,8.9381,8.9417,8.9417,8.9564,8.9968,9.0225,9.0298,9.0739,9.0482,8.9601,8.9454,8.9784,9.0152,9.0262,9.0519,9.0959,9.1069,9.1143,9.1363,9.14,9.1583,9.1767,9.1803,9.1803,9.1803,9.1803,9.1803,9.1803,9.1803,9.1803,9.1803,9.1803,9.1803,9.1803,9.1803,9.206,9.2611,9.2134,9.1803,9.184,9.1803,9.1803,9.1803,9.1803,9.1803,9.1803,9.1803,9.1803,9.1803,9.184,9.1877,9.1803,9.1803,9.1803,9.1803,9.1803,9.1803,9.1803,9.1803,9.1803,9.1803,9.1803,9.151,9.1106,9.1033,9.0959,9.0959,9.1473,9.1913,9.1987,9.2427,9.2427,9.2024,9.2207,9.2354,9.2391,9.2427,9.2427,9.2024,9.2317,9.2684,9.2684,9.2794,9.2978,9.3565,9.4006,9.4153,9.4153,9.4153,9.4299,9.5107,9.5658,9.6135,9.6355,9.6428,9.6282,9.5951,9.5768,9.5621,9.5804,9.6135,9.6428,9.6722,9.6832,9.6832,8.8647,8.872,8.9197,8.9417,8.9417,8.9417,8.9601,8.9821,8.9858,9.0005,9.0262,9.0298,9.0298,9.0408,9.0812,9.1033,9.1106,9.1583,9.1253,9.0408,9.0298,9.0592,9.0996,9.1069,9.1253,9.1693,9.1803,9.1803,9.1803,9.1803,9.1803,9.1803,9.1803,9.1803,9.1803,9.1803,9.1803,9.1803,9.1803,9.1803,9.1877,9.2134,9.2281,9.2317,9.2574,9.3015,9.3455,9.3015,9.2721,9.2721,9.2721,9.2721,9.2721,9.2758,9.2721,9.2721,9.2721,9.2758,9.2721,9.2831,9.2721,9.2684,9.2464,9.2281,9.2244,9.206,9.1803,9.1803,9.1803,9.1803,9.1803,9.1803,9.1803,9.1767,9.173,9.1803,9.1877,9.2281,9.2501,9.2501,9.2831,9.2758,9.2464,9.2281,9.2281,9.2354,9.2464,9.2758,9.2391,9.2758,9.3088,9.3418,9.3565,9.3932,9.4556,9.4887,9.5107,9.518,9.5217,9.5474,9.6025,9.6245,9.6575,9.6722,9.6795,9.6612,9.6318,9.6392,9.6392,9.6722,9.6832,9.6979,9.7126,9.7456,9.753,8.9491,8.9491,8.9564,8.9711,8.9784,8.9748,9.0152,9.0739,9.0702,9.1033,9.1546,9.1693,9.173,9.173,9.1767,9.1803,9.1767,9.1767,9.173,9.162,9.1583,9.162,9.1657,9.1657,9.1693,9.1767,9.1803,9.1803,9.1803,9.1803,9.1803,9.1803,9.1803,9.1803,9.1803,9.1803,9.184,9.1987,9.195,9.1987,9.2097,9.2758,9.3161,9.3198,9.3749,9.4189,9.4299,9.4373,9.4336,9.4263,9.4079,9.4042,9.4189,9.4263,9.4116,9.4042,9.4226,9.4153,9.4226,9.4006,9.4042,9.3969,9.3492,9.3161,9.3088,9.2648,9.2244,9.2244,9.217,9.2097,9.2097,9.2134,9.2134,9.1987,9.195,9.1803,9.1803,9.184,9.2024,9.217,9.2611,9.3125,9.3125,9.3161,9.3161,9.3088,9.2758,9.2941,9.3051,9.3455,9.3675,9.3969,9.4336,9.4813,9.5401,9.5584,9.5804,9.5841,9.5951,9.6282,9.6759,9.6979,9.7052,9.7163,9.7052,9.6869,9.6722,9.6722,9.6722,9.6722,9.6906,9.7199,9.7493,9.775,9.797,9.0298,9.0372,9.0922,9.1546,9.1987,9.1473,9.1657,9.2281,9.173,9.1583,9.1913,9.2501,9.2391,9.1913,9.2501,9.2427,9.1987,9.184,9.1803,9.1803,9.1803,9.1803,9.1803,9.1803,9.1803,9.1803,9.1803,9.1803,9.1803,9.184,9.184,9.1803,9.1913,9.1877,9.1803,9.1877,9.217,9.2684,9.2758,9.3051,9.3529,9.3786,9.3969,9.4006,9.4226,9.4666,9.518,9.5768,9.5437,9.4373,9.4299,9.4299,9.4373,9.441,9.4446,9.4446,9.4373,9.4336,9.4336,9.4373,9.4336,9.4299,9.4153,9.4006,9.4006,9.3786,9.3639,9.3639,9.3639,9.3565,9.3602,9.3565,9.3565,9.3492,9.2611,9.195,9.1913,9.1803,9.2024,9.2648,9.2978,9.3382,9.3749,9.3896,9.3932,9.3932,9.4042,9.4153,9.4079,9.4373,9.4703,9.4923,9.529,9.5694,9.6061,9.6282,9.6428,9.6465,9.6575,9.6759,9.7346,9.786,9.786,9.786,9.7383,9.7126,9.6869,9.6722,9.6722,9.6722,9.6795,9.7016,9.7493,9.786,9.8117,9.1106,9.1143,9.162,9.2097,9.2501,9.1987,9.2097,9.2391,9.206,9.2024,9.2391,9.2831,9.3015,9.2905,9.3382,9.3125,9.2427,9.2354,9.2134,9.1803,9.1803,9.1803,9.1803,9.1803,9.1803,9.1803,9.1803,9.1803,9.1877,9.2134,9.2317,9.2464,9.2684,9.2831,9.2905,9.2868,9.3051,9.3529,9.3602,9.3859,9.4263,9.4666,9.4777,9.4887,9.507,9.5584,9.6025,9.6465,9.6208,9.5511,9.5327,9.529,9.529,9.529,9.529,9.529,9.5327,9.5327,9.529,9.529,9.5327,9.5254,9.507,9.485,9.474,9.4556,9.4299,9.4226,9.4299,9.4299,9.4299,9.4299,9.4299,9.4116,9.3418,9.2868,9.2831,9.2941,9.3088,9.3455,9.3639,9.3749,9.4263,9.4299,9.4299,9.4336,9.4483,9.4666,9.485,9.5327,9.5658,9.5804,9.5914,9.6208,9.6355,9.6502,9.6575,9.6685,9.6722,9.6979,9.7346,9.797,9.775,9.753,9.7456,9.7309,9.6942,9.6722,9.6722,9.6722,9.6722,9.6832,9.7273,9.7566,9.7897,9.1803,9.1803,9.1803,9.184,9.195,9.184,9.2024,9.2134,9.2097,9.2464,9.3125,9.3345,9.3749,9.4299,9.4263,9.4042,9.3382,9.3455,9.3125,9.2794,9.2611,9.2537,9.2574,9.2207,9.2097,9.2097,9.2024,9.2207,9.2464,9.2978,9.3198,9.3308,9.3859,9.4189,9.4006,9.4116,9.4299,9.441,9.441,9.4593,9.4887,9.5364,9.5621,9.5694,9.6135,9.6428,9.6575,9.6722,9.6612,9.6685,9.6722,9.6539,9.6612,9.6649,9.6612,9.6539,9.6465,9.6502,9.6612,9.6465,9.6575,9.6428,9.5914,9.5658,9.5547,9.5144,9.4813,9.485,9.4556,9.474,9.4777,9.4666,9.474,9.4813,9.4593,9.4556,9.452,9.441,9.4336,9.441,9.441,9.4446,9.452,9.452,9.4593,9.518,9.529,9.5401,9.5584,9.5804,9.6171,9.6428,9.6539,9.6612,9.6649,9.6685,9.6685,9.6722,9.6685,9.6795,9.6832,9.7089,9.6942,9.6832,9.7016,9.7016,9.6832,9.6722,9.6722,9.6722,9.6722,9.6722,9.6795,9.6979,9.7273,9.1803,9.1803,9.1803,9.2207,9.2648,9.2134,9.2501,9.3565,9.3051,9.3198,9.4006,9.4666,9.4703,9.441,9.5034,9.5144,9.496,9.4997,9.5144,9.5621,9.496,9.474,9.4373,9.3565,9.2905,9.2941,9.3492,9.3712,9.3786,9.3822,9.4042,9.4079,9.4299,9.4336,9.441,9.452,9.4666,9.5107,9.5254,9.5547,9.5951,9.6208,9.6392,9.6392,9.6612,9.6685,9.6722,9.6722,9.6722,9.6722,9.6722,9.6722,9.6722,9.6722,9.6722,9.6722,9.6722,9.6722,9.6722,9.6722,9.6722,9.6685,9.6502,9.6465,9.6465,9.6245,9.6135,9.6171,9.6171,9.6025,9.5988,9.6135,9.6025,9.5951,9.6025,9.6061,9.5951,9.507,9.4777,9.507,9.5254,9.5474,9.6025,9.5988,9.6025,9.6135,9.6171,9.6245,9.6282,9.6318,9.6502,9.6722,9.6722,9.6722,9.6722,9.6722,9.6722,9.6722,9.6722,9.6722,9.6722,9.6722,9.6722,9.6722,9.6722,9.6722,9.6722,9.6722,9.6722,9.6722,9.6722,9.6722,9.6722,9.6722,9.6722,9.1803,9.1803,9.1803,9.206,9.2391,9.1987,9.2317,9.3051,9.3161,9.3565,9.4373,9.5144,9.5658,9.5951,9.6061,9.6208,9.6465,9.6245,9.6465,9.6869,9.6428,9.6061,9.5988,9.5217,9.452,9.3932,9.4042,9.4299,9.4373,9.4703,9.485,9.4923,9.518,9.5511,9.5437,9.5364,9.5694,9.5988,9.6061,9.6282,9.6649,9.6722,9.6722,9.6722,9.6722,9.6722,9.6722,9.6722,9.6722,9.6722,9.6722,9.6722,9.6722,9.6722,9.6722,9.6722,9.6722,9.6722,9.6722,9.6722,9.6722,9.6722,9.6722,9.6722,9.6722,9.6722,9.6722,9.6722,9.6685,9.6685,9.6722,9.6685,9.6722,9.6722,9.6722,9.6722,9.6539,9.5914,9.5547,9.5988,9.6061,9.6245,9.6575,9.6685,9.6685,9.6428,9.6428,9.6502,9.6502,9.6539,9.6575,9.6722,9.6722,9.6722,9.6722,9.6722,9.6722,9.6722,9.6722,9.6722,9.6722,9.6722,9.6722,9.6722,9.6722,9.6722,9.6722,9.6722,9.6722,9.6722,9.6722,9.6722,9.6722,9.6722,9.6722,9.1803,9.1803,9.1803,9.1803,9.1803,9.195,9.217,9.2427,9.3088,9.4116,9.4666,9.5437,9.6465,9.7419,9.7126,9.7383,9.7933,9.8007,9.8227,9.8521,9.7897,9.7566,9.7383,9.6869,9.6135,9.4923,9.4887,9.485,9.4997,9.529,9.5658,9.5804,9.6282,9.6428,9.6575,9.6685,9.6539,9.6575,9.6575,9.6612,9.6685,9.6722,9.6722,9.6722,9.6722,9.6722,9.6722,9.6722,9.6722,9.6722,9.6722,9.6722,9.6722,9.6722,9.6722,9.6722,9.6722,9.6722,9.6722,9.6722,9.6722,9.6722,9.6722,9.6722,9.6722,9.6722,9.6722,9.6722,9.6722,9.6722,9.6722,9.6722,9.6722,9.6722,9.6722,9.6722,9.6722,9.6759,9.6795,9.6575,9.6502,9.6575,9.6649,9.6722,9.6722,9.6722,9.6722,9.6722,9.6722,9.6722,9.6722,9.6722,9.6722,9.6722,9.6722,9.6722,9.6722,9.6722,9.6722,9.6722,9.6722,9.6722,9.6722,9.6722,9.6722,9.6722,9.6722,9.6722,9.6722,9.6722,9.6722,9.6722,9.6722,9.6722,9.6722,9.1803,9.1803,9.1803,9.1803,9.1913,9.2574,9.3235,9.3932,9.463,9.5547,9.6208,9.6465,9.7016,9.7713,9.7823,9.8484,9.9475,9.9879,10.0393,10.0466,9.9842,9.9475,9.9145,9.83,9.753,9.7199,9.6612,9.6171,9.6171,9.6465,9.6355,9.6502,9.6612,9.6722,9.6722,9.6722,9.6722,9.6722,9.6722,9.6722,9.6722,9.6722,9.6722,9.6722,9.6722,9.6722,9.6722,9.6722,9.6722,9.6722,9.6722,9.6722,9.6722,9.6722,9.6722,9.6722,9.6722,9.6722,9.6722,9.6722,9.6722,9.6722,9.6722,9.6722,9.6722,9.6722,9.6722,9.6722,9.6722,9.6722,9.6722,9.6722,9.6722,9.6722,9.6795,9.6759,9.6832,9.7199,9.7346,9.6979,9.6832,9.6722,9.6722,9.6722,9.6722,9.6722,9.6722,9.6722,9.6722,9.6722,9.6722,9.6722,9.6722,9.6722,9.6722,9.6722,9.6722,9.6722,9.6722,9.6722,9.6722,9.6722,9.6722,9.6722,9.6722,9.6722,9.6722,9.6722,9.6722,9.6722,9.6722,9.6722,9.6722,9.6722,9.6722,9.1803,9.184,9.2281,9.2464,9.2611,9.3382,9.3932,9.4373,9.5144,9.5951,9.6649,9.7163,9.8007,9.8778,9.8668,9.9218,10.0246,10.1127,10.1457,10.1347,10.109,10.065,10.0393,9.9402,9.8631,9.8007,9.7456,9.7052,9.6722,9.6685,9.6722,9.6685,9.6722,9.6722,9.6722,9.6722,9.6722,9.6722,9.6722,9.6722,9.6722,9.6722,9.6722,9.6722,9.6722,9.6722,9.6722,9.6722,9.6722,9.6722,9.6722,9.6722,9.6722,9.6722,9.6722,9.6722,9.6722,9.6722,9.6722,9.6722,9.6722,9.6722,9.6722,9.6722,9.6722,9.6722,9.6722,9.6722,9.6722,9.6722,9.6722,9.6722,9.6722,9.6795,9.7016,9.7052,9.7089,9.786,9.775,9.7383,9.7419,9.7236,9.6722,9.6722,9.6722,9.6722,9.6722,9.6759,9.6759,9.6722,9.6722,9.6722,9.6722,9.6722,9.6722,9.6722,9.6722,9.6722,9.6722,9.6722,9.6722,9.6722,9.6722,9.6722,9.6722,9.6722,9.6722,9.6722,9.6722,9.6722,9.6722,9.6722,9.6722,9.6722,9.6722,9.206,9.2134,9.2978,9.3345,9.3492,9.4373,9.4813,9.496,9.5914,9.6685,9.7199,9.7897,9.8924,9.9879,9.9916,9.9989,10.0613,10.1274,10.1457,10.1494,10.142,10.109,10.0686,10.0209,9.9622,9.8778,9.8227,9.764,9.6832,9.6722,9.6722,9.6722,9.6722,9.6722,9.6722,9.6722,9.6722,9.6722,9.6722,9.6722,9.6722,9.6722,9.6722,9.6722,9.6722,9.6722,9.6722,9.6722,9.6722,9.6722,9.6722,9.6722,9.6722,9.6722,9.6722,9.6722,9.6722,9.6722,9.6722,9.6722,9.6722,9.6722,9.6722,9.6722,9.6722,9.6722,9.6722,9.6722,9.6722,9.6722,9.6722,9.6869,9.6869,9.6869,9.7309,9.7676,9.7309,9.7603,9.8117,9.8007,9.8043,9.7823,9.7346,9.6722,9.6722,9.6722,9.6722,9.7052,9.7052,9.6759,9.6722,9.6722,9.6722,9.6722,9.6722,9.6722,9.6722,9.6722,9.6722,9.6722,9.6722,9.6722,9.6722,9.6722,9.6722,9.6722,9.6722,9.6722,9.6722,9.6722,9.6722,9.6722,9.6722,9.6722,9.6722,9.2941,9.3015,9.3822,9.4153,9.4373,9.5694,9.6392,9.6575,9.7823,9.8704,9.8704,9.8924,9.9475,10.0283,10.0943,10.1164,10.1347,10.1384,10.1494,10.1494,10.1494,10.142,10.12,10.0576,10.0283,9.9622,9.9181,9.8117,9.7236,9.6906,9.6722,9.6722,9.6722,9.6722,9.6722,9.6722,9.6722,9.6722,9.6722,9.6722,9.6722,9.6722,9.6722,9.6722,9.6722,9.6722,9.6722,9.6722,9.6722,9.6722,9.6722,9.6722,9.6722,9.6722,9.6722,9.6722,9.6722,9.6722,9.6722,9.6722,9.6722,9.6722,9.6722,9.6722,9.6722,9.6722,9.6722,9.6722,9.6722,9.6722,9.6832,9.7273,9.7236,9.7273,9.7419,9.7456,9.7273,9.819,9.8631,9.8704,9.8778,9.8484,9.808,9.7309,9.6722,9.6722,9.6795,9.7199,9.7273,9.6942,9.6722,9.6722,9.6722,9.6722,9.6722,9.6722,9.6722,9.6722,9.6722,9.6722,9.6722,9.6722,9.6722,9.6722,9.6722,9.6722,9.6722,9.6722,9.6722,9.6722,9.6722,9.6722,9.6722,9.6722,9.6722,9.4226,9.3822,9.4666,9.4997,9.5107,9.6208,9.6979,9.7456,9.808,9.8961,9.9659,9.9805,10.0246,10.0943,10.1384,10.1457,10.1494,10.1494,10.1494,10.1494,10.1494,10.1494,10.142,10.1127,10.0833,10.0246,9.9916,9.9255,9.8227,9.7493,9.7199,9.6759,9.6722,9.6722,9.6722,9.6722,9.6722,9.6722,9.6722,9.6722,9.6722,9.6722,9.6722,9.6722,9.6722,9.6722,9.6722,9.6722,9.6722,9.6722,9.6722,9.6722,9.6722,9.6722,9.6722,9.6722,9.6722,9.6722,9.6722,9.6722,9.6722,9.6722,9.6722,9.6722,9.6722,9.6722,9.6722,9.6722,9.6722,9.6722,9.6722,9.7016,9.7273,9.7419,9.7713,9.797,9.8117,9.8888,9.9475,9.9475,9.9438,9.9181,9.8961,9.8594,9.7897,9.7456,9.7566,9.7823,9.7603,9.7052,9.6869,9.6722,9.6722,9.6722,9.6722,9.6722,9.6722,9.6722,9.6722,9.6722,9.6722,9.6722,9.6722,9.6722,9.6722,9.6722,9.6722,9.6722,9.6722,9.6722,9.6722,9.6722,9.6722,9.6722,9.6722,9.5437,9.496,9.5547,9.5804,9.5914,9.6869,9.764,9.819,9.8704,9.9512,10.0319,10.0613,10.0943,10.1347,10.1494,10.1494,10.1494,10.1494,10.1494,10.1494,10.1494,10.1494,10.1384,10.1237,10.0796,10.0283,9.9916,9.9475,9.8924,9.8264,9.753,9.6979,9.6795,9.6722,9.6722,9.6722,9.6722,9.6722,9.6722,9.6722,9.6722,9.6722,9.6722,9.6722,9.6722,9.6722,9.6722,9.6722,9.6722,9.6722,9.6722,9.6722,9.6722,9.6722,9.6722,9.6722,9.6722,9.6722,9.6722,9.6722,9.6722,9.6722,9.6722,9.6722,9.6722,9.6722,9.6722,9.6722,9.6722,9.6722,9.6759,9.6869,9.7346,9.775,9.8117,9.8557,9.8998,9.9402,9.9769,9.9916,9.9916,10.0062,9.9916,9.9842,9.9328,9.8484,9.8374,9.8484,9.808,9.7493,9.7346,9.7273,9.7126,9.7052,9.6759,9.6759,9.6759,9.6722,9.6722,9.6722,9.6722,9.6722,9.6722,9.6722,9.6722,9.6722,9.6722,9.6722,9.6722,9.6722,9.6722,9.6722,9.6722,9.6722,9.6869,9.6575,9.6539,9.6612,9.6612,9.6722,9.83,9.8924,9.9145,10.0466,10.1053,10.1237,10.1384,10.1347,10.1494,10.1494,10.1494,10.1494,10.1494,10.1494,10.1494,10.1494,10.1494,10.1347,10.098,10.0466,10.0209,9.9879,9.9475,9.8924,9.83,9.7933,9.775,9.7016,9.6795,9.6722,9.6722,9.6722,9.6722,9.6722,9.6722,9.6722,9.6722,9.6722,9.6722,9.6722,9.6722,9.6722,9.6722,9.6722,9.6722,9.6722,9.6722,9.6722,9.6722,9.6722,9.6722,9.6722,9.6722,9.6722,9.6722,9.6722,9.6722,9.6722,9.6722,9.6722,9.6722,9.6722,9.6759,9.6832,9.6869,9.7016,9.7273,9.7676,9.808,9.8411,9.8778,9.9108,9.9328,9.9732,10.0136,10.0393,10.0576,10.065,10.0576,10.0099,9.9255,9.8814,9.8924,9.8778,9.8337,9.819,9.8043,9.7823,9.7493,9.6979,9.6906,9.6942,9.6795,9.6722,9.6722,9.6722,9.6722,9.6722,9.6722,9.6722,9.6722,9.6722,9.6722,9.6722,9.6722,9.6722,9.6722,9.6722,9.6722,9.7016,9.7713,9.8117,9.764,9.7419,9.753,9.8631,9.9402,9.9879,10.0503,10.1053,10.1494,10.1494,10.1494,10.1494,10.1494,10.1494,10.1494,10.1494,10.1494,10.1494,10.1494,10.1494,10.131,10.1127,10.0796,10.0319,9.9916,9.9512,9.9035,9.83,9.8007,9.764,9.7089,9.6795,9.6722,9.6722,9.6722,9.6722,9.6722,9.6722,9.6722,9.6722,9.6722,9.6722,9.6722,9.6722,9.6722,9.6722,9.6722,9.6722,9.6722,9.6722,9.6722,9.6722,9.6722,9.6722,9.6722,9.6722,9.6722,9.6722,9.6722,9.6722,9.6722,9.6722,9.6722,9.6722,9.6722,9.6832,9.7126,9.7309,9.7493,9.7713,9.797,9.8374,9.8741,9.9108,9.9475,9.9769,10.0062,10.0686,10.0943,10.1127,10.12,10.1237,10.065,10.0062,9.9659,9.9328,9.9218,9.9108,9.8924,9.8778,9.8521,9.8117,9.7603,9.7346,9.7163,9.6979,9.6832,9.6832,9.6869,9.6722,9.6722,9.6722,9.6722,9.6722,9.6722,9.6722,9.6722,9.6722,9.6722,9.6722,9.6722,9.6722,9.7199,9.786,9.8337,9.8043,9.8043,9.8337,9.9108,9.9769,10.0283,10.0576,10.0907,10.1494,10.1494,10.1494,10.1494,10.1494,10.1494,10.1494,10.1494,10.1494,10.1494,10.1494,10.1494,10.142,10.1164,10.0686,10.0319,9.9952,9.9512,9.9071,9.8264,9.797,9.7676,9.7163,9.6795,9.6722,9.6722,9.6722,9.6722,9.6722,9.6722,9.6722,9.6722,9.6722,9.6722,9.6722,9.6722,9.6722,9.6722,9.6722,9.6722,9.6722,9.6722,9.6722,9.6722,9.6722,9.6722,9.6722,9.6722,9.6722,9.6722,9.6722,9.6722,9.6722,9.6722,9.6722,9.6722,9.6722,9.6759,9.7383,9.7933,9.797,9.8154,9.8704,9.9181,9.9218,9.9548,10.0246,10.065,10.0907,10.1274,10.1384,10.1384,10.1384,10.1384,10.0943,10.054,10.054,10.0136,9.9842,9.9732,9.9585,9.9402,9.9181,9.8741,9.83,9.8411,9.8374,9.7603,9.7419,9.7163,9.7089,9.6979,9.6795,9.6722,9.6722,9.6722,9.6722,9.6759,9.6722,9.6722,9.6759,9.6795,9.6869,9.6979,9.7456,9.6869,9.6832,9.764,9.8374,9.9218,9.9916,10.0283,10.0503,10.109,10.142,10.1494,10.1494,10.1494,10.1494,10.1494,10.1494,10.1494,10.1494,10.1494,10.1494,10.1494,10.1494,10.1274,10.0943,10.065,10.0172,9.9805,9.9475,9.9071,9.8264,9.797,9.7676,9.7126,9.6722,9.6722,9.6722,9.6722,9.6722,9.6722,9.6722,9.6722,9.6722,9.6722,9.6722,9.6722,9.6722,9.6722,9.6722,9.6722,9.6722,9.6722,9.6722,9.6722,9.6722,9.6722,9.6722,9.6722,9.6722,9.6722,9.6722,9.6722,9.6722,9.6722,9.6722,9.6722,9.6722,9.6832,9.6979,9.7603,9.8007,9.8227,9.8631,9.9438,9.9769,9.9769,9.9952,10.0576,10.12,10.1347,10.142,10.1457,10.1494,10.1494,10.1384,10.1053,10.0907,10.1164,10.098,10.054,10.0393,10.0283,10.0099,9.9879,9.9512,9.9255,9.9659,9.9548,9.8668,9.8043,9.7787,9.764,9.764,9.7346,9.6942,9.7126,9.7493,9.7163,9.6832,9.7163,9.7456,9.6979,9.6942,9.7016,9.7309,9.7897,9.8117,9.9071,9.8814,9.9475,10.054,10.0393,10.0576,10.109,10.1347,10.1494,10.1494,10.1494,10.1494,10.1494,10.1494,10.1494,10.1494,10.1494,10.1494,10.1494,10.1494,10.1494,10.1347,10.1164,10.0796,10.0356,9.9916,9.9548,9.9108,9.8447,9.8007,9.7676,9.7126,9.6759,9.6722,9.6722,9.6722,9.6722,9.6722,9.6722,9.6722,9.6722,9.6722,9.6722,9.6722,9.6722,9.6722,9.6722,9.6722,9.6722,9.6722,9.6722,9.6722,9.6722,9.6722,9.6722,9.6722,9.6722,9.6722,9.6722,9.6722,9.6722,9.6795,9.6795,9.6722,9.6722,9.6942,9.753,9.8227,9.8778,9.9475,9.9659,10.0136,10.0136,10.0172,10.0172,10.0613,10.1164,10.1457,10.1457,10.1494,10.1494,10.1494,10.1494,10.12,10.1127,10.1347,10.1384,10.1053,10.109,10.1053,10.0833,10.0613,10.0246,10.0136,10.0283,10.0026,9.9181,9.8668,9.8411,9.8337,9.83,9.797,9.7603,9.797,9.83,9.8007,9.7823,9.819,9.83,9.786,9.775,9.8043,9.83,9.8631,9.8668,9.9769,9.9328,9.9842,10.0943,10.0796,10.1017,10.1457,10.1494,10.1494,10.1494,10.1494,10.1494,10.1494,10.1494,10.1494,10.1494,10.1494,10.1494,10.1494,10.1494,10.1494,10.1494,10.1457,10.1164,10.076,10.0613,10.0319,9.9622,9.9035,9.8484,9.786,9.7126,9.6795,9.6722,9.6722,9.6722,9.6722,9.6722,9.6722,9.6722,9.6722,9.6722,9.6722,9.6722,9.6722,9.6722,9.6722,9.6722,9.6722,9.6722,9.6722,9.6722,9.6722,9.6722,9.6722,9.6722,9.6722,9.6722,9.6722,9.6832,9.7163,9.7089,9.7273,9.7456,9.7713,9.7897,9.8374,9.9071,9.9622,10.0172,10.0356,10.065,10.065,10.0686,10.0723,10.0833,10.1384,10.1494,10.1494,10.1494,10.1494,10.1494,10.1494,10.142,10.142,10.1494,10.1494,10.1494,10.1494,10.1494,10.131,10.1164,10.087,10.065,10.0576,10.0246,9.9622,9.9438,9.9365,9.8998,9.8924,9.8594,9.83,9.8557,9.8778,9.8851,9.8924,9.8888,9.8888,9.8741,9.8814,9.9108,9.9255,9.9402,9.8411,9.9108,9.9145,9.9659,10.0429,10.1127,10.1457,10.1494,10.1494,10.1494,10.1494,10.1494,10.1494,10.1494,10.1494,10.1494,10.1494,10.1494,10.1494,10.1494,10.1494,10.1494,10.1494,10.1457,10.1384,10.142,10.131,10.0907,10.0356,9.9952,9.9181,9.808,9.7273,9.6906,9.6795,9.6722,9.6722,9.6722,9.6722,9.6722,9.6722,9.6722,9.6722,9.6722,9.6722,9.6722,9.6722,9.6722,9.6722,9.6722,9.6722,9.6722,9.6722,9.6722,9.6722,9.6722,9.6722,9.6722,9.6722,9.6722,9.7126,9.753,9.786,9.8337,9.8631,9.8668,9.8778,9.9108,9.9695,10.0062,10.0429,10.087,10.131,10.131,10.131,10.1347,10.1347,10.1494,10.1494,10.1494,10.1494,10.1494,10.1494,10.1494,10.1494,10.1494,10.1494,10.1494,10.1494,10.1494,10.1494,10.1494,10.1384,10.142,10.1237,10.098,10.0833,10.0356,10.0613,10.0576,10.0136,9.9622,9.9475,9.9292,9.9145,9.9292,9.9695,9.9585,9.9218,9.9255,9.9659,9.9732,9.9989,9.9916,10.0026,9.9218,9.9952,9.9952,10.0429,10.1127,10.1384,10.1494,10.1494,10.1494,10.1494,10.1494,10.1494,10.1494,10.1494,10.1494,10.1494,10.1494,10.1494,10.1494,10.1574,10.1617,10.1574,10.1538,10.1617,10.1538,10.1538,10.1581,10.1628,10.106,10.0729,9.948,9.8043,9.753,9.7163,9.6906,9.6722,9.6722,9.6722,9.6722,9.6722,9.6722,9.6722,9.6722,9.6722,9.6722,9.6722,9.6722,9.6722,9.6722,9.6722,9.6722,9.6722,9.6722,9.6722,9.6722,9.6722,9.6722,9.6722,9.6722,9.6722,9.7089,9.7933,9.8411,9.8778,9.9035,9.9292,9.9512,9.9952,10.0246,10.054,10.0833,10.1237,10.1494,10.1494,10.1494,10.1494,10.1494,10.1494,10.1494,10.1494,10.1494,10.1494,10.1494,10.1494,10.1494,10.1494,10.1494,10.1494,10.1494,10.1494,10.1494,10.1494,10.1494,10.1494,10.1494,10.1274,10.1274,10.1237,10.1347,10.1274,10.065,10.0283,10.0319,10.0172,9.9842,10.0246,10.087,10.0429,9.9585,10.0393,10.0833,10.0796,10.0796,10.0613,10.0576,10.0026,10.0723,10.076,10.1053,10.142,10.1494,10.1494,10.1494,10.1494,10.1494,10.1494,10.1494,10.1494,10.1494,10.1494,10.1494,10.1494,10.1494,10.1494,10.1538,10.1858,10.1975,10.2052,10.2278,10.2571,10.2498,10.2498,10.264,10.213,10.0869,9.9537,9.8484,9.7933,9.7456,9.7163,9.6942,9.6722,9.6722,9.6722,9.6722,9.6722,9.6722,9.6722,9.6722,9.6722,9.6722,9.6722,9.6722,9.6722,9.6722,9.6722,9.6722,9.6722,9.6722,9.6722,9.6722,9.6722,9.6722,9.6759,9.7089,9.7603,9.83,9.9071,9.9695,10.0026,10.0319,10.0466,10.0723,10.0833,10.0943,10.1237,10.1494,10.1494,10.1494,10.1494,10.1494,10.1494,10.1494,10.1494,10.1494,10.1494,10.1494,10.1494,10.1494,10.1494,10.1494,10.1494,10.1494,10.1494,10.1494,10.1494,10.1494,10.1494,10.1494,10.1494,10.1494,10.142,10.1384,10.142,10.1274,10.0907,10.0833,10.076,10.065,10.0429,10.0723,10.087,10.0503,10.0062,10.0796,10.1017,10.065,10.0613,10.0943,10.1017,10.0876,10.1457,10.1494,10.1457,10.1494,10.1494,10.1494,10.1574,10.1617,10.1538,10.1574,10.1494,10.1538,10.1739,10.1817,10.1858,10.2052,10.2128,10.2128,10.1739,10.2461,10.2781,10.302,10.3486,10.3458,10.3841,10.3903,10.3486,10.3174,10.1974,10.0463,9.9268,9.8091,9.7578,9.7616,9.7211,9.6952,9.6722,9.6722,9.6722,9.6722,9.6722,9.6722,9.6722,9.6722,9.6722,9.6722,9.6722,9.6722,9.6722,9.6722,9.6722,9.6722,9.6722,9.6722,9.6832,9.6869,9.6979,9.7199,9.7603,9.8264,9.8998,9.9842,10.0283,10.054,10.0907,10.109,10.1164,10.12,10.12,10.142,10.1494,10.1494,10.1494,10.1494,10.1494,10.1494,10.1494,10.1494,10.1494,10.1494,10.1494,10.1494,10.1494,10.1494,10.1494,10.1494,10.1494,10.1494,10.1494,10.1494,10.1494,10.1494,10.1494,10.1494,10.1494,10.1494,10.1494,10.142,10.12,10.0796,10.0943,10.12,10.065,10.0026,10.0283,10.0356,10.0136,10.0062,10.0319,10.0429,10.0099,10.0319,10.098,10.1274,10.1867,10.1494,10.1494,10.1494,10.1494,10.1494,10.1574,10.1538,10.2166,10.2091,10.1617,10.1617,10.1899,10.2425,10.2425,10.2677,10.3193,10.3058,10.3327,10.3327,10.355,10.3678,10.3741,10.4048,10.4146,10.4025,10.4025,10.4108,10.3625,10.2605,10.1675,10.0798,9.9575,9.901,9.7978,9.757,9.7393,9.7064,9.6685,9.6801,9.6915,9.6762,9.6722,9.6722,9.6722,9.6722,9.6722,9.6722,9.6722,9.6722,9.6722,9.6722,9.6722,9.6759,9.6722,9.6795,9.7383,9.7676,9.797,9.8521,9.9218,9.9402,9.9952,10.0283,10.0686,10.12,10.1457,10.1494,10.1494,10.1494,10.1494,10.1494,10.1494,10.1494,10.1494,10.1494,10.1494,10.1494,10.1494,10.1494,10.1494,10.1494,10.1494,10.1494,10.1494,10.1494,10.1494,10.1494,10.1494,10.1494,10.1494,10.1494,10.1494,10.1494,10.1494,10.1384,10.131,10.1164,10.1053,10.087,10.065,10.0576,10.0503,9.9842,9.9402,9.9769,10.0062,10.0099,10.0099,10.0246,10.0429,10.0319,10.0613,10.12,10.1347,10.2781,10.2052,10.2015,10.2241,10.2571,10.2643,10.2643,10.2677,10.3126,10.3058,10.2643,10.2643,10.2888,10.3289,10.3289,10.3486,10.4025,10.3964,10.3841,10.3964,10.4439,10.4553,10.4609,10.4812,10.5167,10.5078,10.4987,10.4911,10.4117,10.345,10.2673,10.1444,10.0713,10.0161,9.8702,9.8389,9.827,9.7769,9.7285,9.7175,9.7391,9.7211,9.6762,9.6722,9.6722,9.6722,9.6722,9.6722,9.6722,9.6869,9.7052,9.7603,9.775,9.7897,9.786,9.8043,9.8484,9.8961,9.9218,9.9732,10.0393,10.065,10.0943,10.1604,10.1531,10.1934,10.1494,10.1494,10.1494,10.1494,10.1494,10.1494,10.1494,10.1494,10.1494,10.1494,10.1494,10.1494,10.1494,10.1494,10.1494,10.1494,10.1494,10.1494,10.1494,10.1494,10.1494,10.1494,10.1494,10.1494,10.1494,10.1494,10.1494,10.1494,10.1494,10.1274,10.1017,10.087,10.0686,10.0466,10.0246,9.9989,9.9659,9.9255,9.9145,9.9475,9.9732,9.9879,10.0062,10.0209,10.0503,10.076,10.109,10.1347,10.142,10.3678,10.2883,10.2814,10.3289,10.3927,10.3964,10.3964,10.3927,10.4108,10.4108,10.4146,10.4227,10.4265,10.4206,10.4146,10.4265,10.4381,10.4757,10.4553,10.4664,10.5078,10.5269,10.5553,10.5946,10.5991,10.6117,10.6079,10.5396,10.4605,10.415,10.3227,10.1408,10.107,10.1152,10.0104,9.9637,9.9706,9.9354,9.8983,9.8486,9.8166,9.7636,9.7064,9.6838,9.6872,9.6832,9.6869,9.6979,9.7016,9.7273,9.775,9.819,9.8594,9.8704,9.8778,9.8961,9.9475,9.9879,10.0319,10.1164,10.1824,10.2338,10.2632,10.2669,10.2522,10.2375,10.1934,10.1677,10.1677,10.1531,10.1531,10.1494,10.1494,10.1494,10.1494,10.1494,10.1494,10.1494,10.1494,10.1494,10.1494,10.1494,10.1494,10.1494,10.1494,10.1494,10.1494,10.1494,10.1494,10.1494,10.1494,10.1494,10.1494,10.1494,10.1457,10.109,10.0723,10.0429,10.0209,10.0026,9.9695,9.8961,9.8668,9.8924,9.8924,9.9145,9.9512,9.9769,9.9952,10.0246,10.0723,10.1053,10.1053,10.1274,10.142,10.4496,10.3741,10.3741,10.3865,10.4025,10.4025,10.4025,10.4108,10.4719,10.4973,10.5129,10.5601,10.5639,10.4973,10.4973,10.5129,10.5553,10.5686,10.5863,10.6035,10.5908,10.6035,10.6237,10.6395,10.6364,10.6521,10.6597,10.6245,10.5908,10.5352,10.4807,10.4043,10.3421,10.3322,10.3079,10.2538,10.1977,10.1617,10.1061,10.0518,9.9867,9.9001,9.7428,9.7322,9.7654,9.7647,9.7823,9.8337,9.8557,9.8704,9.8778,9.9035,9.9328,9.9475,9.9438,9.9695,10.0246,10.054,10.1127,10.1898,10.2485,10.2522,10.2705,10.3036,10.3072,10.3293,10.2852,10.2412,10.2228,10.1714,10.1604,10.1531,10.1494,10.1494,10.1494,10.1494,10.1494,10.1494,10.1494,10.1494,10.1494,10.1494,10.1494,10.1494,10.1494,10.1494,10.1494,10.1494,10.1494,10.1494,10.1494,10.1494,10.1494,10.1494,10.1457,10.0833,10.0429,10.0062,9.9622,9.9218,9.8521,9.7493,9.7383,9.819,9.8484,9.8631,9.9035,9.9842,10.0136,10.0503,10.1017,10.1347,10.1274,10.1274,10.142]},{"header":{"parameterUnit":"m.s-1","parameterCategory":1,"la1":31.0,"la2":29.5877,"lo1":-88.7671,"lo2":-86.6584,"dx":0.0162,"dy":0.0185,"nx":115,"ny":88,"refTime":"2022-12-20T06:00:00:Z","depth":0,"parameterNumber":3,"parameterNumberName":"V-component_of_WINDS"},"data":[0.0,0.0,0.0,0.0,0.0,0.0,0.0,0.0,0.0,0.0,0.0,0.0,0.0,0.0,0.0,0.0,0.0,0.0,0.0,0.0,0.0,0.0,0.0,0.0,0.0,0.0,0.0,0.0,0.0,0.0,0.0,0.0,0.0,0.0,0.0,0.0,0.0,0.0,0.0,0.0,0.0,0.0,0.0,0.0,0.0,0.0,0.0,0.0,0.0,0.0,0.0,0.0,0.0,0.0,0.0,0.0,0.0,0.0,0.0,0.0,0.0,0.0,0.0,0.0,0.0,0.0,0.0,0.0,0.0,0.0,0.0,0.0,0.0,0.0,0.0,0.0,0.0,0.0,0.0,0.0,0.0,0.0,0.0,0.0,0.0,0.0,0.0,0.0,0.0,0.0,0.0,0.0,0.0,0.0,0.0,0.0,0.0,0.0,0.0,0.0,0.0,0.0,0.0,0.0,0.0,0.0,0.0,0.0,0.0,0.0,0.0,0.0,0.0,0.0,0.0,0.0,0.0,0.0,0.0,0.0,0.0,0.0,0.0,0.0,0.0,0.0,0.0,0.0,0.0,0.0,0.0,0.0,0.0,0.0,0.0,0.0,0.0,0.0,0.0,0.0,0.0,0.0,0.0,0.0,0.0,0.0,0.0,0.0,0.0,0.0,0.0,0.0,0.0,0.0,0.0,0.0,0.0,0.0,0.0,0.0,0.0,0.0,0.0,0.0,0.0,0.0,0.0,0.0,0.0,0.0,0.0,0.0,0.0,0.0,0.0,0.0,0.0,0.0,0.0,0.0,0.0,0.0,0.0,0.0,0.0,0.0,0.0,0.0,0.0,0.0,0.0,0.0,0.0,0.0,0.0,0.0,0.0,0.0,0.0,0.0,0.0,0.0,0.0,0.0,0.0,0.0,0.0,0.0,0.0,0.0,0.0,0.0,0.0,0.0,0.0,0.0,0.0,0.0,0.0,0.0,0.0,0.0,0.0,0.0,0.0,0.0,0.0,0.0,0.0,0.0,0.0,0.0,0.0,0.0,0.0,0.0,0.0,0.0,0.0,0.0,0.0,0.0,0.0,0.0,0.0,0.0,0.0,0.0,0.0,0.0,0.0,0.0,0.0,0.0,0.0,0.0,0.0,0.0,0.0,0.0,0.0,0.0,0.0,0.0,0.0,0.0,0.0,0.0,0.0,0.0,0.0,0.0,0.0,0.0,0.0,0.0,0.0,0.0,0.0,0.0,0.0,0.0,0.0,0.0,0.0,0.0,0.0,0.0,0.0,0.0,0.0,0.0,0.0,0.0,0.0,0.0,0.0,0.0,0.0,0.0,0.0,0.0,0.0,0.0,0.0,0.0,0.0,0.0,0.0,0.0,0.0,0.0,0.0,0.0,0.0,0.0,0.0,0.0,0.0,0.0,0.0,0.0,0.0,0.0,0.0,0.0,0.0,0.0,0.0,0.0,0.0,0.0,0.0,0.0,0.0,0.0,0.0,0.0,0.0,0.0,0.0,0.0,0.0,0.0,0.0,0.0,0.0,0.0,0.0,0.0,0.0,0.0,0.0,0.0,0.0,0.0,0.0,0.0,0.0,0.0,0.0,0.0,0.0,0.0,0.0,0.0,0.0,0.0,0.0,0.0,0.0,0.0,0.0,0.0,0.0,0.0,0.0,0.0,0.0,0.0,0.0,0.0,0.0,0.0,0.0,0.0,0.0,0.0,0.0,0.0,0.0,0.0,0.0,0.0,0.0,0.0,0.0,0.0,0.0,0.0,0.0,0.0,0.0,0.0,0.0,0.0,0.0,0.0,0.0,0.0,0.0,0.0,0.0,0.0,0.0,0.0,0.0,0.0,0.0,0.0,0.0,0.0,0.0,0.0,0.0,0.0,0.0,0.0,0.0,0.0,0.0,0.0,0.0,0.0,0.0,0.0,0.0,0.0,0.0,0.0,0.0,0.0,0.0,0.0,0.0,0.0,0.0,0.0,0.0,0.0,0.0,0.0,0.0,0.0,0.0,0.0,0.0,0.0,0.0,0.0,0.0,0.0,0.0,0.0,0.0,0.0,0.0,0.0,0.0,0.0,0.0,0.0,0.0,0.0,0.0,0.0,0.0,0.0,0.0,0.0,0.0,0.0,0.0,0.0,0.0,0.0,0.0,0.0,0.0,0.0,0.0,0.0,0.0,0.0,0.0,0.0,0.0,0.0,0.0,0.0,0.0,0.0,0.0,0.0,0.0,0.0,0.0,0.0,0.0,0.0,0.0,0.0,0.0,0.0,0.0,0.0,0.0,0.0,0.0,0.0,0.0,0.0,0.0,0.0,0.0,0.0,0.0,0.0,0.0,0.0,0.0,0.0,0.0,0.0,0.0,0.0,0.0,0.0,0.0,0.0,0.0,0.0,0.0,0.0,0.0,0.0,0.0,0.0,0.0,0.0,0.0,0.0,0.0,0.0,0.0,0.0,0.0,0.0,0.0,0.0,0.0,0.0,0.0,0.0,0.0,0.0,0.0,0.0,0.0,0.0,0.0,0.0,0.0,0.0,0.0,0.0,0.0,0.0,0.0,0.0,0.0,0.0,0.0,0.0,0.0,0.0,0.0,0.0,0.0,0.0,0.0,0.0,0.0,0.0,0.0,0.0,0.0,0.0,0.0,0.0,0.0,0.0,0.0,0.0,0.0,0.0,0.0,0.0,0.0,0.0,0.0,0.0,0.0,0.0,0.0,0.0,0.0,0.0,0.0,0.0,0.0,0.0,0.0,0.0,0.0,0.0,0.0,0.0,0.0,0.0,0.0,0.0,0.0,0.0,0.0,0.0,0.0,0.0,0.0,0.0,0.0,0.0,0.0,0.0,0.0,0.0,0.0,0.0,0.0,0.0,0.0,0.0,0.0,0.0,0.0,0.0,0.0,0.0,0.0,0.0,0.0,0.0,0.0,0.0,0.0,0.0,0.0,0.0,0.0,0.0,0.0,0.0,0.0,0.0,0.0,0.0,0.0,0.0,0.0,0.0,0.0,0.0,0.0,0.0,0.0,0.0,0.0,0.0,0.0,0.0,0.0,0.0,0.0,0.0,0.0,0.0,0.0,0.0,0.0,0.0,0.0,0.0,0.0,0.0,0.0,0.0,0.0,0.0,0.0,0.0,0.0,0.0,0.0,0.0,0.0,0.0,0.0,0.0,0.0,0.0,0.0,0.0,0.0,0.0,0.0,0.0,0.0,0.0,0.0,0.0,0.0,0.0,0.0,0.0,0.0,0.0,0.0,0.0,0.0,0.0,0.0,0.0,0.0,0.0,0.0,0.0,0.0,0.0,0.0,0.0,0.0,0.0,0.0,0.0,0.0,0.0,0.0,0.0,0.0,0.0,0.0,0.0,0.0,0.0,0.0,0.0,0.0,0.0,0.0,0.0,0.0,0.0,0.0,0.0,0.0,0.0,0.0,0.0,0.0,0.0,0.0,0.0,0.0,0.0,0.0,0.0,0.0,0.0,0.0,0.0,0.0,0.0,0.0,0.0,0.0,0.0,0.0,0.0,0.0,0.0,0.0,0.0,0.0,0.0,0.0,0.0,0.0,0.0,0.0,0.0,0.0,0.0,0.0,0.0,0.0,0.0,0.0,0.0,0.0,0.0,0.0,0.0,0.0,0.0,0.0,0.0,0.0,0.0,0.0,0.0,0.0,0.0,0.0,0.0,0.0,0.0,0.0,0.0,0.0,0.0,0.0,0.0,0.0,0.0,0.0,0.0,0.0,0.0,0.0,0.0,0.0,0.0,0.0,0.0,0.0,0.0,0.0,0.0,0.0,0.0,0.0,0.0,0.0,0.0,0.0,0.0,0.0,0.0,0.0,0.0,0.0,0.0,0.0,0.0,0.0,0.0,0.0,0.0,0.0,0.0,0.0,0.0,0.0,0.0,0.0,0.0,0.0,0.0,0.0,0.0,0.0,0.0,0.0,0.0,0.0,0.0,0.0,0.0,0.0,0.0,0.0,0.0,0.0,0.0,0.0,0.0,0.0,0.0,0.0,0.0,0.0,0.0,0.0,0.0,0.0,0.0,0.0,0.0,0.0,0.0,0.0,0.0,0.0,0.0,0.0,0.0,0.0,0.0,0.0,0.0,0.0,0.0,0.0,0.0,0.0,0.0,0.0,0.0,0.0,0.0,0.0,0.0,0.0,0.0,0.0,0.0,0.0,0.0,0.0,0.0,0.0,0.0,0.0,0.0,0.0,0.0,0.0,0.0,0.0,0.0,0.0,0.0,-2.8711,0.0,0.0,0.0,-2.832,0.0,0.0,0.0,0.0,0.0,0.0,0.0,0.0,0.0,0.0,0.0,0.0,0.0,0.0,0.0,0.0,0.0,0.0,0.0,0.0,0.0,0.0,0.0,0.0,0.0,0.0,0.0,0.0,0.0,0.0,0.0,0.0,0.0,0.0,0.0,0.0,0.0,0.0,0.0,0.0,0.0,0.0,0.0,0.0,0.0,0.0,0.0,0.0,0.0,0.0,0.0,0.0,0.0,0.0,0.0,0.0,0.0,0.0,0.0,0.0,0.0,0.0,0.0,0.0,0.0,0.0,0.0,0.0,0.0,0.0,0.0,0.0,0.0,0.0,0.0,0.0,0.0,0.0,0.0,0.0,0.0,0.0,0.0,0.0,0.0,0.0,0.0,0.0,0.0,0.0,0.0,0.0,0.0,0.0,0.0,0.0,0.0,0.0,0.0,0.0,0.0,0.0,0.0,0.0,0.0,0.0,0.0,0.0,0.0,0.0,-2.8711,-2.832,-2.8926,-2.8965,-2.834,0.0,0.0,0.0,0.0,0.0,0.0,0.0,0.0,0.0,0.0,0.0,0.0,0.0,0.0,0.0,0.0,0.0,0.0,0.0,0.0,0.0,0.0,0.0,0.0,0.0,0.0,0.0,0.0,0.0,0.0,0.0,0.0,0.0,0.0,0.0,0.0,0.0,0.0,0.0,0.0,0.0,0.0,0.0,0.0,0.0,0.0,0.0,0.0,0.0,0.0,0.0,0.0,0.0,0.0,0.0,0.0,0.0,0.0,0.0,0.0,0.0,0.0,0.0,0.0,0.0,0.0,0.0,0.0,0.0,0.0,0.0,0.0,0.0,0.0,0.0,0.0,0.0,0.0,0.0,0.0,0.0,0.0,0.0,0.0,0.0,0.0,0.0,0.0,0.0,0.0,0.0,0.0,0.0,0.0,0.0,0.0,0.0,0.0,0.0,0.0,0.0,0.0,0.0,0.0,0.0,0.0,0.0,0.0,0.0,0.0,0.0,0.0,-2.9082,-2.9121,-2.8476,0.0,0.0,0.0,0.0,0.0,0.0,0.0,0.0,0.0,0.0,0.0,0.0,0.0,0.0,0.0,0.0,0.0,0.0,0.0,0.0,0.0,0.0,0.0,0.0,0.0,0.0,0.0,0.0,0.0,0.0,0.0,0.0,0.0,0.0,0.0,0.0,0.0,0.0,0.0,0.0,0.0,0.0,0.0,0.0,0.0,0.0,0.0,0.0,0.0,0.0,0.0,0.0,0.0,0.0,0.0,0.0,0.0,0.0,0.0,0.0,0.0,0.0,0.0,0.0,0.0,0.0,0.0,0.0,0.0,0.0,0.0,0.0,0.0,0.0,0.0,0.0,0.0,0.0,0.0,0.0,0.0,0.0,0.0,0.0,0.0,0.0,0.0,0.0,0.0,0.0,0.0,0.0,0.0,0.0,0.0,0.0,0.0,0.0,0.0,0.0,0.0,0.0,0.0,0.0,0.0,0.0,0.0,0.0,0.0,0.0,-2.8516,-2.8848,-2.8945,0.0,-2.8848,0.0,0.0,0.0,0.0,0.0,0.0,0.0,0.0,0.0,0.0,0.0,0.0,0.0,0.0,0.0,0.0,0.0,0.0,0.0,0.0,0.0,0.0,0.0,0.0,0.0,0.0,0.0,0.0,0.0,0.0,0.0,0.0,0.0,0.0,0.0,0.0,0.0,0.0,0.0,0.0,0.0,0.0,0.0,0.0,0.0,0.0,0.0,0.0,0.0,0.0,0.0,0.0,0.0,0.0,0.0,0.0,0.0,0.0,0.0,0.0,0.0,0.0,0.0,0.0,0.0,0.0,0.0,0.0,0.0,0.0,0.0,0.0,0.0,0.0,0.0,0.0,0.0,0.0,0.0,0.0,0.0,0.0,0.0,0.0,0.0,0.0,0.0,0.0,0.0,0.0,0.0,0.0,0.0,0.0,0.0,0.0,0.0,0.0,0.0,0.0,0.0,0.0,0.0,0.0,0.0,0.0,0.0,0.0,0.0,0.0,-2.8867,-2.9297,-2.9062,-2.8809,0.0,0.0,0.0,0.0,0.0,0.0,0.0,0.0,0.0,0.0,0.0,0.0,0.0,0.0,0.0,0.0,0.0,0.0,0.0,0.0,0.0,0.0,0.0,0.0,0.0,0.0,0.0,0.0,0.0,0.0,0.0,0.0,0.0,0.0,0.0,0.0,0.0,0.0,0.0,0.0,0.0,0.0,0.0,0.0,0.0,0.0,0.0,0.0,0.0,0.0,0.0,0.0,0.0,0.0,0.0,0.0,0.0,0.0,0.0,0.0,0.0,0.0,0.0,0.0,0.0,0.0,0.0,0.0,0.0,0.0,0.0,0.0,0.0,0.0,0.0,0.0,0.0,0.0,0.0,0.0,0.0,0.0,0.0,0.0,0.0,0.0,0.0,0.0,0.0,0.0,0.0,0.0,0.0,0.0,0.0,0.0,0.0,0.0,0.0,0.0,0.0,0.0,0.0,0.0,0.0,0.0,0.0,0.0,0.0,0.0,-2.916,-2.9297,-2.9687,-2.9199,-2.8769,-2.8476,0.0,0.0,0.0,0.0,0.0,0.0,0.0,0.0,0.0,0.0,0.0,0.0,0.0,0.0,0.0,0.0,0.0,0.0,0.0,0.0,0.0,0.0,0.0,0.0,0.0,0.0,0.0,0.0,0.0,0.0,0.0,0.0,0.0,0.0,0.0,0.0,0.0,0.0,0.0,0.0,0.0,0.0,0.0,0.0,0.0,0.0,0.0,0.0,0.0,0.0,0.0,0.0,0.0,0.0,0.0,0.0,0.0,0.0,0.0,0.0,0.0,0.0,0.0,0.0,0.0,0.0,0.0,0.0,0.0,0.0,0.0,0.0,0.0,0.0,0.0,0.0,0.0,0.0,0.0,0.0,0.0,0.0,0.0,0.0,0.0,0.0,0.0,0.0,0.0,0.0,0.0,0.0,0.0,0.0,0.0,0.0,0.0,0.0,0.0,0.0,0.0,0.0,0.0,0.0,0.0,0.0,0.0,0.0,-3.0059,-2.9746,-2.9746,-3.0137,-2.9375,-2.8906,0.0,0.0,0.0,0.0,0.0,0.0,0.0,0.0,0.0,0.0,0.0,0.0,0.0,0.0,0.0,0.0,0.0,0.0,0.0,0.0,0.0,0.0,0.0,0.0,0.0,0.0,0.0,0.0,0.0,0.0,0.0,0.0,0.0,0.0,0.0,0.0,0.0,0.0,0.0,0.0,0.0,0.0,0.0,0.0,0.0,0.0,0.0,0.0,0.0,0.0,0.0,0.0,0.0,0.0,0.0,0.0,0.0,0.0,0.0,0.0,0.0,0.0,0.0,0.0,0.0,0.0,0.0,0.0,0.0,0.0,0.0,0.0,0.0,0.0,0.0,0.0,0.0,0.0,0.0,0.0,0.0,0.0,0.0,0.0,0.0,0.0,0.0,0.0,0.0,0.0,0.0,0.0,0.0,0.0,0.0,0.0,0.0,0.0,0.0,0.0,0.0,0.0,0.0,0.0,0.0,0.0,0.0,0.0,0.0,-2.9785,-3.0195,-3.0488,-3.0605,-2.9785,-2.9453,0.0,0.0,0.0,0.0,0.0,0.0,0.0,0.0,0.0,0.0,0.0,0.0,0.0,0.0,0.0,0.0,0.0,0.0,0.0,0.0,0.0,0.0,0.0,0.0,0.0,0.0,0.0,0.0,0.0,0.0,0.0,0.0,0.0,0.0,0.0,0.0,0.0,0.0,0.0,0.0,0.0,0.0,0.0,0.0,0.0,0.0,0.0,0.0,0.0,0.0,0.0,0.0,0.0,0.0,0.0,0.0,0.0,0.0,0.0,0.0,0.0,0.0,0.0,0.0,0.0,0.0,0.0,0.0,0.0,0.0,0.0,0.0,0.0,0.0,0.0,0.0,0.0,0.0,0.0,0.0,0.0,0.0,0.0,0.0,0.0,0.0,0.0,0.0,0.0,0.0,0.0,0.0,0.0,0.0,0.0,0.0,0.0,0.0,0.0,0.0,0.0,0.0,0.0,0.0,0.0,0.0,0.0,0.0,0.0,-2.998,-3.0723,-3.1035,-3.0879,-3.0176,-2.9785,0.0,0.0,0.0,0.0,0.0,0.0,0.0,0.0,0.0,0.0,0.0,0.0,0.0,0.0,0.0,0.0,0.0,0.0,0.0,0.0,0.0,0.0,0.0,0.0,0.0,0.0,0.0,0.0,0.0,0.0,0.0,0.0,0.0,0.0,0.0,0.0,0.0,0.0,0.0,0.0,0.0,0.0,0.0,0.0,0.0,0.0,0.0,0.0,0.0,0.0,0.0,0.0,0.0,0.0,0.0,0.0,0.0,0.0,0.0,0.0,0.0,0.0,0.0,0.0,0.0,0.0,0.0,0.0,0.0,0.0,0.0,0.0,0.0,0.0,0.0,0.0,0.0,0.0,0.0,0.0,0.0,0.0,0.0,0.0,0.0,0.0,0.0,0.0,0.0,0.0,0.0,0.0,0.0,0.0,0.0,0.0,0.0,0.0,0.0,0.0,0.0,0.0,0.0,0.0,0.0,0.0,0.0,0.0,-2.9458,-3.082,-3.1269,-3.1289,-3.0898,-3.043,-2.9805,0.0,0.0,0.0,0.0,0.0,0.0,0.0,0.0,0.0,0.0,0.0,0.0,0.0,0.0,0.0,0.0,0.0,0.0,0.0,0.0,0.0,0.0,0.0,0.0,0.0,0.0,0.0,0.0,0.0,0.0,0.0,0.0,0.0,0.0,0.0,0.0,0.0,0.0,0.0,0.0,0.0,0.0,0.0,0.0,0.0,0.0,0.0,0.0,0.0,0.0,0.0,0.0,0.0,0.0,0.0,0.0,0.0,0.0,0.0,0.0,0.0,0.0,0.0,0.0,0.0,0.0,0.0,0.0,0.0,0.0,0.0,0.0,0.0,0.0,0.0,0.0,0.0,0.0,0.0,0.0,0.0,0.0,0.0,0.0,0.0,0.0,0.0,0.0,0.0,0.0,0.0,0.0,0.0,0.0,0.0,0.0,0.0,0.0,0.0,0.0,0.0,0.0,0.0,0.0,0.0,0.0,0.0,0.0,0.0,-2.9139,-3.0389,-3.0661,-2.9684,-2.9987,-3.0351,0.0,0.0,0.0,0.0,0.0,0.0,0.0,0.0,0.0,0.0,0.0,0.0,0.0,0.0,0.0,0.0,0.0,0.0,0.0,0.0,0.0,0.0,0.0,0.0,0.0,0.0,0.0,0.0,0.0,0.0,0.0,0.0,0.0,0.0,0.0,0.0,0.0,0.0,0.0,0.0,0.0,0.0,0.0,0.0,0.0,0.0,0.0,0.0,0.0,0.0,0.0,0.0,0.0,0.0,0.0,0.0,0.0,0.0,0.0,0.0,0.0,0.0,0.0,0.0,0.0,0.0,0.0,0.0,0.0,0.0,0.0,0.0,0.0,0.0,0.0,0.0,0.0,0.0,0.0,0.0,0.0,0.0,0.0,0.0,0.0,0.0,0.0,0.0,0.0,0.0,0.0,0.0,0.0,0.0,0.0,0.0,0.0,0.0,0.0,0.0,0.0,0.0,0.0,0.0,0.0,0.0,0.0,0.0,0.0,-2.6729,-2.8188,-2.8672,-2.7922,-2.9028,-2.9773,-3.0135,0.0,0.0,0.0,0.0,0.0,0.0,0.0,0.0,0.0,0.0,0.0,0.0,0.0,0.0,0.0,0.0,0.0,0.0,0.0,0.0,0.0,0.0,0.0,0.0,0.0,0.0,0.0,0.0,0.0,0.0,0.0,0.0,0.0,0.0,0.0,0.0,0.0,0.0,0.0,0.0,0.0,0.0,0.0,0.0,0.0,0.0,0.0,0.0,0.0,0.0,0.0,0.0,0.0,0.0,0.0,0.0,0.0,0.0,0.0,0.0,0.0,0.0,0.0,0.0,0.0,0.0,0.0,0.0,0.0,0.0,0.0,0.0,0.0,0.0,0.0,0.0,0.0,0.0,0.0,0.0,0.0,0.0,0.0,0.0,0.0,0.0,0.0,0.0,0.0,0.0,0.0,0.0,0.0,0.0,0.0,0.0,0.0,0.0,0.0,0.0,0.0,0.0,0.0,0.0,0.0,0.0,0.0,0.0,-2.3713,-2.5146,-2.5968,-2.5863,-2.7572,-2.8246,0.0,0.0,0.0,0.0,0.0,0.0,0.0,0.0,0.0,0.0,0.0,0.0,0.0,0.0,0.0,0.0,0.0,0.0,0.0,0.0,0.0,0.0,0.0,0.0,0.0,0.0,0.0,0.0,0.0,0.0,0.0,0.0,0.0,0.0,0.0,0.0,0.0,0.0,0.0,0.0,0.0,0.0,0.0,0.0,0.0,0.0,0.0,0.0,0.0,0.0,0.0,0.0,0.0,0.0,0.0,0.0,0.0,0.0,0.0,0.0,0.0,0.0,0.0,0.0,0.0,0.0,0.0,0.0,0.0,0.0,0.0,0.0,0.0,0.0,0.0,0.0,0.0,0.0,0.0,0.0,0.0,0.0,0.0,0.0,0.0,0.0,0.0,0.0,0.0,0.0,0.0,0.0,0.0,0.0,0.0,0.0,0.0,0.0,0.0,0.0,0.0,0.0,0.0,0.0,0.0,0.0,0.0,0.0,0.0,-2.4154,-2.5258,-2.5375,-2.4301,-2.697,-2.8372,0.0,0.0,0.0,0.0,0.0,0.0,0.0,0.0,0.0,0.0,0.0,0.0,0.0,0.0,0.0,0.0,0.0,0.0,0.0,0.0,0.0,0.0,0.0,0.0,0.0,0.0,0.0,0.0,0.0,0.0,0.0,0.0,0.0,0.0,0.0,0.0,0.0,0.0,0.0,0.0,0.0,0.0,0.0,0.0,0.0,0.0,0.0,0.0,0.0,0.0,0.0,0.0,0.0,0.0,0.0,0.0,0.0,0.0,0.0,0.0,0.0,0.0,0.0,0.0,0.0,0.0,0.0,0.0,0.0,0.0,0.0,0.0,0.0,0.0,0.0,0.0,0.0,0.0,0.0,0.0,0.0,0.0,0.0,0.0,0.0,0.0,0.0,0.0,0.0,0.0,0.0,0.0,0.0,0.0,0.0,0.0,0.0,0.0,0.0,0.0,0.0,0.0,0.0,0.0,0.0,0.0,0.0,0.0,-2.6068,-2.3049,-2.4497,-2.4592,-2.2978,-2.6516,-2.8426,0.0,0.0,0.0,0.0,0.0,0.0,0.0,0.0,0.0,0.0,0.0,0.0,0.0,0.0,0.0,0.0,0.0,0.0,0.0,0.0,0.0,0.0,0.0,0.0,0.0,0.0,0.0,0.0,0.0,0.0,0.0,0.0,0.0,0.0,0.0,0.0,0.0,0.0,0.0,0.0,0.0,0.0,0.0,0.0,0.0,0.0,0.0,0.0,0.0,0.0,0.0,0.0,0.0,0.0,0.0,0.0,0.0,0.0,0.0,0.0,0.0,0.0,0.0,0.0,0.0,0.0,0.0,0.0,0.0,0.0,0.0,0.0,0.0,0.0,0.0,0.0,0.0,0.0,0.0,0.0,0.0,0.0,0.0,0.0,0.0,0.0,0.0,0.0,0.0,0.0,0.0,0.0,0.0,0.0,0.0,0.0,0.0,0.0,0.0,0.0,0.0,0.0,0.0,0.0,0.0,0.0,0.0,0.0,-2.481,-2.1773,-2.3637,-2.3927,-2.2531,-2.6166,-2.8241,0.0,0.0,0.0,0.0,0.0,0.0,0.0,0.0,0.0,0.0,0.0,0.0,0.0,0.0,0.0,0.0,0.0,0.0,0.0,0.0,0.0,0.0,0.0,0.0,0.0,0.0,0.0,0.0,0.0,0.0,0.0,0.0,0.0,0.0,0.0,0.0,0.0,0.0,0.0,0.0,0.0,0.0,0.0,0.0,0.0,0.0,0.0,0.0,0.0,0.0,0.0,0.0,0.0,0.0,0.0,0.0,0.0,0.0,0.0,0.0,0.0,0.0,0.0,0.0,0.0,0.0,0.0,0.0,0.0,0.0,0.0,0.0,0.0,0.0,0.0,0.0,0.0,0.0,0.0,0.0,0.0,0.0,0.0,0.0,0.0,0.0,0.0,0.0,0.0,0.0,0.0,0.0,0.0,0.0,0.0,0.0,0.0,0.0,0.0,0.0,0.0,0.0,0.0,0.0,0.0,0.0,0.0,0.0,-2.5026,-2.2351,-2.4894,-2.5685,-2.4261,-2.5913,-2.689,0.0,0.0,0.0,0.0,0.0,0.0,0.0,0.0,0.0,0.0,0.0,0.0,0.0,0.0,0.0,0.0,0.0,0.0,0.0,0.0,0.0,0.0,0.0,0.0,0.0,0.0,0.0,0.0,0.0,0.0,0.0,0.0,0.0,0.0,0.0,0.0,0.0,0.0,0.0,0.0,0.0,0.0,0.0,0.0,0.0,0.0,0.0,0.0,-3.0898,0.0,0.0,0.0,0.0,0.0,0.0,0.0,0.0,0.0,0.0,0.0,0.0,0.0,0.0,0.0,0.0,0.0,0.0,0.0,0.0,0.0,0.0,0.0,0.0,0.0,0.0,0.0,0.0,0.0,0.0,0.0,0.0,0.0,0.0,0.0,0.0,0.0,0.0,0.0,0.0,0.0,0.0,0.0,0.0,0.0,0.0,0.0,0.0,0.0,0.0,0.0,0.0,0.0,0.0,0.0,0.0,0.0,0.0,0.0,-2.3826,-2.2727,-2.417,-2.4775,-2.4274,-2.5106,-2.6246,0.0,0.0,0.0,0.0,0.0,0.0,0.0,0.0,0.0,0.0,0.0,0.0,0.0,0.0,0.0,0.0,0.0,0.0,0.0,0.0,0.0,0.0,0.0,0.0,0.0,0.0,0.0,0.0,0.0,0.0,0.0,0.0,0.0,0.0,0.0,0.0,0.0,0.0,0.0,0.0,0.0,0.0,0.0,0.0,0.0,0.0,0.0,0.0,0.0,0.0,0.0,0.0,0.0,0.0,0.0,0.0,0.0,0.0,0.0,0.0,0.0,0.0,0.0,0.0,0.0,0.0,0.0,0.0,0.0,0.0,0.0,0.0,0.0,0.0,0.0,0.0,0.0,0.0,0.0,0.0,0.0,0.0,0.0,0.0,0.0,0.0,0.0,0.0,0.0,0.0,0.0,0.0,0.0,0.0,0.0,0.0,0.0,0.0,0.0,0.0,0.0,0.0,0.0,0.0,0.0,0.0,0.0,-2.1924,-2.2338,-2.2899,-2.2939,-2.306,-2.3313,-2.4111,-2.5696,0.0,0.0,0.0,0.0,0.0,0.0,0.0,0.0,0.0,0.0,0.0,0.0,0.0,0.0,0.0,0.0,0.0,0.0,0.0,0.0,0.0,0.0,0.0,0.0,0.0,0.0,0.0,0.0,0.0,0.0,0.0,0.0,0.0,0.0,0.0,0.0,0.0,0.0,0.0,-3.0898,-3.0898,0.0,0.0,0.0,0.0,0.0,0.0,0.0,0.0,-3.0937,0.0,0.0,0.0,0.0,0.0,0.0,0.0,0.0,0.0,0.0,0.0,0.0,0.0,0.0,0.0,0.0,0.0,0.0,0.0,0.0,0.0,0.0,0.0,0.0,0.0,0.0,0.0,0.0,0.0,0.0,0.0,0.0,0.0,0.0,0.0,0.0,0.0,0.0,0.0,0.0,0.0,0.0,0.0,0.0,0.0,0.0,0.0,0.0,0.0,0.0,0.0,0.0,0.0,0.0,0.0,0.0,-2.2271,-2.2325,-2.2645,-2.3233,-2.3247,-2.3273,-2.3313,-2.3255,-2.3827,-2.5114,0.0,0.0,0.0,0.0,0.0,0.0,0.0,0.0,0.0,0.0,0.0,0.0,0.0,0.0,0.0,0.0,0.0,0.0,0.0,0.0,0.0,0.0,0.0,0.0,0.0,0.0,0.0,0.0,0.0,0.0,0.0,0.0,0.0,0.0,0.0,0.0,0.0,0.0,0.0,-3.0898,-3.0898,0.0,0.0,0.0,0.0,0.0,0.0,0.0,0.0,-3.0898,0.0,0.0,0.0,0.0,0.0,0.0,0.0,0.0,0.0,0.0,0.0,0.0,0.0,0.0,0.0,0.0,0.0,0.0,0.0,0.0,0.0,0.0,0.0,0.0,0.0,0.0,0.0,0.0,0.0,0.0,0.0,0.0,0.0,0.0,0.0,0.0,0.0,0.0,0.0,0.0,0.0,0.0,0.0,0.0,0.0,0.0,0.0,0.0,0.0,0.0,0.0,0.0,0.0,0.0,0.0,-2.2191,-2.2498,-2.2939,-2.3527,-2.3554,-2.3554,-2.3554,-2.326,-2.3555,0.0,0.0,0.0,0.0,0.0,0.0,0.0,0.0,0.0,0.0,0.0,0.0,0.0,0.0,0.0,0.0,0.0,0.0,0.0,0.0,0.0,0.0,0.0,0.0,0.0,0.0,0.0,0.0,0.0,0.0,0.0,0.0,0.0,0.0,0.0,0.0,0.0,0.0,0.0,0.0,-3.0898,-3.0976,-3.1191,0.0,0.0,0.0,0.0,0.0,0.0,-3.168,-3.1562,0.0,0.0,0.0,0.0,0.0,0.0,0.0,0.0,0.0,0.0,0.0,0.0,0.0,0.0,0.0,0.0,0.0,0.0,0.0,0.0,0.0,0.0,0.0,0.0,0.0,0.0,0.0,0.0,0.0,0.0,0.0,0.0,0.0,0.0,0.0,0.0,0.0,0.0,0.0,0.0,0.0,0.0,0.0,0.0,0.0,0.0,0.0,0.0,0.0,0.0,0.0,0.0,0.0,0.0,0.0,-2.2098,-2.2659,-2.322,-2.3741,-2.3834,-2.3861,-2.3848,-2.3567,-2.3694,0.0,0.0,0.0,0.0,0.0,0.0,0.0,0.0,0.0,0.0,0.0,0.0,0.0,0.0,0.0,0.0,0.0,0.0,0.0,0.0,0.0,0.0,0.0,0.0,0.0,0.0,0.0,0.0,0.0,0.0,0.0,0.0,0.0,0.0,0.0,0.0,0.0,0.0,0.0,0.0,0.0,-3.1133,-3.1465,-3.166,0.0,0.0,0.0,0.0,-3.2305,-3.2226,0.0,0.0,0.0,0.0,0.0,0.0,0.0,0.0,0.0,0.0,0.0,0.0,0.0,0.0,0.0,0.0,0.0,0.0,0.0,0.0,0.0,0.0,0.0,0.0,0.0,0.0,0.0,0.0,0.0,0.0,0.0,0.0,0.0,0.0,0.0,0.0,0.0,0.0,0.0,0.0,0.0,0.0,0.0,0.0,0.0,0.0,0.0,0.0,0.0,0.0,0.0,0.0,0.0,0.0,0.0,0.0,-2.2392,-2.2966,-2.3434,-2.3754,-2.4022,-2.4155,-2.4155,-2.3875,-2.3561,0.0,0.0,0.0,0.0,0.0,0.0,0.0,0.0,0.0,0.0,0.0,0.0,0.0,0.0,0.0,0.0,0.0,0.0,0.0,0.0,0.0,0.0,0.0,0.0,0.0,0.0,0.0,0.0,0.0,0.0,0.0,0.0,0.0,0.0,0.0,0.0,0.0,0.0,0.0,0.0,0.0,-3.1465,-3.1523,-3.2168,-3.2656,0.0,0.0,0.0,-3.2734,-3.2402,0.0,0.0,0.0,0.0,0.0,0.0,0.0,0.0,0.0,0.0,0.0,0.0,0.0,0.0,0.0,0.0,0.0,0.0,0.0,0.0,0.0,0.0,0.0,0.0,0.0,0.0,0.0,0.0,0.0,0.0,0.0,0.0,0.0,0.0,0.0,0.0,0.0,0.0,0.0,0.0,0.0,0.0,0.0,0.0,0.0,0.0,0.0,0.0,0.0,0.0,0.0,0.0,0.0,0.0,0.0,-2.2846,-2.2712,-2.3434,-2.3968,-2.4249,-2.4382,-2.4449,-2.4449,-2.4008,-2.3567,0.0,0.0,0.0,0.0,0.0,0.0,0.0,0.0,0.0,0.0,0.0,0.0,0.0,0.0,0.0,0.0,0.0,0.0,0.0,0.0,0.0,0.0,0.0,0.0,0.0,0.0,0.0,0.0,0.0,0.0,0.0,0.0,0.0,0.0,0.0,0.0,0.0,0.0,0.0,0.0,0.0,0.0,-3.2187,-3.2773,0.0,0.0,0.0,-3.3789,-3.3555,0.0,0.0,0.0,0.0,0.0,0.0,0.0,0.0,0.0,0.0,0.0,0.0,0.0,0.0,0.0,0.0,0.0,0.0,0.0,0.0,0.0,0.0,0.0,0.0,0.0,0.0,0.0,0.0,0.0,0.0,0.0,0.0,0.0,0.0,0.0,0.0,0.0,0.0,0.0,0.0,0.0,0.0,0.0,0.0,0.0,0.0,0.0,0.0,0.0,0.0,0.0,0.0,0.0,0.0,0.0,0.0,0.0,-2.31,-2.3821,-2.4342,-2.4636,-2.4783,-2.4823,-2.4743,-2.4249,0.0,0.0,0.0,0.0,0.0,0.0,0.0,0.0,0.0,0.0,0.0,0.0,0.0,0.0,0.0,0.0,0.0,0.0,0.0,0.0,0.0,0.0,0.0,0.0,0.0,0.0,0.0,0.0,0.0,0.0,0.0,0.0,0.0,0.0,0.0,0.0,0.0,0.0,0.0,0.0,0.0,0.0,-3.2363,-3.2891,-3.3398,-3.3848,0.0,0.0,-3.459,-3.4277,-3.4238,-3.4199,0.0,0.0,0.0,0.0,0.0,0.0,0.0,0.0,0.0,0.0,0.0,0.0,0.0,0.0,0.0,0.0,0.0,0.0,0.0,0.0,0.0,0.0,0.0,0.0,0.0,0.0,0.0,0.0,0.0,0.0,0.0,0.0,0.0,0.0,0.0,0.0,0.0,0.0,0.0,0.0,0.0,0.0,0.0,0.0,0.0,0.0,0.0,0.0,0.0,0.0,0.0,0.0,0.0,0.0,0.0,-2.3701,-2.4035,-2.4356,-2.4636,-2.517,-2.5317,-2.505,-2.4743,-2.4436,0.0,0.0,0.0,0.0,0.0,0.0,0.0,0.0,0.0,0.0,0.0,0.0,0.0,0.0,0.0,0.0,0.0,0.0,0.0,0.0,0.0,0.0,0.0,0.0,0.0,0.0,0.0,0.0,0.0,0.0,0.0,0.0,0.0,0.0,0.0,0.0,0.0,0.0,0.0,0.0,0.0,-3.3769,-3.3437,-3.4082,-3.4629,0.0,0.0,-3.4687,-3.4668,-3.4648,-3.4922,-3.5723,0.0,0.0,0.0,0.0,0.0,0.0,0.0,0.0,0.0,0.0,0.0,0.0,0.0,0.0,0.0,0.0,0.0,0.0,0.0,0.0,0.0,0.0,0.0,0.0,0.0,0.0,0.0,0.0,0.0,0.0,0.0,0.0,0.0,0.0,0.0,0.0,0.0,0.0,0.0,0.0,0.0,0.0,0.0,0.0,0.0,0.0,0.0,0.0,0.0,0.0,0.0,0.0,0.0,-2.3981,-2.4048,-2.4676,-2.5064,-2.517,-2.5398,-2.5545,-2.5625,-2.4983,-2.4663,0.0,0.0,0.0,0.0,0.0,0.0,0.0,0.0,0.0,0.0,0.0,0.0,0.0,0.0,0.0,0.0,0.0,0.0,0.0,0.0,0.0,0.0,0.0,0.0,0.0,0.0,0.0,0.0,-3.0462,-3.0974,-3.2011,0.0,0.0,0.0,0.0,0.0,0.0,0.0,0.0,0.0,0.0,-3.3809,-3.416,-3.4746,0.0,0.0,-3.5508,-3.5508,-3.5527,-3.5508,-3.5547,-3.5625,-3.5566,0.0,0.0,0.0,0.0,0.0,0.0,0.0,0.0,0.0,0.0,0.0,0.0,0.0,0.0,0.0,0.0,0.0,0.0,0.0,0.0,0.0,0.0,0.0,0.0,0.0,0.0,0.0,0.0,0.0,0.0,0.0,0.0,0.0,0.0,0.0,0.0,0.0,0.0,0.0,0.0,0.0,0.0,0.0,0.0,0.0,0.0,0.0,0.0,0.0,0.0,0.0,0.0,-2.4449,-2.4596,-2.5117,-2.5478,-2.5638,-2.5732,-2.5838,-2.5932,-2.5358,-2.505,0.0,0.0,0.0,0.0,0.0,0.0,0.0,0.0,0.0,0.0,0.0,0.0,0.0,0.0,0.0,0.0,0.0,0.0,0.0,0.0,0.0,0.0,0.0,0.0,0.0,0.0,0.0,0.0,-3.0642,-3.123,-3.2535,0.0,0.0,0.0,0.0,0.0,0.0,0.0,0.0,0.0,0.0,-3.4154,-3.4184,-3.5162,-3.5782,-3.5482,-3.607,-3.6601,-3.6582,-3.5912,-3.5659,-3.621,0.0,0.0,0.0,0.0,0.0,0.0,0.0,0.0,0.0,0.0,0.0,0.0,0.0,0.0,0.0,0.0,0.0,0.0,0.0,0.0,0.0,0.0,0.0,0.0,0.0,0.0,0.0,0.0,0.0,0.0,0.0,0.0,0.0,0.0,0.0,0.0,0.0,0.0,0.0,0.0,0.0,0.0,0.0,0.0,0.0,0.0,0.0,0.0,0.0,0.0,0.0,0.0,0.0,0.0,-2.5451,-2.5251,-2.5384,-2.5919,-2.6226,-2.6226,-2.5972,-2.5932,-2.5665,-2.5104,0.0,0.0,0.0,0.0,0.0,0.0,0.0,0.0,0.0,0.0,0.0,0.0,0.0,0.0,0.0,0.0,0.0,0.0,0.0,0.0,0.0,0.0,0.0,0.0,0.0,0.0,-3.0882,-3.0771,-3.0933,0.0,0.0,0.0,0.0,0.0,0.0,0.0,0.0,0.0,0.0,-3.5176,-3.5256,-3.3291,-3.5406,-3.6483,-3.4594,-3.6236,-3.7851,-3.7832,-3.5893,-3.5318,0.0,0.0,0.0,0.0,0.0,0.0,0.0,0.0,0.0,0.0,0.0,0.0,0.0,0.0,0.0,0.0,0.0,0.0,0.0,0.0,0.0,0.0,0.0,0.0,0.0,0.0,0.0,0.0,-2.3447,0.0,0.0,0.0,0.0,0.0,0.0,0.0,0.0,0.0,0.0,0.0,-2.4062,-2.4262,0.0,0.0,0.0,0.0,0.0,0.0,0.0,0.0,0.0,0.0,0.0,0.0,-2.5317,-2.5518,-2.5798,-2.5959,-2.5959,-2.6239,-2.6346,-2.6239,-2.6052,-2.5772,-2.5384,0.0,0.0,0.0,0.0,0.0,0.0,0.0,0.0,0.0,0.0,0.0,0.0,0.0,0.0,0.0,0.0,0.0,0.0,0.0,0.0,0.0,0.0,0.0,0.0,0.0,-2.7194,0.0,0.0,0.0,0.0,0.0,0.0,0.0,0.0,0.0,0.0,0.0,-3.4165,-3.2173,-3.4221,-3.5505,-3.4015,-3.4609,-3.56,0.0,0.0,0.0,0.0,0.0,0.0,0.0,0.0,0.0,0.0,0.0,0.0,0.0,0.0,-3.707,-3.6367,-3.6133,-3.6035,-3.6035,0.0,0.0,0.0,0.0,0.0,0.0,0.0,0.0,0.0,0.0,0.0,0.0,0.0,0.0,0.0,0.0,-2.3567,0.0,0.0,0.0,0.0,0.0,0.0,0.0,0.0,-2.4422,-2.4609,-2.481,-2.501,-2.5144,0.0,-2.5237,-2.505,0.0,0.0,0.0,0.0,0.0,0.0,0.0,0.0,-2.5798,-2.5825,-2.6092,-2.6199,-2.6119,-2.6293,-2.64,-2.6386,-2.6106,-2.5905,-2.5825,-2.5625,-2.5558,0.0,0.0,0.0,0.0,0.0,0.0,0.0,0.0,0.0,0.0,0.0,0.0,0.0,0.0,0.0,0.0,0.0,0.0,0.0,0.0,0.0,0.0,0.0,-2.6235,0.0,0.0,0.0,0.0,0.0,0.0,0.0,0.0,0.0,-3.2259,-3.2911,-3.2672,-3.0733,-3.2702,-3.3801,-3.2543,0.0,0.0,0.0,0.0,0.0,0.0,0.0,-3.67,-3.7194,-3.7035,-3.7054,-3.7383,-3.7634,-3.7851,-3.8281,0.0,0.0,-3.6992,-3.6914,-3.6914,-3.6914,-3.6699,-3.6582,-3.6855,-3.6797,-3.6758,0.0,0.0,0.0,0.0,0.0,0.0,0.0,0.0,-2.3848,-2.3861,0.0,-2.3848,0.0,0.0,0.0,0.0,0.0,0.0,0.0,0.0,-2.513,-2.5438,-2.5959,-2.5985,-2.6146,-2.64,-2.64,-2.6386,-2.6319,-2.5251,0.0,0.0,0.0,0.0,0.0,0.0,-2.5838,-2.6346,-2.6119,-2.6106,-2.6373,-2.6386,-2.64,-2.6386,-2.6119,-2.6106,-2.6346,-2.5852,-2.5678,-2.5959,-2.5438,0.0,0.0,0.0,0.0,0.0,0.0,0.0,0.0,0.0,0.0,0.0,0.0,0.0,0.0,0.0,0.0,0.0,0.0,0.0,0.0,-2.8919,0.0,0.0,0.0,0.0,0.0,0.0,0.0,0.0,0.0,0.0,-3.1572,-3.1213,-3.0595,-3.0157,0.0,0.0,0.0,0.0,-3.3984,-3.0346,-3.3245,-3.5316,-3.3617,-3.3026,-3.3551,-3.5736,0.0,0.0,-3.5199,-3.6538,-3.75,-3.7871,-3.7676,-3.7598,-3.8379,-3.8418,-3.8418,-3.8418,-3.834,-3.8496,-3.8476,-3.8008,-3.7832,-2.5972,0.0,0.0,0.0,0.0,-2.501,-2.501,-2.501,-2.501,-2.501,-2.4997,-2.4796,0.0,0.0,0.0,0.0,0.0,0.0,-2.5545,-2.5732,-2.6132,-2.6413,-2.6587,-2.6787,-2.6934,-2.7014,-2.7014,-2.6907,-2.6694,-2.636,-2.6132,-2.6026,0.0,0.0,0.0,0.0,-2.6426,-2.6386,-2.6306,-2.6306,-2.6386,-2.64,-2.64,-2.6386,-2.6306,-2.6306,-2.6386,-2.6226,-2.6266,-2.6547,-2.6012,0.0,0.0,0.0,0.0,0.0,0.0,0.0,0.0,0.0,0.0,0.0,0.0,0.0,0.0,0.0,0.0,0.0,0.0,0.0,-2.5297,-2.9232,-3.0784,0.0,0.0,0.0,0.0,0.0,0.0,0.0,0.0,0.0,-2.9571,-3.0405,-3.0535,0.0,0.0,-3.171,-3.1872,-3.1517,-3.1727,-3.3532,0.0,0.0,0.0,-3.5069,-3.4837,-3.3753,-3.4087,-3.49,-3.5348,-3.6991,-3.8242,-3.8379,-3.8281,-3.8301,-3.8457,-3.8066,-3.7715,-3.7656,-3.7656,-3.7656,-3.7656,-3.7773,-3.793,-2.6854,-2.6199,-2.6079,-2.5972,-2.5865,-2.5865,-2.5865,-2.5852,-2.5865,-2.5852,-2.5852,-2.5678,-2.5598,-2.5585,-2.5411,0.0,0.0,0.0,-2.636,-2.648,-2.6841,-2.7054,-2.7175,-2.7348,-2.7495,-2.7615,-2.7615,-2.7522,-2.7348,-2.7228,-2.7081,-2.6907,0.0,0.0,-2.656,-2.6627,-2.656,-2.64,-2.64,-2.64,-2.64,-2.6507,-2.656,-2.656,-2.656,-2.656,-2.656,-2.6453,-2.652,-2.68,-2.6493,-2.6253,0.0,0.0,0.0,0.0,0.0,0.0,0.0,0.0,0.0,0.0,0.0,-2.3823,0.0,0.0,0.0,0.0,-2.518,-2.4489,-2.4302,-2.7855,0.0,0.0,0.0,0.0,0.0,0.0,0.0,-3.1544,-2.9351,-2.8226,-2.916,-2.9185,-2.8882,-2.8284,-2.9041,-2.99,-3.0297,0.0,-3.0053,-3.1711,-3.1686,-3.1629,-3.2074,-3.3,-3.3337,-3.1884,-3.3379,-3.428,-3.3669,-3.521,-3.6454,-3.6604,-3.6472,-3.6454,-3.6622,-3.6052,-3.6365,-3.7565,-3.7812,-3.7793,-3.7812,-3.8008,-3.8184,-2.7335,-2.7308,-2.7041,-2.6747,-2.6466,-2.6453,-2.6466,-2.6453,-2.6453,-2.6453,-2.6453,-2.6453,-2.6466,-2.6453,-2.6466,0.0,0.0,-2.6881,-2.7041,-2.7295,-2.7321,-2.7482,-2.7722,-2.7736,-2.7869,-2.8136,-2.815,-2.8136,-2.8083,-2.7816,-2.7709,-2.7709,-2.6907,-2.66,-2.68,-2.656,-2.6426,-2.6426,-2.6426,-2.644,-2.6466,-2.672,-2.6854,-2.6854,-2.6854,-2.6854,-2.6854,-2.6573,-2.6573,-2.6867,-2.6841,-2.672,-2.6507,0.0,0.0,0.0,0.0,0.0,0.0,0.0,0.0,0.0,0.0,0.0,0.0,0.0,0.0,0.0,-2.5834,0.0,-2.5184,-2.5617,0.0,0.0,0.0,-2.8743,-2.8997,-2.9071,-2.9955,-3.1996,0.0,0.0,0.0,0.0,-2.6373,-2.6132,-2.6266,-2.64,-2.6756,-2.8147,-2.8573,-2.7402,-2.8705,-2.9195,-2.8269,-2.9428,-3.0695,-3.0999,-3.2316,-3.3215,-3.1794,-3.2916,-3.3875,-3.4484,-3.4032,-3.4189,-3.4049,-3.4467,-3.4968,-3.8259,-3.8545,-3.8379,-3.829,-3.8584,-3.875,-2.7936,-2.7923,-2.7856,-2.7535,-2.7068,-2.7054,-2.7054,-2.7054,-2.7054,-2.7054,-2.7054,-2.7054,-2.7054,-2.7054,-2.7054,-2.7094,-2.7161,-2.7388,-2.7522,-2.7602,-2.7829,-2.7976,-2.803,-2.8043,-2.807,-2.8136,-2.815,-2.803,-2.7802,-2.7736,-2.7816,-2.8003,-2.7602,-2.7201,-2.6841,-2.6747,-2.672,-2.672,-2.672,-2.6827,-2.7054,-2.7121,-2.7161,-2.7161,-2.7161,-2.7161,-2.7148,-2.6881,-2.6961,-2.7442,-2.7068,-2.6987,-2.7362,-2.7388,0.0,0.0,0.0,0.0,0.0,0.0,0.0,0.0,0.0,-2.5227,-2.5349,0.0,-2.643,0.0,-2.6026,-2.6079,-2.6079,-2.8075,0.0,0.0,-2.8833,-2.9676,-2.8011,-2.7688,-2.8122,-2.8725,-2.7934,-2.7405,-2.8099,-2.7554,-2.7121,-2.7241,-2.676,-2.7168,-2.9167,-2.8255,-2.788,-2.9036,-2.9777,-2.9996,-2.9545,-2.988,-3.0915,-3.2617,-3.4535,-3.5779,-3.5314,-3.6877,-3.831,-3.831,-3.831,-3.831,-3.8042,-3.8554,-3.8858,-3.9755,-3.8538,-3.7154,-3.7601,-3.8709,-3.9668,-2.815,-2.815,-2.815,-2.7949,-2.7655,-2.7655,-2.7655,-2.7655,-2.7655,-2.7655,-2.7655,-2.7655,-2.7655,-2.7655,-2.7655,-2.7655,-2.7669,-2.7816,-2.7896,-2.7909,-2.807,-2.8217,-2.835,-2.835,-2.8417,-2.8537,-2.8537,-2.8457,-2.8297,-2.8163,-2.819,-2.8337,-2.8043,-2.7736,-2.7415,-2.7281,-2.7215,-2.7215,-2.7081,-2.7094,-2.7268,-2.7388,-2.7589,-2.7843,-2.7602,-2.7589,-2.7843,-2.7321,-2.7348,-2.8043,-2.7655,-2.7615,-2.807,-2.7963,-2.7829,0.0,0.0,0.0,0.0,0.0,0.0,0.0,0.0,0.0,0.0,0.0,-2.6841,0.0,0.0,0.0,-2.6774,-2.8172,-2.8459,-2.7203,-2.8423,-2.8931,-2.762,-2.7455,-2.7575,-2.7856,-2.7749,-2.7709,-2.7869,-2.7762,-2.7709,-2.7869,-2.7482,-2.7717,-2.8818,-2.7934,-2.7703,-2.8677,-2.9115,-2.9328,-2.942,-2.9642,-3.0166,-3.1437,-3.2601,-3.3579,-3.4714,-3.4859,-3.5358,-3.6338,-3.5857,-3.5036,-3.5036,-3.5187,-3.5338,-3.5304,-3.5009,-3.5806,-3.8411,-3.9817,-4.0547,-2.8163,-2.8203,-2.8203,-2.823,-2.8257,-2.8257,-2.8217,-2.815,-2.815,-2.815,-2.815,-2.815,-2.815,-2.815,-2.819,-2.8203,-2.8203,-2.8243,-2.8257,-2.8257,-2.8257,-2.8404,-2.8657,-2.8657,-2.8791,-2.9032,-2.9045,-2.9045,-2.9032,-2.8778,-2.8684,-2.8711,-2.8444,-2.8337,-2.835,-2.8083,-2.7896,-2.7816,-2.7602,-2.7509,-2.7549,-2.7762,-2.8136,-2.8657,-2.8177,-2.8123,-2.8617,-2.7869,-2.7816,-2.8591,-2.8377,-2.8337,-2.8631,-2.8404,-2.815,0.0,-2.7602,0.0,0.0,0.0,0.0,0.0,0.0,0.0,0.0,-2.7121,-2.7722,-2.7749,-2.7522,-2.7375,-2.7375,-2.7375,-2.7375,-2.7375,-2.7375,-2.7482,-2.7722,-2.7789,-2.7909,-2.8177,-2.823,-2.8257,-2.827,-2.8257,-2.8257,-2.8337,-2.8323,-2.8399,-2.7989,-2.7883,-2.7749,-2.7509,-2.7736,-2.8541,-2.9316,-2.9439,-2.9694,-2.9914,-3.062,-3.0662,-3.2996,-3.1827,-3.0821,-3.2513,-3.2141,-3.0634,-2.9996,-3.0344,-3.0385,-3.1065,-3.2774,-3.5255,-3.858,-3.9757,-4.0526,-2.8297,-2.8511,-2.8511,-2.8657,-2.8871,-2.8871,-2.8591,-2.815,-2.815,-2.815,-2.815,-2.815,-2.815,-2.8163,-2.8404,-2.8524,-2.8537,-2.8764,-2.8871,-2.8871,-2.8871,-2.8898,-2.8951,-2.8965,-2.8991,-2.9032,-2.9045,-2.9045,-2.9045,-2.8978,-2.9085,-2.9312,-2.9259,-2.9352,0.0,0.0,0.0,0.0,-2.8604,-2.8818,-2.9045,-2.8885,-2.8951,-2.9299,-2.8978,0.0,-2.8938,-2.8564,-2.8537,-2.8911,-2.8684,0.0,0.0,0.0,0.0,0.0,0.0,0.0,0.0,0.0,0.0,0.0,-2.7749,-2.7736,-2.7415,-2.7575,-2.7802,-2.803,-2.8016,-2.7976,-2.7976,-2.7976,-2.7976,-2.7976,-2.7976,-2.8003,-2.8056,-2.8283,-2.847,-2.8511,-2.8724,-2.8858,-2.8858,-2.8871,-2.8965,-2.9152,-2.9232,-2.9205,-2.9138,-2.8724,-2.8511,-2.8671,-2.8898,-2.9918,-3.2033,-3.2062,-3.2383,-3.4374,-3.5051,-3.5067,-3.5224,-3.5051,-3.4878,-3.5412,-3.524,-3.4721,-3.4721,-3.5304,-3.4937,-3.551,-3.7625,-3.8597,-3.5354,-3.5574,-3.6771,-2.8671,0.0,-2.8818,-2.8898,0.0,-2.9045,-2.8871,-2.8591,-2.8591,-2.8591,-2.8591,-2.8591,-2.8577,-2.8591,-2.8751,-2.8831,-2.8831,-2.8978,-2.9045,-2.9045,-2.9045,-2.9125,-2.9259,-2.9259,-2.9339,-2.9472,-2.9472,-2.9472,-2.9472,-2.9472,-2.9553,-2.97,-2.9847,-2.9993,-3.0127,-3.014,-2.97,-2.8831,-2.8965,-2.9179,-2.9459,-2.9339,-2.9539,-3.0087,0.0,0.0,0.0,0.0,0.0,0.0,0.0,0.0,0.0,0.0,0.0,-2.9045,-2.8898,-2.8818,-2.8818,-2.8671,-2.8524,-2.8377,-2.8497,-2.839,-2.7949,-2.8056,-2.8203,-2.8364,-2.8497,-2.8591,-2.8591,-2.8577,-2.8591,-2.8591,-2.8591,-2.8591,-2.8604,-2.8724,-2.8818,-2.8831,-2.8951,-2.9098,-2.9245,-2.9259,-2.9379,-2.9659,-2.9833,-2.9913,-2.9887,-2.9539,-2.9325,-2.9446,-2.9579,-3.0136,-3.1469,-3.1883,-3.2133,-3.3264,-3.368,-3.42,-3.5072,-3.4378,-3.4022,-3.4895,-3.4378,-3.368,-3.368,-3.3829,-3.3948,-3.4128,-3.5132,-3.5475,-3.2655,-3.6237,-4.0295,-2.9072,-2.9112,-2.9125,-2.9152,-2.9192,-2.9192,-2.9192,-2.9192,0.0,0.0,0.0,-2.9045,-2.9045,-2.9045,-2.9085,-2.9112,-2.9125,-2.9179,-2.9192,-2.9192,-2.9192,-2.9325,-2.9553,-2.9566,-2.9713,-2.9993,-2.9993,-3.002,-3.0074,-3.0074,-3.0074,-3.0087,-3.0314,-3.0434,-3.0448,-3.0675,-3.0314,-2.9406,-2.9352,-2.9499,-2.978,-2.974,-3.0087,-3.0849,-3.0354,-3.0301,-3.0755,-3.0327,-3.0181,-3.0421,-3.0194,-3.0074,-3.006,-2.9793,-2.9539,-2.9299,-2.9232,-2.9192,-2.9192,-2.9192,-2.9179,-2.9125,-2.9112,-2.8885,-2.8337,-2.8537,-2.8684,-2.8684,-2.8898,-2.9032,-2.9045,-2.9032,-2.9045,-2.9045,-2.9045,-2.9032,-2.9032,-2.9098,-2.9112,-2.9125,-2.9179,-2.9285,-2.9526,-2.9619,-2.9713,-2.9967,-3.0234,-3.0474,-3.0474,-3.0247,-3.0074,-3.0154,-3.0221,-3.0274,-3.0515,-3.0805,-3.0688,-3.1272,-3.1127,-3.1669,-3.2916,-3.2209,-3.1854,-3.3451,-3.2209,-3.1299,-3.1127,-3.1326,-3.0942,-3.0942,-3.1299,-3.1669,-3.2195,-3.8102,-4.2827,-2.9192,-2.9419,-2.9419,-2.9566,-2.9793,-2.9793,-2.9793,-2.9753,-2.9259,-2.9045,-2.9045,-2.9045,-2.9045,-2.9058,-2.9299,-2.9419,-2.9432,-2.9686,-2.9793,0.0,-2.9793,-2.982,-2.9847,-2.986,-3.0007,-3.0287,-3.0301,-3.0421,-3.0648,-3.0662,-3.0675,-3.0662,-3.0715,-3.0728,-3.0742,-3.0768,-3.0715,-3.0555,-3.0541,-3.0688,-3.0969,-3.0742,-3.0782,-3.1116,-3.0849,-3.0702,-3.0782,-3.0715,-3.0688,-3.0728,-3.0688,-3.0675,-3.0662,-3.0394,-3.0221,-3.0167,-2.994,-2.9793,-2.9793,-2.9793,-2.9686,-2.9446,-2.9419,-2.9272,-2.8951,-2.8951,-2.8978,-2.8978,-2.9032,-2.9045,-2.9045,-2.9058,-2.9072,-2.9058,-2.9058,-2.9045,-2.9098,-2.9312,-2.9459,-2.9472,-2.9646,-2.9793,-2.9887,-3.0074,-3.0221,-3.0327,-3.0555,-3.0808,-3.0982,-3.0862,-3.0795,-3.0982,-3.1049,-3.1169,-3.1316,-3.1476,-3.1463,-3.153,-3.1543,-3.1732,-3.2285,-3.1908,-3.1732,-3.2096,-3.1908,-3.1543,-3.1543,-3.1543,-3.1557,-3.1732,-3.2821,-3.4103,-3.4103,-3.7385,-3.8465,-2.9593,-2.9713,-2.9713,-2.9793,-2.9913,-2.9913,-3.0007,-3.0127,-2.9873,-2.9659,-2.9513,-2.9513,-2.9513,-2.9526,-2.9659,-2.9713,-2.9726,-3.002,-3.0167,-3.0167,-3.0314,-3.0394,-3.0394,-3.0394,-3.0461,-3.0595,-3.0595,-3.0662,-3.0782,-3.0795,-3.0795,-3.0808,-3.0942,-3.1102,-3.1263,-3.1263,-3.1276,-3.1263,-3.0955,-3.0929,-3.1209,-3.1089,-3.1169,-3.1463,-3.133,-3.1276,-3.1263,-3.1263,-3.1196,-3.1036,-3.1022,-3.0955,-3.0795,-3.0662,-3.0595,-3.0595,-3.0461,-3.0394,-3.0394,-3.0394,-3.0327,-3.0207,-3.0194,-3.014,-3.0007,-2.9553,-2.9285,-2.9285,-2.9419,-2.9513,-2.9513,-2.9513,-2.9513,-2.9513,-2.9659,-2.9753,-2.978,-3.002,-3.0194,-3.0207,-3.0301,-3.0394,-3.0394,-3.0515,-3.0595,-3.0621,-3.0849,-3.1129,-3.1423,-3.1356,-3.1303,-3.1436,-3.1463,-3.1517,-3.165,-3.181,-3.1891,-3.1904,-3.2051,-3.2131,-3.2144,-3.2144,-3.2131,-3.2144,-3.2144,-3.2144,-3.2131,-3.2144,-3.2144,-3.2337,-3.2887,-3.3816,-3.4007,-3.4754,-3.5262,-3.006,-3.0114,-3.0114,-3.0114,-3.0114,-3.0114,-3.0247,-3.0448,-3.0448,-3.0327,-3.0127,-3.0114,-3.0114,-3.0114,-3.0114,-3.0114,-3.014,-3.0354,-3.0461,-3.0488,-3.0688,-3.0795,-3.0795,-3.0795,-3.0822,-3.0889,-3.0889,-3.0915,-3.0982,-3.0996,-3.0996,-3.1009,-3.1223,-3.1436,-3.1664,-3.1677,-3.1677,-3.165,-3.1223,-3.1102,-3.1316,-3.133,-3.1436,-3.165,-3.173,-3.177,-3.177,-3.1837,-3.1757,-3.153,-3.1463,-3.1316,-3.1102,-3.1022,-3.0982,-3.0982,-3.0996,-3.0996,-3.0996,-3.0996,-3.0969,-3.0902,-3.0889,-3.0862,-3.0742,-3.0181,-2.978,-2.9806,-2.9993,-3.0114,-3.0114,-3.0114,-3.0114,-3.0127,-3.0314,-3.0421,-3.0474,-3.0662,-3.0795,-3.0795,-3.0795,-3.0782,-3.0795,-3.0849,-3.0915,-3.1022,-3.1183,-3.1436,-3.169,-3.177,-3.1784,-3.1837,-3.1824,-3.177,-3.1784,-3.2011,-3.2185,-3.2198,-3.2372,-3.2465,-3.2492,-3.2519,-3.2532,-3.2492,-3.2519,-3.2492,-3.2519,-3.2519,-3.2505,-3.2478,-3.266,-3.27,-3.2868,-3.2868,-3.3533,-3.0461,-3.0688,-3.0688,-3.0715,-3.0688,-3.0688,-3.0715,-3.0742,-3.0755,-3.0742,-3.0715,-3.0715,-3.0702,-3.0715,-3.0688,-3.0675,-3.0688,-3.0742,-3.0755,-3.0755,-3.0782,-3.0795,-3.0822,-3.0808,-3.0942,-3.1156,-3.1183,-3.1316,-3.153,-3.1557,-3.157,-3.1583,-3.161,-3.1637,-3.1677,-3.1677,-3.1677,-3.1677,-3.1623,-3.161,-3.1623,-3.1637,-3.1637,-3.1677,-3.1931,-3.2064,-3.2064,-3.2332,-3.2452,-3.2398,-3.2144,-3.1998,-3.1944,-3.173,-3.1583,-3.1597,-3.1583,-3.1597,-3.1583,-3.1583,-3.1463,-3.1223,-3.1183,-3.1089,-3.0849,-3.0728,-3.0675,-3.0662,-3.0688,-3.0662,-3.0702,-3.0688,-3.0648,-3.0635,-3.0715,-3.0755,-3.0768,-3.0768,-3.0795,-3.0795,-3.0862,-3.0795,-3.0875,-3.1049,-3.1289,-3.1517,-3.1583,-3.173,-3.1998,-3.2064,-3.2144,-3.2305,-3.2251,-3.2091,-3.2104,-3.2305,-3.2478,-3.2505,-3.2532,-3.2612,-3.2639,-3.2625,-3.2559,-3.2706,-3.2612,-3.2639,-3.2612,-3.2545,-3.2585,-3.2666,-3.2652,-3.2585,-3.2559,-3.2599,-3.3116,-3.0688,-3.0795,-3.0795,-3.0795,-3.0795,-3.0795,-3.0889,-3.1049,-3.1049,-3.1142,-3.1303,-3.1303,-3.1116,-3.0795,-3.0795,-3.0795,-3.0808,-3.0969,-3.1049,-3.1062,-3.1223,-3.1303,-3.1316,-3.1316,-3.1383,-3.1476,-3.149,-3.1557,-3.165,-3.1677,-3.1677,-3.1677,-3.1677,-3.1757,-3.1917,-3.1917,-3.2011,-3.2185,-3.2185,-3.2185,-3.2171,-3.2011,-3.2011,-3.2185,-3.2305,-3.2372,-3.2372,-3.2492,-3.2545,-3.2545,-3.2425,-3.2358,-3.2372,-3.2251,-3.2185,-3.2185,-3.2185,-3.2104,-3.1931,-3.1917,-3.1797,-3.1517,-3.149,-3.1436,-3.133,-3.1316,-3.1303,-3.1276,-3.1009,-3.0795,-3.0808,-3.0795,-3.0795,-3.0808,-3.0942,-3.1049,-3.1049,-3.1209,-3.1303,-3.1316,-3.1303,-3.1303,-3.133,-3.141,-3.161,-3.1851,-3.1931,-3.2038,-3.2305,-3.2358,-3.2412,-3.2519,-3.2572,-3.2545,-3.2438,-3.2612,-3.2772,-3.2826,-3.2946,-3.3053,-3.3026,-3.3053,-3.3066,-3.304,-3.3013,-3.3013,-3.3093,-3.3053,-3.3053,-3.3026,-3.3053,-3.3053,-3.3053,-3.3053,-3.3053,-3.0969,-3.1036,-3.1036,-3.1036,-3.1036,-3.1036,-3.1156,-3.133,-3.1343,-3.1463,-3.1664,-3.1677,-3.1436,-3.1076,-3.1036,-3.1036,-3.1062,-3.1249,-3.1343,-3.137,-3.157,-3.1677,-3.1677,-3.1677,-3.1677,-3.1677,-3.1664,-3.1704,-3.177,-3.1784,-3.1824,-3.1891,-3.1917,-3.2011,-3.2198,-3.2225,-3.2332,-3.2519,-3.2545,-3.2585,-3.2625,-3.2452,-3.2412,-3.2545,-3.2625,-3.2666,-3.2666,-3.2732,-3.2786,-3.2786,-3.2706,-3.2666,-3.2666,-3.2599,-3.2545,-3.2545,-3.2545,-3.2452,-3.2238,-3.2225,-3.2131,-3.1944,-3.1917,-3.1917,-3.1904,-3.1917,-3.1917,-3.1891,-3.1517,-3.1263,-3.1049,-3.1036,-3.1036,-3.1049,-3.1236,-3.1343,-3.137,-3.1557,-3.165,-3.1677,-3.161,-3.1704,-3.1784,-3.1864,-3.2011,-3.2185,-3.2225,-3.2332,-3.2585,-3.2666,-3.2692,-3.2772,-3.2973,-3.2946,-3.2746,-3.2906,-3.3066,-3.3133,-3.3267,-3.3347,-3.3414,-3.34,-3.34,-3.324,-3.336,-3.3387,-3.3293,-3.3347,-3.3427,-3.3414,-3.3414,-3.3414,-3.3334,-3.34,-3.34,-3.137,-3.161,-3.1623,-3.1597,-3.1623,-3.1597,-3.1623,-3.1623,-3.1637,-3.165,-3.1664,-3.1677,-3.165,-3.1597,-3.1597,-3.1623,-3.161,-3.161,-3.1623,-3.1623,-3.1664,-3.1677,-3.1677,-3.1677,-3.169,-3.1744,-3.1757,-3.1851,-3.2078,-3.2091,-3.2225,-3.2478,-3.2452,-3.2492,-3.2532,-3.2532,-3.2532,-3.2599,-3.2612,-3.2692,-3.2919,-3.2933,-3.2799,-3.2639,-3.2812,-3.2959,-3.2986,-3.3227,-3.336,-3.336,-3.3093,-3.2959,-3.2946,-3.2719,-3.2585,-3.2572,-3.2572,-3.2559,-3.2532,-3.2532,-3.2505,-3.2478,-3.2438,-3.2478,-3.2412,-3.2425,-3.2412,-3.2478,-3.2372,-3.2144,-3.1717,-3.1637,-3.1637,-3.1637,-3.165,-3.1677,-3.1677,-3.1757,-3.169,-3.173,-3.1797,-3.1891,-3.2078,-3.2332,-3.2438,-3.2505,-3.2532,-3.2639,-3.2879,-3.2959,-3.3053,-3.3227,-3.332,-3.3293,-3.3053,-3.3133,-3.332,-3.3347,-3.3334,-3.344,-3.3414,-3.3414,-3.3427,-3.3454,-3.3534,-3.3534,-3.3454,-3.344,-3.3494,-3.3521,-3.3547,-3.3547,-3.3641,-3.348,-3.3507,-3.157,-3.1677,-3.1677,-3.1677,-3.1677,-3.1677,-3.1677,-3.1677,-3.1677,-3.1677,-3.1677,-3.1677,-3.1677,-3.1677,-3.1864,-3.1851,-3.169,-3.1677,-3.1677,-3.1677,-3.1677,-3.177,-3.1944,-3.1944,-3.2051,-3.2211,-3.2225,-3.2278,-3.2372,-3.2385,-3.2438,-3.2519,-3.2545,-3.2639,-3.2786,-3.2826,-3.2906,-3.308,-3.3106,-3.3146,-3.3227,-3.3253,-3.32,-3.312,-3.32,-3.3253,-3.3253,-3.336,-3.3414,-3.3414,-3.3307,-3.3253,-3.324,-3.316,-3.3106,-3.3093,-3.3106,-3.3013,-3.2853,-3.2826,-3.2732,-3.2572,-3.2545,-3.2559,-3.2545,-3.2545,-3.2545,-3.2545,-3.2545,-3.2412,-3.2318,-3.2238,-3.2225,-3.2225,-3.2225,-3.2211,-3.2265,-3.2385,-3.2505,-3.2505,-3.2505,-3.2492,-3.2412,-3.2492,-3.2612,-3.2786,-3.2826,-3.2946,-3.3173,-3.3253,-3.3293,-3.3374,-3.34,-3.3374,-3.3293,-3.332,-3.34,-3.34,-3.3427,-3.3574,-3.3614,-3.3694,-3.3734,-3.3881,-3.3895,-3.3881,-3.3868,-3.3881,-3.3881,-3.3895,-3.3908,-3.3921,-3.4002,-3.3908,-3.3935,-3.1677,-3.1677,-3.1677,-3.1677,-3.1677,-3.1677,-3.173,-3.1797,-3.181,-3.1864,-3.1931,-3.1957,-3.1957,-3.1984,-3.2158,-3.2144,-3.1971,-3.1957,-3.1944,-3.1957,-3.1944,-3.2051,-3.2225,-3.2238,-3.2345,-3.2519,-3.2545,-3.2585,-3.2679,-3.2679,-3.2732,-3.2826,-3.2826,-3.2919,-3.3093,-3.312,-3.3227,-3.3387,-3.3414,-3.34,-3.3414,-3.3414,-3.3414,-3.3414,-3.3414,-3.3414,-3.3414,-3.3414,-3.3414,-3.3414,-3.3414,-3.3414,-3.3414,-3.3414,-3.3414,-3.3414,-3.34,-3.3334,-3.316,-3.312,-3.304,-3.2853,-3.2826,-3.2826,-3.2826,-3.2826,-3.2826,-3.2826,-3.2826,-3.2826,-3.2826,-3.2826,-3.2746,-3.2599,-3.2545,-3.2545,-3.2545,-3.2706,-3.2786,-3.2812,-3.2973,-3.2986,-3.2893,-3.2933,-3.308,-3.3253,-3.32,-3.3227,-3.336,-3.3414,-3.3414,-3.3414,-3.3414,-3.348,-3.3521,-3.3601,-3.3641,-3.3627,-3.3627,-3.3748,-3.3948,-3.4015,-3.4135,-3.4282,-3.4336,-3.4336,-3.4322,-3.4336,-3.4336,-3.4349,-3.4349,-3.4336,-3.4376,-3.4376,-3.4416,-3.169,-3.1704,-3.169,-3.1744,-3.1757,-3.1757,-3.1864,-3.2078,-3.2104,-3.2238,-3.2412,-3.2492,-3.2438,-3.2505,-3.2519,-3.2532,-3.2519,-3.2532,-3.2505,-3.2465,-3.2465,-3.2492,-3.2545,-3.2545,-3.2585,-3.2639,-3.2585,-3.2719,-3.2973,-3.2986,-3.3106,-3.3334,-3.3334,-3.332,-3.34,-3.3374,-3.3387,-3.3414,-3.3414,-3.3414,-3.3414,-3.3414,-3.3414,-3.3414,-3.3414,-3.3427,-3.3427,-3.3427,-3.3414,-3.3414,-3.3414,-3.3414,-3.3414,-3.3414,-3.3414,-3.3414,-3.3414,-3.3414,-3.34,-3.3387,-3.336,-3.3307,-3.336,-3.332,-3.3293,-3.332,-3.332,-3.3307,-3.332,-3.336,-3.3334,-3.3334,-3.3146,-3.2679,-3.2652,-3.2652,-3.2625,-3.2585,-3.2585,-3.2746,-3.3133,-3.3414,-3.3467,-3.3507,-3.3641,-3.3627,-3.3547,-3.34,-3.3427,-3.3454,-3.344,-3.344,-3.3507,-3.3614,-3.3748,-3.3881,-3.3908,-3.3908,-3.3908,-3.3988,-3.4295,-3.4456,-3.4603,-3.475,-3.475,-3.4736,-3.4603,-3.4603,-3.4549,-3.4563,-3.4629,-3.475,-3.479,-3.4817,-3.487,-3.1971,-3.1998,-3.2185,-3.2278,-3.2265,-3.2278,-3.2332,-3.2398,-3.2412,-3.2465,-3.2532,-3.2545,-3.2545,-3.2599,-3.2746,-3.2839,-3.2866,-3.3026,-3.2933,-3.2612,-3.2559,-3.2679,-3.2812,-3.2853,-3.2946,-3.3106,-3.3146,-3.3173,-3.3253,-3.3267,-3.3334,-3.34,-3.3414,-3.3414,-3.3414,-3.3414,-3.3414,-3.3414,-3.3414,-3.3414,-3.3414,-3.3414,-3.3414,-3.3414,-3.3414,-3.3507,-3.3708,-3.3534,-3.3414,-3.3427,-3.3414,-3.3414,-3.3414,-3.3414,-3.3414,-3.3414,-3.3414,-3.3414,-3.3414,-3.3427,-3.344,-3.3414,-3.3414,-3.3414,-3.3414,-3.3414,-3.3414,-3.3414,-3.3414,-3.3414,-3.3414,-3.3414,-3.3307,-3.316,-3.3133,-3.3106,-3.3106,-3.3293,-3.3454,-3.348,-3.3641,-3.3641,-3.3494,-3.3561,-3.3614,-3.3627,-3.3641,-3.3641,-3.3494,-3.3601,-3.3734,-3.3734,-3.3774,-3.3841,-3.4055,-3.4215,-3.4269,-3.4269,-3.4269,-3.4322,-3.4616,-3.4817,-3.499,-3.507,-3.5097,-3.5044,-3.4923,-3.4857,-3.4803,-3.487,-3.499,-3.5097,-3.5204,-3.5244,-3.5244,-3.2265,-3.2291,-3.2465,-3.2545,-3.2545,-3.2545,-3.2612,-3.2692,-3.2706,-3.2759,-3.2853,-3.2866,-3.2866,-3.2906,-3.3053,-3.3133,-3.316,-3.3334,-3.3213,-3.2906,-3.2866,-3.2973,-3.312,-3.3146,-3.3213,-3.3374,-3.3414,-3.3414,-3.3414,-3.3414,-3.3414,-3.3414,-3.3414,-3.3414,-3.3414,-3.3414,-3.3414,-3.3414,-3.3414,-3.3414,-3.344,-3.3534,-3.3587,-3.3601,-3.3694,-3.3855,-3.4015,-3.3855,-3.3748,-3.3748,-3.3748,-3.3748,-3.3748,-3.3761,-3.3748,-3.3748,-3.3748,-3.3761,-3.3748,-3.3788,-3.3748,-3.3734,-3.3654,-3.3587,-3.3574,-3.3507,-3.3414,-3.3414,-3.3414,-3.3414,-3.3414,-3.3414,-3.3414,-3.34,-3.3387,-3.3414,-3.344,-3.3587,-3.3668,-3.3668,-3.3788,-3.3761,-3.3654,-3.3587,-3.3587,-3.3614,-3.3654,-3.3761,-3.3627,-3.3761,-3.3881,-3.4002,-3.4055,-3.4189,-3.4416,-3.4536,-3.4616,-3.4643,-3.4656,-3.475,-3.495,-3.503,-3.5151,-3.5204,-3.5231,-3.5164,-3.5057,-3.5084,-3.5084,-3.5204,-3.5244,-3.5297,-3.5351,-3.5471,-3.5498,-3.2572,-3.2572,-3.2599,-3.2652,-3.2679,-3.2666,-3.2812,-3.3026,-3.3013,-3.3133,-3.332,-3.3374,-3.3387,-3.3387,-3.34,-3.3414,-3.34,-3.34,-3.3387,-3.3347,-3.3334,-3.3347,-3.336,-3.336,-3.3374,-3.34,-3.3414,-3.3414,-3.3414,-3.3414,-3.3414,-3.3414,-3.3414,-3.3414,-3.3414,-3.3414,-3.3427,-3.348,-3.3467,-3.348,-3.3521,-3.3761,-3.3908,-3.3921,-3.4122,-3.4282,-3.4322,-3.4349,-3.4336,-3.4309,-3.4242,-3.4229,-3.4282,-3.4309,-3.4255,-3.4229,-3.4295,-3.4269,-3.4295,-3.4215,-3.4229,-3.4202,-3.4028,-3.3908,-3.3881,-3.3721,-3.3574,-3.3574,-3.3547,-3.3521,-3.3521,-3.3534,-3.3534,-3.348,-3.3467,-3.3414,-3.3414,-3.3427,-3.3494,-3.3547,-3.3708,-3.3895,-3.3895,-3.3908,-3.3908,-3.3881,-3.3761,-3.3828,-3.3868,-3.4015,-3.4095,-3.4202,-3.4336,-3.4509,-3.4723,-3.479,-3.487,-3.4883,-3.4923,-3.5044,-3.5217,-3.5297,-3.5324,-3.5364,-3.5324,-3.5257,-3.5204,-3.5204,-3.5204,-3.5204,-3.5271,-3.5378,-3.5485,-3.5578,-3.5658,-3.2866,-3.2893,-3.3093,-3.332,-3.348,-3.3293,-3.336,-3.3587,-3.3387,-3.3334,-3.3454,-3.3668,-3.3627,-3.3454,-3.3668,-3.3641,-3.348,-3.3427,-3.3414,-3.3414,-3.3414,-3.3414,-3.3414,-3.3414,-3.3414,-3.3414,-3.3414,-3.3414,-3.3414,-3.3427,-3.3427,-3.3414,-3.3454,-3.344,-3.3414,-3.344,-3.3547,-3.3734,-3.3761,-3.3868,-3.4042,-3.4135,-3.4202,-3.4215,-3.4295,-3.4456,-3.4643,-3.4857,-3.4736,-3.4349,-3.4322,-3.4322,-3.4349,-3.4362,-3.4376,-3.4376,-3.4349,-3.4336,-3.4336,-3.4349,-3.4336,-3.4322,-3.4269,-3.4215,-3.4215,-3.4135,-3.4082,-3.4082,-3.4082,-3.4055,-3.4068,-3.4055,-3.4055,-3.4028,-3.3708,-3.3467,-3.3454,-3.3414,-3.3494,-3.3721,-3.3841,-3.3988,-3.4122,-3.4175,-3.4189,-3.4189,-3.4229,-3.4269,-3.4242,-3.4349,-3.4469,-3.4549,-3.4683,-3.483,-3.4963,-3.5044,-3.5097,-3.511,-3.5151,-3.5217,-3.5431,-3.5618,-3.5618,-3.5618,-3.5444,-3.5351,-3.5257,-3.5204,-3.5204,-3.5204,-3.5231,-3.5311,-3.5485,-3.5618,-3.5712,-3.316,-3.3173,-3.3347,-3.3521,-3.3668,-3.348,-3.3521,-3.3627,-3.3507,-3.3494,-3.3627,-3.3788,-3.3855,-3.3814,-3.3988,-3.3895,-3.3641,-3.3614,-3.3534,-3.3414,-3.3414,-3.3414,-3.3414,-3.3414,-3.3414,-3.3414,-3.3414,-3.3414,-3.344,-3.3534,-3.3601,-3.3654,-3.3734,-3.3788,-3.3814,-3.3801,-3.3868,-3.4042,-3.4068,-3.4162,-3.4309,-3.4456,-3.4496,-3.4536,-3.4603,-3.479,-3.495,-3.511,-3.5017,-3.4763,-3.4696,-3.4683,-3.4683,-3.4683,-3.4683,-3.4683,-3.4696,-3.4696,-3.4683,-3.4683,-3.4696,-3.467,-3.4603,-3.4523,-3.4482,-3.4416,-3.4322,-3.4295,-3.4322,-3.4322,-3.4322,-3.4322,-3.4322,-3.4255,-3.4002,-3.3801,-3.3788,-3.3828,-3.3881,-3.4015,-3.4082,-3.4122,-3.4309,-3.4322,-3.4322,-3.4336,-3.4389,-3.4456,-3.4523,-3.4696,-3.4817,-3.487,-3.491,-3.5017,-3.507,-3.5124,-3.5151,-3.5191,-3.5204,-3.5297,-3.5431,-3.5658,-3.5578,-3.5498,-3.5471,-3.5418,-3.5284,-3.5204,-3.5204,-3.5204,-3.5204,-3.5244,-3.5404,-3.5511,-3.5631,-3.3414,-3.3414,-3.3414,-3.3427,-3.3467,-3.3427,-3.3494,-3.3534,-3.3521,-3.3654,-3.3895,-3.3975,-3.4122,-3.4322,-3.4309,-3.4229,-3.3988,-3.4015,-3.3895,-3.3774,-3.3708,-3.3681,-3.3694,-3.3561,-3.3521,-3.3521,-3.3494,-3.3561,-3.3654,-3.3841,-3.3921,-3.3961,-3.4162,-3.4282,-3.4215,-3.4255,-3.4322,-3.4362,-3.4362,-3.4429,-3.4536,-3.471,-3.4803,-3.483,-3.499,-3.5097,-3.5151,-3.5204,-3.5164,-3.5191,-3.5204,-3.5137,-3.5164,-3.5177,-3.5164,-3.5137,-3.511,-3.5124,-3.5164,-3.511,-3.5151,-3.5097,-3.491,-3.4817,-3.4776,-3.4629,-3.4509,-3.4523,-3.4416,-3.4482,-3.4496,-3.4456,-3.4482,-3.4509,-3.4429,-3.4416,-3.4402,-3.4362,-3.4336,-3.4362,-3.4362,-3.4376,-3.4402,-3.4402,-3.4429,-3.4643,-3.4683,-3.4723,-3.479,-3.487,-3.5004,-3.5097,-3.5137,-3.5164,-3.5177,-3.5191,-3.5191,-3.5204,-3.5191,-3.5231,-3.5244,-3.5338,-3.5284,-3.5244,-3.5311,-3.5311,-3.5244,-3.5204,-3.5204,-3.5204,-3.5204,-3.5204,-3.5231,-3.5297,-3.5404,-3.3414,-3.3414,-3.3414,-3.3561,-3.3721,-3.3534,-3.3668,-3.4055,-3.3868,-3.3921,-3.4215,-3.4456,-3.4469,-3.4362,-3.4589,-3.4629,-3.4563,-3.4576,-3.4629,-3.4803,-3.4563,-3.4482,-3.4349,-3.4055,-3.3814,-3.3828,-3.4028,-3.4108,-3.4135,-3.4148,-3.4229,-3.4242,-3.4322,-3.4336,-3.4362,-3.4402,-3.4456,-3.4616,-3.467,-3.4776,-3.4923,-3.5017,-3.5084,-3.5084,-3.5164,-3.5191,-3.5204,-3.5204,-3.5204,-3.5204,-3.5204,-3.5204,-3.5204,-3.5204,-3.5204,-3.5204,-3.5204,-3.5204,-3.5204,-3.5204,-3.5204,-3.5191,-3.5124,-3.511,-3.511,-3.503,-3.499,-3.5004,-3.5004,-3.495,-3.4937,-3.499,-3.495,-3.4923,-3.495,-3.4963,-3.4923,-3.4603,-3.4496,-3.4603,-3.467,-3.475,-3.495,-3.4937,-3.495,-3.499,-3.5004,-3.503,-3.5044,-3.5057,-3.5124,-3.5204,-3.5204,-3.5204,-3.5204,-3.5204,-3.5204,-3.5204,-3.5204,-3.5204,-3.5204,-3.5204,-3.5204,-3.5204,-3.5204,-3.5204,-3.5204,-3.5204,-3.5204,-3.5204,-3.5204,-3.5204,-3.5204,-3.5204,-3.5204,-3.3414,-3.3414,-3.3414,-3.3507,-3.3627,-3.348,-3.3601,-3.3868,-3.3908,-3.4055,-3.4349,-3.4629,-3.4817,-3.4923,-3.4963,-3.5017,-3.511,-3.503,-3.511,-3.5257,-3.5097,-3.4963,-3.4937,-3.4656,-3.4402,-3.4189,-3.4229,-3.4322,-3.4349,-3.4469,-3.4523,-3.4549,-3.4643,-3.4763,-3.4736,-3.471,-3.483,-3.4937,-3.4963,-3.5044,-3.5177,-3.5204,-3.5204,-3.5204,-3.5204,-3.5204,-3.5204,-3.5204,-3.5204,-3.5204,-3.5204,-3.5204,-3.5204,-3.5204,-3.5204,-3.5204,-3.5204,-3.5204,-3.5204,-3.5204,-3.5204,-3.5204,-3.5204,-3.5204,-3.5204,-3.5204,-3.5204,-3.5204,-3.5191,-3.5191,-3.5204,-3.5191,-3.5204,-3.5204,-3.5204,-3.5204,-3.5137,-3.491,-3.4776,-3.4937,-3.4963,-3.503,-3.5151,-3.5191,-3.5191,-3.5097,-3.5097,-3.5124,-3.5124,-3.5137,-3.5151,-3.5204,-3.5204,-3.5204,-3.5204,-3.5204,-3.5204,-3.5204,-3.5204,-3.5204,-3.5204,-3.5204,-3.5204,-3.5204,-3.5204,-3.5204,-3.5204,-3.5204,-3.5204,-3.5204,-3.5204,-3.5204,-3.5204,-3.5204,-3.5204,-3.3414,-3.3414,-3.3414,-3.3414,-3.3414,-3.3467,-3.3547,-3.3641,-3.3881,-3.4255,-3.4456,-3.4736,-3.511,-3.5458,-3.5351,-3.5444,-3.5645,-3.5672,-3.5752,-3.5859,-3.5631,-3.5511,-3.5444,-3.5257,-3.499,-3.4549,-3.4536,-3.4523,-3.4576,-3.4683,-3.4817,-3.487,-3.5044,-3.5097,-3.5151,-3.5191,-3.5137,-3.5151,-3.5151,-3.5164,-3.5191,-3.5204,-3.5204,-3.5204,-3.5204,-3.5204,-3.5204,-3.5204,-3.5204,-3.5204,-3.5204,-3.5204,-3.5204,-3.5204,-3.5204,-3.5204,-3.5204,-3.5204,-3.5204,-3.5204,-3.5204,-3.5204,-3.5204,-3.5204,-3.5204,-3.5204,-3.5204,-3.5204,-3.5204,-3.5204,-3.5204,-3.5204,-3.5204,-3.5204,-3.5204,-3.5204,-3.5204,-3.5217,-3.5231,-3.5151,-3.5124,-3.5151,-3.5177,-3.5204,-3.5204,-3.5204,-3.5204,-3.5204,-3.5204,-3.5204,-3.5204,-3.5204,-3.5204,-3.5204,-3.5204,-3.5204,-3.5204,-3.5204,-3.5204,-3.5204,-3.5204,-3.5204,-3.5204,-3.5204,-3.5204,-3.5204,-3.5204,-3.5204,-3.5204,-3.5204,-3.5204,-3.5204,-3.5204,-3.5204,-3.5204,-3.3414,-3.3414,-3.3414,-3.3414,-3.3454,-3.3694,-3.3935,-3.4189,-3.4442,-3.4776,-3.5017,-3.511,-3.5311,-3.5565,-3.5605,-3.5845,-3.6206,-3.6353,-3.654,-3.6567,-3.634,-3.6206,-3.6086,-3.5778,-3.5498,-3.5378,-3.5164,-3.5004,-3.5004,-3.511,-3.507,-3.5124,-3.5164,-3.5204,-3.5204,-3.5204,-3.5204,-3.5204,-3.5204,-3.5204,-3.5204,-3.5204,-3.5204,-3.5204,-3.5204,-3.5204,-3.5204,-3.5204,-3.5204,-3.5204,-3.5204,-3.5204,-3.5204,-3.5204,-3.5204,-3.5204,-3.5204,-3.5204,-3.5204,-3.5204,-3.5204,-3.5204,-3.5204,-3.5204,-3.5204,-3.5204,-3.5204,-3.5204,-3.5204,-3.5204,-3.5204,-3.5204,-3.5204,-3.5204,-3.5231,-3.5217,-3.5244,-3.5378,-3.5431,-3.5297,-3.5244,-3.5204,-3.5204,-3.5204,-3.5204,-3.5204,-3.5204,-3.5204,-3.5204,-3.5204,-3.5204,-3.5204,-3.5204,-3.5204,-3.5204,-3.5204,-3.5204,-3.5204,-3.5204,-3.5204,-3.5204,-3.5204,-3.5204,-3.5204,-3.5204,-3.5204,-3.5204,-3.5204,-3.5204,-3.5204,-3.5204,-3.5204,-3.5204,-3.5204,-3.5204,-3.3414,-3.3427,-3.3587,-3.3654,-3.3708,-3.3988,-3.4189,-3.4349,-3.4629,-3.4923,-3.5177,-3.5364,-3.5672,-3.5952,-3.5912,-3.6112,-3.6487,-3.6807,-3.6927,-3.6887,-3.6794,-3.6633,-3.654,-3.6179,-3.5899,-3.5672,-3.5471,-3.5324,-3.5204,-3.5191,-3.5204,-3.5191,-3.5204,-3.5204,-3.5204,-3.5204,-3.5204,-3.5204,-3.5204,-3.5204,-3.5204,-3.5204,-3.5204,-3.5204,-3.5204,-3.5204,-3.5204,-3.5204,-3.5204,-3.5204,-3.5204,-3.5204,-3.5204,-3.5204,-3.5204,-3.5204,-3.5204,-3.5204,-3.5204,-3.5204,-3.5204,-3.5204,-3.5204,-3.5204,-3.5204,-3.5204,-3.5204,-3.5204,-3.5204,-3.5204,-3.5204,-3.5204,-3.5204,-3.5231,-3.5311,-3.5324,-3.5338,-3.5618,-3.5578,-3.5444,-3.5458,-3.5391,-3.5204,-3.5204,-3.5204,-3.5204,-3.5204,-3.5217,-3.5217,-3.5204,-3.5204,-3.5204,-3.5204,-3.5204,-3.5204,-3.5204,-3.5204,-3.5204,-3.5204,-3.5204,-3.5204,-3.5204,-3.5204,-3.5204,-3.5204,-3.5204,-3.5204,-3.5204,-3.5204,-3.5204,-3.5204,-3.5204,-3.5204,-3.5204,-3.5204,-3.3507,-3.3534,-3.3841,-3.3975,-3.4028,-3.4349,-3.4509,-3.4563,-3.491,-3.5191,-3.5378,-3.5631,-3.6006,-3.6353,-3.6366,-3.6393,-3.662,-3.6861,-3.6927,-3.6941,-3.6914,-3.6794,-3.6647,-3.6473,-3.6259,-3.5952,-3.5752,-3.5538,-3.5244,-3.5204,-3.5204,-3.5204,-3.5204,-3.5204,-3.5204,-3.5204,-3.5204,-3.5204,-3.5204,-3.5204,-3.5204,-3.5204,-3.5204,-3.5204,-3.5204,-3.5204,-3.5204,-3.5204,-3.5204,-3.5204,-3.5204,-3.5204,-3.5204,-3.5204,-3.5204,-3.5204,-3.5204,-3.5204,-3.5204,-3.5204,-3.5204,-3.5204,-3.5204,-3.5204,-3.5204,-3.5204,-3.5204,-3.5204,-3.5204,-3.5204,-3.5204,-3.5257,-3.5257,-3.5257,-3.5418,-3.5551,-3.5418,-3.5525,-3.5712,-3.5672,-3.5685,-3.5605,-3.5431,-3.5204,-3.5204,-3.5204,-3.5204,-3.5324,-3.5324,-3.5217,-3.5204,-3.5204,-3.5204,-3.5204,-3.5204,-3.5204,-3.5204,-3.5204,-3.5204,-3.5204,-3.5204,-3.5204,-3.5204,-3.5204,-3.5204,-3.5204,-3.5204,-3.5204,-3.5204,-3.5204,-3.5204,-3.5204,-3.5204,-3.5204,-3.5204,-3.3828,-3.3855,-3.4148,-3.4269,-3.4349,-3.483,-3.5084,-3.5151,-3.5605,-3.5925,-3.5925,-3.6006,-3.6206,-3.65,-3.674,-3.6821,-3.6887,-3.6901,-3.6941,-3.6941,-3.6941,-3.6914,-3.6834,-3.6607,-3.65,-3.6259,-3.6099,-3.5712,-3.5391,-3.5271,-3.5204,-3.5204,-3.5204,-3.5204,-3.5204,-3.5204,-3.5204,-3.5204,-3.5204,-3.5204,-3.5204,-3.5204,-3.5204,-3.5204,-3.5204,-3.5204,-3.5204,-3.5204,-3.5204,-3.5204,-3.5204,-3.5204,-3.5204,-3.5204,-3.5204,-3.5204,-3.5204,-3.5204,-3.5204,-3.5204,-3.5204,-3.5204,-3.5204,-3.5204,-3.5204,-3.5204,-3.5204,-3.5204,-3.5204,-3.5204,-3.5244,-3.5404,-3.5391,-3.5404,-3.5458,-3.5471,-3.5404,-3.5738,-3.5899,-3.5925,-3.5952,-3.5845,-3.5698,-3.5418,-3.5204,-3.5204,-3.5231,-3.5378,-3.5404,-3.5284,-3.5204,-3.5204,-3.5204,-3.5204,-3.5204,-3.5204,-3.5204,-3.5204,-3.5204,-3.5204,-3.5204,-3.5204,-3.5204,-3.5204,-3.5204,-3.5204,-3.5204,-3.5204,-3.5204,-3.5204,-3.5204,-3.5204,-3.5204,-3.5204,-3.5204,-3.4295,-3.4148,-3.4456,-3.4576,-3.4616,-3.5017,-3.5297,-3.5471,-3.5698,-3.6019,-3.6273,-3.6326,-3.6487,-3.674,-3.6901,-3.6927,-3.6941,-3.6941,-3.6941,-3.6941,-3.6941,-3.6941,-3.6914,-3.6807,-3.67,-3.6487,-3.6366,-3.6126,-3.5752,-3.5485,-3.5378,-3.5217,-3.5204,-3.5204,-3.5204,-3.5204,-3.5204,-3.5204,-3.5204,-3.5204,-3.5204,-3.5204,-3.5204,-3.5204,-3.5204,-3.5204,-3.5204,-3.5204,-3.5204,-3.5204,-3.5204,-3.5204,-3.5204,-3.5204,-3.5204,-3.5204,-3.5204,-3.5204,-3.5204,-3.5204,-3.5204,-3.5204,-3.5204,-3.5204,-3.5204,-3.5204,-3.5204,-3.5204,-3.5204,-3.5204,-3.5204,-3.5311,-3.5404,-3.5458,-3.5565,-3.5658,-3.5712,-3.5992,-3.6206,-3.6206,-3.6193,-3.6099,-3.6019,-3.5885,-3.5631,-3.5471,-3.5511,-3.5605,-3.5525,-3.5324,-3.5257,-3.5204,-3.5204,-3.5204,-3.5204,-3.5204,-3.5204,-3.5204,-3.5204,-3.5204,-3.5204,-3.5204,-3.5204,-3.5204,-3.5204,-3.5204,-3.5204,-3.5204,-3.5204,-3.5204,-3.5204,-3.5204,-3.5204,-3.5204,-3.5204,-3.4736,-3.4563,-3.4776,-3.487,-3.491,-3.5257,-3.5538,-3.5738,-3.5925,-3.6219,-3.6513,-3.662,-3.674,-3.6887,-3.6941,-3.6941,-3.6941,-3.6941,-3.6941,-3.6941,-3.6941,-3.6941,-3.6901,-3.6847,-3.6687,-3.65,-3.6366,-3.6206,-3.6006,-3.5765,-3.5498,-3.5297,-3.5231,-3.5204,-3.5204,-3.5204,-3.5204,-3.5204,-3.5204,-3.5204,-3.5204,-3.5204,-3.5204,-3.5204,-3.5204,-3.5204,-3.5204,-3.5204,-3.5204,-3.5204,-3.5204,-3.5204,-3.5204,-3.5204,-3.5204,-3.5204,-3.5204,-3.5204,-3.5204,-3.5204,-3.5204,-3.5204,-3.5204,-3.5204,-3.5204,-3.5204,-3.5204,-3.5204,-3.5204,-3.5204,-3.5217,-3.5257,-3.5431,-3.5578,-3.5712,-3.5872,-3.6032,-3.6179,-3.6313,-3.6366,-3.6366,-3.642,-3.6366,-3.634,-3.6153,-3.5845,-3.5805,-3.5845,-3.5698,-3.5485,-3.5431,-3.5404,-3.5351,-3.5324,-3.5217,-3.5217,-3.5217,-3.5204,-3.5204,-3.5204,-3.5204,-3.5204,-3.5204,-3.5204,-3.5204,-3.5204,-3.5204,-3.5204,-3.5204,-3.5204,-3.5204,-3.5204,-3.5204,-3.5204,-3.5257,-3.5151,-3.5137,-3.5164,-3.5164,-3.5204,-3.5778,-3.6006,-3.6086,-3.6567,-3.678,-3.6847,-3.6901,-3.6887,-3.6941,-3.6941,-3.6941,-3.6941,-3.6941,-3.6941,-3.6941,-3.6941,-3.6941,-3.6887,-3.6754,-3.6567,-3.6473,-3.6353,-3.6206,-3.6006,-3.5778,-3.5645,-3.5578,-3.5311,-3.5231,-3.5204,-3.5204,-3.5204,-3.5204,-3.5204,-3.5204,-3.5204,-3.5204,-3.5204,-3.5204,-3.5204,-3.5204,-3.5204,-3.5204,-3.5204,-3.5204,-3.5204,-3.5204,-3.5204,-3.5204,-3.5204,-3.5204,-3.5204,-3.5204,-3.5204,-3.5204,-3.5204,-3.5204,-3.5204,-3.5204,-3.5204,-3.5204,-3.5204,-3.5217,-3.5244,-3.5257,-3.5311,-3.5404,-3.5551,-3.5698,-3.5819,-3.5952,-3.6072,-3.6153,-3.6299,-3.6446,-3.654,-3.6607,-3.6633,-3.6607,-3.6433,-3.6126,-3.5965,-3.6006,-3.5952,-3.5792,-3.5738,-3.5685,-3.5605,-3.5485,-3.5297,-3.5271,-3.5284,-3.5231,-3.5204,-3.5204,-3.5204,-3.5204,-3.5204,-3.5204,-3.5204,-3.5204,-3.5204,-3.5204,-3.5204,-3.5204,-3.5204,-3.5204,-3.5204,-3.5204,-3.5311,-3.5565,-3.5712,-3.5538,-3.5458,-3.5498,-3.5899,-3.6179,-3.6353,-3.658,-3.678,-3.6941,-3.6941,-3.6941,-3.6941,-3.6941,-3.6941,-3.6941,-3.6941,-3.6941,-3.6941,-3.6941,-3.6941,-3.6874,-3.6807,-3.6687,-3.6513,-3.6366,-3.6219,-3.6046,-3.5778,-3.5672,-3.5538,-3.5338,-3.5231,-3.5204,-3.5204,-3.5204,-3.5204,-3.5204,-3.5204,-3.5204,-3.5204,-3.5204,-3.5204,-3.5204,-3.5204,-3.5204,-3.5204,-3.5204,-3.5204,-3.5204,-3.5204,-3.5204,-3.5204,-3.5204,-3.5204,-3.5204,-3.5204,-3.5204,-3.5204,-3.5204,-3.5204,-3.5204,-3.5204,-3.5204,-3.5204,-3.5204,-3.5244,-3.5351,-3.5418,-3.5485,-3.5565,-3.5658,-3.5805,-3.5939,-3.6072,-3.6206,-3.6313,-3.642,-3.6647,-3.674,-3.6807,-3.6834,-3.6847,-3.6633,-3.642,-3.6273,-3.6153,-3.6112,-3.6072,-3.6006,-3.5952,-3.5859,-3.5712,-3.5525,-3.5431,-3.5364,-3.5297,-3.5244,-3.5244,-3.5257,-3.5204,-3.5204,-3.5204,-3.5204,-3.5204,-3.5204,-3.5204,-3.5204,-3.5204,-3.5204,-3.5204,-3.5204,-3.5204,-3.5378,-3.5618,-3.5792,-3.5685,-3.5685,-3.5792,-3.6072,-3.6313,-3.65,-3.6607,-3.6727,-3.6941,-3.6941,-3.6941,-3.6941,-3.6941,-3.6941,-3.6941,-3.6941,-3.6941,-3.6941,-3.6941,-3.6941,-3.6914,-3.6821,-3.6647,-3.6513,-3.638,-3.6219,-3.6059,-3.5765,-3.5658,-3.5551,-3.5364,-3.5231,-3.5204,-3.5204,-3.5204,-3.5204,-3.5204,-3.5204,-3.5204,-3.5204,-3.5204,-3.5204,-3.5204,-3.5204,-3.5204,-3.5204,-3.5204,-3.5204,-3.5204,-3.5204,-3.5204,-3.5204,-3.5204,-3.5204,-3.5204,-3.5204,-3.5204,-3.5204,-3.5204,-3.5204,-3.5204,-3.5204,-3.5204,-3.5204,-3.5204,-3.5217,-3.5444,-3.5645,-3.5658,-3.5725,-3.5925,-3.6099,-3.6112,-3.6233,-3.6487,-3.6633,-3.6727,-3.6861,-3.6901,-3.6901,-3.6901,-3.6901,-3.674,-3.6593,-3.6593,-3.6446,-3.634,-3.6299,-3.6246,-3.6179,-3.6099,-3.5939,-3.5778,-3.5819,-3.5805,-3.5525,-3.5458,-3.5364,-3.5338,-3.5297,-3.5231,-3.5204,-3.5204,-3.5204,-3.5204,-3.5217,-3.5204,-3.5204,-3.5217,-3.5231,-3.5257,-3.5297,-3.5471,-3.5257,-3.5244,-3.5538,-3.5805,-3.6112,-3.6366,-3.65,-3.658,-3.6794,-3.6914,-3.6941,-3.6941,-3.6941,-3.6941,-3.6941,-3.6941,-3.6941,-3.6941,-3.6941,-3.6941,-3.6941,-3.6941,-3.6861,-3.674,-3.6633,-3.646,-3.6326,-3.6206,-3.6059,-3.5765,-3.5658,-3.5551,-3.5351,-3.5204,-3.5204,-3.5204,-3.5204,-3.5204,-3.5204,-3.5204,-3.5204,-3.5204,-3.5204,-3.5204,-3.5204,-3.5204,-3.5204,-3.5204,-3.5204,-3.5204,-3.5204,-3.5204,-3.5204,-3.5204,-3.5204,-3.5204,-3.5204,-3.5204,-3.5204,-3.5204,-3.5204,-3.5204,-3.5204,-3.5204,-3.5204,-3.5204,-3.5244,-3.5297,-3.5525,-3.5672,-3.5752,-3.5899,-3.6193,-3.6313,-3.6313,-3.638,-3.6607,-3.6834,-3.6887,-3.6914,-3.6927,-3.6941,-3.6941,-3.6901,-3.678,-3.6727,-3.6821,-3.6754,-3.6593,-3.654,-3.65,-3.6433,-3.6353,-3.6219,-3.6126,-3.6273,-3.6233,-3.5912,-3.5685,-3.5591,-3.5538,-3.5538,-3.5431,-3.5284,-3.5351,-3.5485,-3.5364,-3.5244,-3.5364,-3.5471,-3.5297,-3.5284,-3.5311,-3.5418,-3.5631,-3.5712,-3.6059,-3.5965,-3.6206,-3.6593,-3.654,-3.6607,-3.6794,-3.6887,-3.6941,-3.6941,-3.6941,-3.6941,-3.6941,-3.6941,-3.6941,-3.6941,-3.6941,-3.6941,-3.6941,-3.6941,-3.6941,-3.6887,-3.6821,-3.6687,-3.6527,-3.6366,-3.6233,-3.6072,-3.5832,-3.5672,-3.5551,-3.5351,-3.5217,-3.5204,-3.5204,-3.5204,-3.5204,-3.5204,-3.5204,-3.5204,-3.5204,-3.5204,-3.5204,-3.5204,-3.5204,-3.5204,-3.5204,-3.5204,-3.5204,-3.5204,-3.5204,-3.5204,-3.5204,-3.5204,-3.5204,-3.5204,-3.5204,-3.5204,-3.5204,-3.5204,-3.5204,-3.5231,-3.5231,-3.5204,-3.5204,-3.5284,-3.5498,-3.5752,-3.5952,-3.6206,-3.6273,-3.6446,-3.6446,-3.646,-3.646,-3.662,-3.6821,-3.6927,-3.6927,-3.6941,-3.6941,-3.6941,-3.6941,-3.6834,-3.6807,-3.6887,-3.6901,-3.678,-3.6794,-3.678,-3.67,-3.662,-3.6487,-3.6446,-3.65,-3.6406,-3.6099,-3.5912,-3.5819,-3.5792,-3.5778,-3.5658,-3.5525,-3.5658,-3.5778,-3.5672,-3.5605,-3.5738,-3.5778,-3.5618,-3.5578,-3.5685,-3.5778,-3.5899,-3.5912,-3.6313,-3.6153,-3.634,-3.674,-3.6687,-3.6767,-3.6927,-3.6941,-3.6941,-3.6941,-3.6941,-3.6941,-3.6941,-3.6941,-3.6941,-3.6941,-3.6941,-3.6941,-3.6941,-3.6941,-3.6941,-3.6941,-3.6927,-3.6821,-3.6674,-3.662,-3.6513,-3.6259,-3.6046,-3.5845,-3.5618,-3.5351,-3.5231,-3.5204,-3.5204,-3.5204,-3.5204,-3.5204,-3.5204,-3.5204,-3.5204,-3.5204,-3.5204,-3.5204,-3.5204,-3.5204,-3.5204,-3.5204,-3.5204,-3.5204,-3.5204,-3.5204,-3.5204,-3.5204,-3.5204,-3.5204,-3.5204,-3.5204,-3.5204,-3.5244,-3.5364,-3.5338,-3.5404,-3.5471,-3.5565,-3.5631,-3.5805,-3.6059,-3.6259,-3.646,-3.6527,-3.6633,-3.6633,-3.6647,-3.666,-3.67,-3.6901,-3.6941,-3.6941,-3.6941,-3.6941,-3.6941,-3.6941,-3.6914,-3.6914,-3.6941,-3.6941,-3.6941,-3.6941,-3.6941,-3.6874,-3.6821,-3.6714,-3.6633,-3.6607,-3.6487,-3.6259,-3.6193,-3.6166,-3.6032,-3.6006,-3.5885,-3.5778,-3.5872,-3.5952,-3.5979,-3.6006,-3.5992,-3.5992,-3.5939,-3.5965,-3.6072,-3.6126,-3.6179,-3.5819,-3.6072,-3.6086,-3.6273,-3.6553,-3.6807,-3.6927,-3.6941,-3.6941,-3.6941,-3.6941,-3.6941,-3.6941,-3.6941,-3.6941,-3.6941,-3.6941,-3.6941,-3.6941,-3.6941,-3.6941,-3.6941,-3.6941,-3.6927,-3.6901,-3.6914,-3.6874,-3.6727,-3.6527,-3.638,-3.6099,-3.5698,-3.5404,-3.5271,-3.5231,-3.5204,-3.5204,-3.5204,-3.5204,-3.5204,-3.5204,-3.5204,-3.5204,-3.5204,-3.5204,-3.5204,-3.5204,-3.5204,-3.5204,-3.5204,-3.5204,-3.5204,-3.5204,-3.5204,-3.5204,-3.5204,-3.5204,-3.5204,-3.5204,-3.5204,-3.5351,-3.5498,-3.5618,-3.5792,-3.5899,-3.5912,-3.5952,-3.6072,-3.6286,-3.642,-3.6553,-3.6714,-3.6874,-3.6874,-3.6874,-3.6887,-3.6887,-3.6941,-3.6941,-3.6941,-3.6941,-3.6941,-3.6941,-3.6941,-3.6941,-3.6941,-3.6941,-3.6941,-3.6941,-3.6941,-3.6941,-3.6941,-3.6901,-3.6914,-3.6847,-3.6754,-3.67,-3.6527,-3.662,-3.6607,-3.6446,-3.6259,-3.6206,-3.6139,-3.6086,-3.6139,-3.6286,-3.6246,-3.6112,-3.6126,-3.6273,-3.6299,-3.6393,-3.6366,-3.6406,-3.6112,-3.638,-3.638,-3.6553,-3.6807,-3.6901,-3.6941,-3.6941,-3.6941,-3.6941,-3.6941,-3.6941,-3.6941,-3.6941,-3.6941,-3.6941,-3.6941,-3.6941,-3.6941,-3.6719,-3.6484,-3.6719,-3.6706,-3.6484,-3.6706,-3.6706,-3.6471,-3.5988,-3.6533,-3.6414,-3.5962,-3.5685,-3.5498,-3.5364,-3.5271,-3.5204,-3.5204,-3.5204,-3.5204,-3.5204,-3.5204,-3.5204,-3.5204,-3.5204,-3.5204,-3.5204,-3.5204,-3.5204,-3.5204,-3.5204,-3.5204,-3.5204,-3.5204,-3.5204,-3.5204,-3.5204,-3.5204,-3.5204,-3.5204,-3.5204,-3.5338,-3.5645,-3.5819,-3.5952,-3.6046,-3.6139,-3.6219,-3.638,-3.6487,-3.6593,-3.67,-3.6847,-3.6941,-3.6941,-3.6941,-3.6941,-3.6941,-3.6941,-3.6941,-3.6941,-3.6941,-3.6941,-3.6941,-3.6941,-3.6941,-3.6941,-3.6941,-3.6941,-3.6941,-3.6941,-3.6941,-3.6941,-3.6941,-3.6941,-3.6941,-3.6861,-3.6861,-3.6847,-3.6887,-3.6861,-3.6633,-3.65,-3.6513,-3.646,-3.634,-3.6487,-3.6714,-3.6553,-3.6246,-3.654,-3.67,-3.6687,-3.6687,-3.662,-3.6607,-3.6406,-3.666,-3.6674,-3.678,-3.6914,-3.6941,-3.6941,-3.6941,-3.6941,-3.6941,-3.6941,-3.6941,-3.6941,-3.6941,-3.6941,-3.6941,-3.6941,-3.6941,-3.6941,-3.6706,-3.557,-3.5113,-3.489,-3.3974,-3.308,-3.3304,-3.3304,-3.2609,-3.3677,-3.4486,-3.4516,-3.5845,-3.5645,-3.5471,-3.5364,-3.5284,-3.5204,-3.5204,-3.5204,-3.5204,-3.5204,-3.5204,-3.5204,-3.5204,-3.5204,-3.5204,-3.5204,-3.5204,-3.5204,-3.5204,-3.5204,-3.5204,-3.5204,-3.5204,-3.5204,-3.5204,-3.5204,-3.5204,-3.5217,-3.5338,-3.5525,-3.5778,-3.6059,-3.6286,-3.6406,-3.6513,-3.6567,-3.666,-3.67,-3.674,-3.6847,-3.6941,-3.6941,-3.6941,-3.6941,-3.6941,-3.6941,-3.6941,-3.6941,-3.6941,-3.6941,-3.6941,-3.6941,-3.6941,-3.6941,-3.6941,-3.6941,-3.6941,-3.6941,-3.6941,-3.6941,-3.6941,-3.6941,-3.6941,-3.6941,-3.6941,-3.6914,-3.6901,-3.6914,-3.6861,-3.6727,-3.67,-3.6674,-3.6633,-3.6553,-3.666,-3.6714,-3.658,-3.642,-3.6687,-3.6767,-3.6633,-3.662,-3.674,-3.6767,-3.6467,-3.6927,-3.6941,-3.6927,-3.6941,-3.6941,-3.6941,-3.6719,-3.6484,-3.6706,-3.6719,-3.6941,-3.6706,-3.6028,-3.5806,-3.557,-3.489,-3.4668,-3.4668,-3.6028,-3.3292,-3.216,-3.1251,-2.9674,-2.9911,-2.8554,-2.8327,-2.9674,-2.9341,-3.0933,-3.3614,-3.5397,-3.4977,-3.4554,-3.4328,-3.4186,-3.4332,-3.5204,-3.5204,-3.5204,-3.5204,-3.5204,-3.5204,-3.5204,-3.5204,-3.5204,-3.5204,-3.5204,-3.5204,-3.5204,-3.5204,-3.5204,-3.5204,-3.5204,-3.5204,-3.5244,-3.5257,-3.5297,-3.5378,-3.5525,-3.5765,-3.6032,-3.634,-3.65,-3.6593,-3.6727,-3.6794,-3.6821,-3.6834,-3.6834,-3.6914,-3.6941,-3.6941,-3.6941,-3.6941,-3.6941,-3.6941,-3.6941,-3.6941,-3.6941,-3.6941,-3.6941,-3.6941,-3.6941,-3.6941,-3.6941,-3.6941,-3.6941,-3.6941,-3.6941,-3.6941,-3.6941,-3.6941,-3.6941,-3.6941,-3.6941,-3.6941,-3.6941,-3.6914,-3.6834,-3.6687,-3.674,-3.6834,-3.6633,-3.6406,-3.65,-3.6527,-3.6446,-3.642,-3.6513,-3.6553,-3.6433,-3.6513,-3.6754,-3.6861,-3.4827,-3.6941,-3.6941,-3.6941,-3.6941,-3.6941,-3.6719,-3.6706,-3.4432,-3.4655,-3.6484,-3.6484,-3.5335,-3.3527,-3.3527,-3.262,-3.0812,-3.1262,-3.0362,-3.0362,-2.9448,-2.8996,-2.877,-2.7636,-2.7419,-2.7874,-2.7874,-2.7409,-2.8009,-2.9907,-3.0843,-3.0097,-3.1157,-3.2409,-3.2545,-3.241,-3.306,-3.3896,-3.5191,-3.4755,-3.4319,-3.498,-3.5204,-3.5204,-3.5204,-3.5204,-3.5204,-3.5204,-3.5204,-3.5204,-3.5204,-3.5204,-3.5204,-3.5217,-3.5204,-3.5231,-3.5444,-3.5551,-3.5658,-3.5859,-3.6112,-3.6179,-3.638,-3.65,-3.6647,-3.6834,-3.6927,-3.6941,-3.6941,-3.6941,-3.6941,-3.6941,-3.6941,-3.6941,-3.6941,-3.6941,-3.6941,-3.6941,-3.6941,-3.6941,-3.6941,-3.6941,-3.6941,-3.6941,-3.6941,-3.6941,-3.6941,-3.6941,-3.6941,-3.6941,-3.6941,-3.6941,-3.6941,-3.6941,-3.6941,-3.6901,-3.6874,-3.6821,-3.678,-3.6714,-3.6633,-3.6607,-3.658,-3.634,-3.6179,-3.6313,-3.642,-3.6433,-3.6433,-3.6487,-3.6553,-3.6513,-3.662,-3.6834,-3.6887,-3.216,-3.489,-3.4878,-3.4209,-3.308,-3.2856,-3.2856,-3.262,-3.1037,-3.1262,-3.2856,-3.2856,-3.1948,-3.0351,-3.0351,-2.9674,-2.7874,-2.81,-2.8554,-2.81,-2.6282,-2.5826,-2.5598,-2.4921,-2.3556,-2.3777,-2.3997,-2.398,-2.5959,-2.6995,-2.7032,-2.8133,-2.9833,-2.9907,-3.0412,-3.1022,-3.0749,-3.1296,-3.3498,-3.3697,-3.2823,-3.3472,-3.498,-3.5204,-3.5204,-3.5204,-3.5204,-3.5204,-3.5204,-3.5257,-3.5324,-3.5525,-3.5578,-3.5631,-3.5618,-3.5685,-3.5845,-3.6019,-3.6112,-3.6299,-3.654,-3.6633,-3.674,-3.6981,-3.6954,-3.7101,-3.6941,-3.6941,-3.6941,-3.6941,-3.6941,-3.6941,-3.6941,-3.6941,-3.6941,-3.6941,-3.6941,-3.6941,-3.6941,-3.6941,-3.6941,-3.6941,-3.6941,-3.6941,-3.6941,-3.6941,-3.6941,-3.6941,-3.6941,-3.6941,-3.6941,-3.6941,-3.6941,-3.6941,-3.6941,-3.6861,-3.6767,-3.6714,-3.6647,-3.6567,-3.6487,-3.6393,-3.6273,-3.6126,-3.6086,-3.6206,-3.6299,-3.6353,-3.642,-3.6473,-3.658,-3.6674,-3.6794,-3.6887,-3.6914,-2.8996,-3.17,-3.1924,-3.0351,-2.809,-2.81,-2.81,-2.809,-2.7409,-2.7409,-2.7419,-2.6955,-2.6965,-2.7192,-2.7419,-2.6965,-2.6509,-2.515,-2.5826,-2.5369,-2.3777,-2.3097,-2.1955,-2.0594,-2.0363,-1.9907,-1.99,-2.0965,-2.2473,-2.3806,-2.5977,-2.8839,-2.8743,-2.7577,-2.9415,-2.9751,-2.8826,-2.9194,-3.0026,-3.0581,-3.0951,-3.196,-3.3896,-3.4768,-3.5019,-3.5244,-3.5257,-3.5297,-3.5311,-3.5404,-3.5578,-3.5738,-3.5885,-3.5925,-3.5952,-3.6019,-3.6206,-3.6353,-3.6513,-3.6821,-3.7061,-3.7248,-3.7355,-3.7368,-3.7315,-3.7261,-3.7101,-3.7008,-3.7008,-3.6954,-3.6954,-3.6941,-3.6941,-3.6941,-3.6941,-3.6941,-3.6941,-3.6941,-3.6941,-3.6941,-3.6941,-3.6941,-3.6941,-3.6941,-3.6941,-3.6941,-3.6941,-3.6941,-3.6941,-3.6941,-3.6941,-3.6941,-3.6941,-3.6941,-3.6927,-3.6794,-3.666,-3.6553,-3.6473,-3.6406,-3.6286,-3.6019,-3.5912,-3.6006,-3.6006,-3.6086,-3.6219,-3.6313,-3.638,-3.6487,-3.666,-3.678,-3.678,-3.6861,-3.6914,-2.6054,-2.877,-2.877,-2.8317,-2.7874,-2.7874,-2.7874,-2.7409,-2.5141,-2.4235,-2.3547,-2.1725,-2.1733,-2.4235,-2.4235,-2.3547,-2.1955,-2.1502,-2.0817,-2.0131,-2.0586,-2.0131,-1.969,-1.9479,-1.8994,-1.8782,-1.8796,-1.9212,-2.0586,-2.2153,-2.2277,-2.2115,-2.4352,-2.4091,-2.4272,-2.4854,-2.5662,-2.628,-2.7316,-2.8112,-2.9109,-3.0504,-3.2835,-3.3748,-3.4102,-3.5059,-3.5605,-3.5792,-3.5872,-3.5925,-3.5952,-3.6046,-3.6153,-3.6206,-3.6193,-3.6286,-3.6487,-3.6593,-3.6807,-3.7088,-3.7301,-3.7315,-3.7382,-3.7502,-3.7515,-3.7595,-3.7435,-3.7275,-3.7208,-3.7021,-3.6981,-3.6954,-3.6941,-3.6941,-3.6941,-3.6941,-3.6941,-3.6941,-3.6941,-3.6941,-3.6941,-3.6941,-3.6941,-3.6941,-3.6941,-3.6941,-3.6941,-3.6941,-3.6941,-3.6941,-3.6941,-3.6941,-3.6941,-3.6941,-3.6927,-3.67,-3.6553,-3.642,-3.6259,-3.6112,-3.5859,-3.5485,-3.5444,-3.5738,-3.5845,-3.5899,-3.6046,-3.634,-3.6446,-3.658,-3.6767,-3.6887,-3.6861,-3.6861,-3.6914]}]]